Wetterdaten: Mittwoch, 25.05.2022
Datum Zeit Temp. 2m Temp +5 cm Feuchte A. Luftdruck Regen Wind Richtung Richtung Sonnenschein UV Solar Taupunkt Windchill Windben
25.05.2022 00:00 7,3 C 6,1 C 90 % 1014,5 hPa 0,0 l/m 3,2 km/h (1 Bft) SW 225 0 min 0,0 UV-I 0 W/m 5,8 C 7,3 C 4,8 km/h (1 Bft)
25.05.2022 00:01 7,3 C 6,1 C 90 % 1014,1 hPa 0,0 l/m 1,6 km/h (1 Bft) SW 225 0 min 0,0 UV-I 0 W/m 5,8 C 7,3 C 3,2 km/h (1 Bft)
25.05.2022 00:02 7,3 C 6,1 C 90 % 1014,1 hPa 0,0 l/m 1,6 km/h (1 Bft) SW 225 0 min 0,0 UV-I 0 W/m 5,8 C 7,3 C 3,2 km/h (1 Bft)
25.05.2022 00:03 7,3 C 6,1 C 90 % 1014,0 hPa 0,0 l/m 3,2 km/h (1 Bft) SW 225 0 min 0,0 UV-I 0 W/m 5,8 C 7,3 C 4,8 km/h (1 Bft)
25.05.2022 00:04 7,3 C 6,1 C 90 % 1014,1 hPa 0,0 l/m 3,2 km/h (1 Bft) SW 225 0 min 0,0 UV-I 0 W/m 5,8 C 7,3 C 4,8 km/h (1 Bft)
25.05.2022 00:05 7,4 C 6,1 C 90 % 1014,1 hPa 0,0 l/m 3,2 km/h (1 Bft) SW 225 0 min 0,0 UV-I 0 W/m 5,9 C 7,4 C 4,8 km/h (1 Bft)
25.05.2022 00:06 7,4 C 6,1 C 90 % 1014,2 hPa 0,0 l/m 1,6 km/h (1 Bft) SW 225 0 min 0,0 UV-I 0 W/m 5,9 C 7,4 C 3,2 km/h (1 Bft)
25.05.2022 00:07 7,3 C 6,1 C 90 % 1014,2 hPa 0,0 l/m 3,2 km/h (1 Bft) SW 225 0 min 0,0 UV-I 0 W/m 5,8 C 7,3 C 3,2 km/h (1 Bft)
25.05.2022 00:08 7,3 C 6,1 C 90 % 1014,1 hPa 0,0 l/m 1,6 km/h (1 Bft) SW 225 0 min 0,0 UV-I 0 W/m 5,8 C 7,3 C 3,2 km/h (1 Bft)
25.05.2022 00:09 7,2 C 6,1 C 90 % 1014,2 hPa 0,0 l/m 0,0 km/h (0 Bft) N 0 0 min 0,0 UV-I 0 W/m 5,7 C 7,2 C 0,0 km/h (0 Bft)
25.05.2022 00:10 7,2 C 6,1 C 90 % 1014,3 hPa 0,0 l/m 0,0 km/h (0 Bft) SW 225 0 min 0,0 UV-I 0 W/m 5,7 C 7,2 C 1,6 km/h (1 Bft)
25.05.2022 00:11 7,2 C 6,1 C 90 % 1014,3 hPa 0,0 l/m 1,6 km/h (1 Bft) SW 225 0 min 0,0 UV-I 0 W/m 5,7 C 7,2 C 3,2 km/h (1 Bft)
25.05.2022 00:12 7,1 C 6,1 C 90 % 1014,4 hPa 0,0 l/m 3,2 km/h (1 Bft) SW 225 0 min 0,0 UV-I 0 W/m 5,6 C 7,1 C 4,8 km/h (1 Bft)
25.05.2022 00:13 7,1 C 6,1 C 90 % 1014,3 hPa 0,0 l/m 4,8 km/h (1 Bft) SW 225 0 min 0,0 UV-I 0 W/m 5,6 C 7,1 C 6,4 km/h (2 Bft)
25.05.2022 00:14 7,2 C 6,1 C 90 % 1014,4 hPa 0,0 l/m 4,8 km/h (1 Bft) SW 225 0 min 0,0 UV-I 0 W/m 5,7 C 7,2 C 6,4 km/h (2 Bft)
25.05.2022 00:15 7,2 C 6,1 C 90 % 1014,4 hPa 0,0 l/m 4,8 km/h (1 Bft) N-NW 337 0 min 0,0 UV-I 0 W/m 5,7 C 7,2 C 6,4 km/h (2 Bft)
25.05.2022 00:16 7,2 C 6,1 C 90 % 1014,3 hPa 0,0 l/m 4,8 km/h (1 Bft) N-NW 337 0 min 0,0 UV-I 0 W/m 5,7 C 7,2 C 6,4 km/h (2 Bft)
25.05.2022 00:17 7,2 C 6,1 C 90 % 1014,3 hPa 0,0 l/m 4,8 km/h (1 Bft) N-NW 337 0 min 0,0 UV-I 0 W/m 5,7 C 7,2 C 6,4 km/h (2 Bft)
25.05.2022 00:18 7,2 C 6,1 C 90 % 1014,4 hPa 0,0 l/m 4,8 km/h (1 Bft) N-NW 337 0 min 0,0 UV-I 0 W/m 5,7 C 7,2 C 6,4 km/h (2 Bft)
25.05.2022 00:19 7,2 C 6,1 C 90 % 1014,3 hPa 0,0 l/m 4,8 km/h (1 Bft) N-NW 337 0 min 0,0 UV-I 0 W/m 5,7 C 7,2 C 6,4 km/h (2 Bft)
25.05.2022 00:20 7,2 C 6,1 C 90 % 1014,3 hPa 0,0 l/m 4,8 km/h (1 Bft) N-NW 337 0 min 0,0 UV-I 0 W/m 5,7 C 7,2 C 6,4 km/h (2 Bft)
25.05.2022 00:21 7,2 C 6,1 C 90 % 1014,4 hPa 0,0 l/m 3,2 km/h (1 Bft) N-NW 337 0 min 0,0 UV-I 0 W/m 5,7 C 7,2 C 4,8 km/h (1 Bft)
25.05.2022 00:22 7,2 C 6,1 C 90 % 1014,3 hPa 0,0 l/m 3,2 km/h (1 Bft) N-NW 337 0 min 0,0 UV-I 0 W/m 5,7 C 7,2 C 4,8 km/h (1 Bft)
25.05.2022 00:23 7,2 C 6,1 C 90 % 1014,4 hPa 0,0 l/m 3,2 km/h (1 Bft) N-NW 337 0 min 0,0 UV-I 0 W/m 5,7 C 7,2 C 4,8 km/h (1 Bft)
25.05.2022 00:24 7,2 C 6,1 C 90 % 1014,4 hPa 0,0 l/m 3,2 km/h (1 Bft) N-NW 337 0 min 0,0 UV-I 0 W/m 5,7 C 7,2 C 4,8 km/h (1 Bft)
25.05.2022 00:25 7,3 C 6,1 C 91 % 1014,4 hPa 0,0 l/m 3,2 km/h (1 Bft) N-NW 337 0 min 0,0 UV-I 0 W/m 5,9 C 7,3 C 3,2 km/h (1 Bft)
25.05.2022 00:26 7,3 C 6,1 C 90 % 1014,3 hPa 0,0 l/m 0,0 km/h (0 Bft) N-NW 337 0 min 0,0 UV-I 0 W/m 5,8 C 7,3 C 1,6 km/h (1 Bft)
25.05.2022 00:27 7,3 C 6,1 C 90 % 1014,3 hPa 0,0 l/m 0,0 km/h (0 Bft) N 0 0 min 0,0 UV-I 0 W/m 5,8 C 7,3 C 0,0 km/h (0 Bft)
25.05.2022 00:28 7,2 C 6,1 C 90 % 1014,4 hPa 0,0 l/m 0,0 km/h (0 Bft) N 0 0 min 0,0 UV-I 0 W/m 5,7 C 7,2 C 0,0 km/h (0 Bft)
25.05.2022 00:29 7,2 C 6,1 C 90 % 1014,3 hPa 0,0 l/m 0,0 km/h (0 Bft) N 0 0 min 0,0 UV-I 0 W/m 5,7 C 7,2 C 0,0 km/h (0 Bft)
25.05.2022 00:30 7,2 C 6,1 C 90 % 1014,3 hPa 0,0 l/m 0,0 km/h (0 Bft) N 0 0 min 0,0 UV-I 0 W/m 5,7 C 7,2 C 0,0 km/h (0 Bft)
25.05.2022 00:31 7,2 C 6,1 C 90 % 1014,4 hPa 0,0 l/m 0,0 km/h (0 Bft) N-NW 337 0 min 0,0 UV-I 0 W/m 5,7 C 7,2 C 1,6 km/h (1 Bft)
25.05.2022 00:32 7,2 C 6,1 C 90 % 1014,4 hPa 0,0 l/m 0,0 km/h (0 Bft) N 0 0 min 0,0 UV-I 0 W/m 5,7 C 7,2 C 0,0 km/h (0 Bft)
25.05.2022 00:33 7,1 C 6,1 C 90 % 1014,5 hPa 0,0 l/m 0,0 km/h (0 Bft) N-NW 337 0 min 0,0 UV-I 0 W/m 5,6 C 7,1 C 1,6 km/h (1 Bft)
25.05.2022 00:34 7,1 C 6,1 C 90 % 1014,4 hPa 0,0 l/m 0,0 km/h (0 Bft) N 0 0 min 0,0 UV-I 0 W/m 5,6 C 7,1 C 0,0 km/h (0 Bft)
25.05.2022 00:35 7,1 C 6,1 C 91 % 1014,4 hPa 0,0 l/m 0,0 km/h (0 Bft) N 0 0 min 0,0 UV-I 0 W/m 5,7 C 7,1 C 0,0 km/h (0 Bft)
25.05.2022 00:36 7,1 C 6,1 C 91 % 1014,4 hPa 0,0 l/m 0,0 km/h (0 Bft) N 0 0 min 0,0 UV-I 0 W/m 5,7 C 7,1 C 0,0 km/h (0 Bft)
25.05.2022 00:37 7,1 C 6,1 C 91 % 1014,4 hPa 0,0 l/m 0,0 km/h (0 Bft) N-NW 337 0 min 0,0 UV-I 0 W/m 5,7 C 7,1 C 1,6 km/h (1 Bft)
25.05.2022 00:38 7,0 C 6,1 C 91 % 1014,4 hPa 0,0 l/m 1,6 km/h (1 Bft) N-NW 337 0 min 0,0 UV-I 0 W/m 5,6 C 7,0 C 3,2 km/h (1 Bft)
25.05.2022 00:39 7,0 C 6,1 C 91 % 1014,5 hPa 0,0 l/m 1,6 km/h (1 Bft) N-NW 337 0 min 0,0 UV-I 0 W/m 5,6 C 7,0 C 3,2 km/h (1 Bft)
25.05.2022 00:40 7,0 C 6,1 C 91 % 1014,5 hPa 0,0 l/m 3,2 km/h (1 Bft) N-NW 337 0 min 0,0 UV-I 0 W/m 5,6 C 7,0 C 3,2 km/h (1 Bft)
25.05.2022 00:41 7,0 C 6,1 C 91 % 1014,5 hPa 0,0 l/m 3,2 km/h (1 Bft) N-NW 337 0 min 0,0 UV-I 0 W/m 5,6 C 7,0 C 3,2 km/h (1 Bft)
25.05.2022 00:42 7,1 C 6,1 C 91 % 1014,6 hPa 0,0 l/m 1,6 km/h (1 Bft) N-NW 337 0 min 0,0 UV-I 0 W/m 5,7 C 7,1 C 3,2 km/h (1 Bft)
25.05.2022 00:43 7,1 C 6,1 C 91 % 1014,6 hPa 0,0 l/m 1,6 km/h (1 Bft) N-NW 337 0 min 0,0 UV-I 0 W/m 5,7 C 7,1 C 3,2 km/h (1 Bft)
25.05.2022 00:44 7,1 C 6,1 C 91 % 1014,6 hPa 0,0 l/m 0,0 km/h (0 Bft) N-NW 337 0 min 0,0 UV-I 0 W/m 5,7 C 7,1 C 1,6 km/h (1 Bft)
25.05.2022 00:45 7,1 C 6,1 C 91 % 1014,6 hPa 0,0 l/m 0,0 km/h (0 Bft) N-NW 337 0 min 0,0 UV-I 0 W/m 5,7 C 7,1 C 1,6 km/h (1 Bft)
25.05.2022 00:46 7,1 C 6,1 C 91 % 1014,6 hPa 0,0 l/m 0,0 km/h (0 Bft) N 0 0 min 0,0 UV-I 0 W/m 5,7 C 7,1 C 0,0 km/h (0 Bft)
25.05.2022 00:47 7,1 C 6,1 C 91 % 1014,7 hPa 0,0 l/m 0,0 km/h (0 Bft) N 0 0 min 0,0 UV-I 0 W/m 5,7 C 7,1 C 0,0 km/h (0 Bft)
25.05.2022 00:48 7,1 C 6,1 C 91 % 1014,7 hPa 0,0 l/m 0,0 km/h (0 Bft) N 0 0 min 0,0 UV-I 0 W/m 5,7 C 7,1 C 0,0 km/h (0 Bft)
25.05.2022 00:49 7,1 C 6,1 C 91 % 1014,6 hPa 0,0 l/m 0,0 km/h (0 Bft) N 0 0 min 0,0 UV-I 0 W/m 5,7 C 7,1 C 0,0 km/h (0 Bft)
25.05.2022 00:50 7,1 C 6,1 C 91 % 1014,6 hPa 0,0 l/m 0,0 km/h (0 Bft) N 0 0 min 0,0 UV-I 0 W/m 5,7 C 7,1 C 0,0 km/h (0 Bft)
25.05.2022 00:51 7,1 C 6,1 C 91 % 1014,7 hPa 0,0 l/m 0,0 km/h (0 Bft) N 0 0 min 0,0 UV-I 0 W/m 5,7 C 7,1 C 0,0 km/h (0 Bft)
25.05.2022 00:52 7,0 C 6,1 C 91 % 1014,7 hPa 0,0 l/m 0,0 km/h (0 Bft) N 0 0 min 0,0 UV-I 0 W/m 5,6 C 7,0 C 0,0 km/h (0 Bft)
25.05.2022 00:53 6,9 C 6,1 C 91 % 1014,6 hPa 0,0 l/m 0,0 km/h (0 Bft) N-NW 337 0 min 0,0 UV-I 0 W/m 5,5 C 6,9 C 1,6 km/h (1 Bft)
25.05.2022 00:54 6,9 C 6,1 C 91 % 1014,6 hPa 0,0 l/m 1,6 km/h (1 Bft) N-NW 337 0 min 0,0 UV-I 0 W/m 5,5 C 6,9 C 1,6 km/h (1 Bft)
25.05.2022 00:55 6,9 C 6,1 C 91 % 1014,7 hPa 0,0 l/m 1,6 km/h (1 Bft) N-NW 337 0 min 0,0 UV-I 0 W/m 5,5 C 6,9 C 1,6 km/h (1 Bft)
25.05.2022 00:56 6,9 C 6,1 C 91 % 1014,6 hPa 0,0 l/m 0,0 km/h (0 Bft) N-NW 337 0 min 0,0 UV-I 0 W/m 5,5 C 6,9 C 1,6 km/h (1 Bft)
25.05.2022 00:57 6,9 C 6,1 C 91 % 1014,7 hPa 0,0 l/m 0,0 km/h (0 Bft) N-NW 337 0 min 0,0 UV-I 0 W/m 5,5 C 6,9 C 1,6 km/h (1 Bft)
25.05.2022 00:58 6,8 C 6,1 C 91 % 1014,7 hPa 0,0 l/m 0,0 km/h (0 Bft) N-NW 337 0 min 0,0 UV-I 0 W/m 5,4 C 6,8 C 1,6 km/h (1 Bft)
25.05.2022 00:59 6,8 C 6,1 C 91 % 1014,7 hPa 0,0 l/m 0,0 km/h (0 Bft) N-NW 337 0 min 0,0 UV-I 0 W/m 5,4 C 6,8 C 1,6 km/h (1 Bft)
25.05.2022 01:00 6,8 C 6,1 C 91 % 1014,7 hPa 0,0 l/m 0,0 km/h (0 Bft) N 0 0 min 0,0 UV-I 0 W/m 5,4 C 6,8 C 0,0 km/h (0 Bft)
25.05.2022 01:01 6,8 C 6,1 C 91 % 1014,7 hPa 0,0 l/m 0,0 km/h (0 Bft) N 0 0 min 0,0 UV-I 0 W/m 5,4 C 6,8 C 0,0 km/h (0 Bft)
25.05.2022 01:02 6,8 C 6,1 C 91 % 1014,8 hPa 0,0 l/m 0,0 km/h (0 Bft) N 0 0 min 0,0 UV-I 0 W/m 5,4 C 6,8 C 0,0 km/h (0 Bft)
25.05.2022 01:03 6,8 C 6,1 C 91 % 1014,7 hPa 0,0 l/m 0,0 km/h (0 Bft) N 0 0 min 0,0 UV-I 0 W/m 5,4 C 6,8 C 0,0 km/h (0 Bft)
25.05.2022 01:04 6,8 C 6,1 C 91 % 1014,8 hPa 0,0 l/m 0,0 km/h (0 Bft) N 0 0 min 0,0 UV-I 0 W/m 5,4 C 6,8 C 0,0 km/h (0 Bft)
25.05.2022 01:05 6,8 C 5,6 C 91 % 1014,8 hPa 0,0 l/m 0,0 km/h (0 Bft) N 0 0 min 0,0 UV-I 0 W/m 5,4 C 6,8 C 0,0 km/h (0 Bft)
25.05.2022 01:06 6,8 C 5,6 C 91 % 1014,7 hPa 0,0 l/m 0,0 km/h (0 Bft) N 0 0 min 0,0 UV-I 0 W/m 5,4 C 6,8 C 0,0 km/h (0 Bft)
25.05.2022 01:07 6,9 C 5,6 C 91 % 1014,8 hPa 0,0 l/m 0,0 km/h (0 Bft) N 0 0 min 0,0 UV-I 0 W/m 5,5 C 6,9 C 0,0 km/h (0 Bft)
25.05.2022 01:08 6,8 C 5,6 C 91 % 1014,9 hPa 0,0 l/m 0,0 km/h (0 Bft) N 0 0 min 0,0 UV-I 0 W/m 5,4 C 6,8 C 0,0 km/h (0 Bft)
25.05.2022 01:09 6,8 C 5,6 C 91 % 1014,8 hPa 0,0 l/m 0,0 km/h (0 Bft) N 0 0 min 0,0 UV-I 0 W/m 5,4 C 6,8 C 0,0 km/h (0 Bft)
25.05.2022 01:10 6,8 C 5,6 C 91 % 1014,8 hPa 0,0 l/m 0,0 km/h (0 Bft) N 0 0 min 0,0 UV-I 0 W/m 5,4 C 6,8 C 0,0 km/h (0 Bft)
25.05.2022 01:11 6,8 C 5,6 C 91 % 1014,7 hPa 0,0 l/m 0,0 km/h (0 Bft) N 0 0 min 0,0 UV-I 0 W/m 5,4 C 6,8 C 0,0 km/h (0 Bft)
25.05.2022 01:12 6,8 C 5,6 C 91 % 1014,8 hPa 0,0 l/m 0,0 km/h (0 Bft) N 0 0 min 0,0 UV-I 0 W/m 5,4 C 6,8 C 0,0 km/h (0 Bft)
25.05.2022 01:13 6,8 C 5,6 C 91 % 1014,8 hPa 0,0 l/m 0,0 km/h (0 Bft) N 0 0 min 0,0 UV-I 0 W/m 5,4 C 6,8 C 0,0 km/h (0 Bft)
25.05.2022 01:14 6,8 C 5,6 C 91 % 1014,8 hPa 0,0 l/m 0,0 km/h (0 Bft) N 0 0 min 0,0 UV-I 0 W/m 5,4 C 6,8 C 0,0 km/h (0 Bft)
25.05.2022 01:15 6,8 C 5,6 C 92 % 1014,8 hPa 0,0 l/m 0,0 km/h (0 Bft) N 0 0 min 0,0 UV-I 0 W/m 5,6 C 6,8 C 0,0 km/h (0 Bft)
25.05.2022 01:16 6,8 C 5,6 C 91 % 1014,8 hPa 0,0 l/m 0,0 km/h (0 Bft) N 0 0 min 0,0 UV-I 0 W/m 5,4 C 6,8 C 0,0 km/h (0 Bft)
25.05.2022 01:17 6,8 C 5,6 C 92 % 1014,8 hPa 0,0 l/m 0,0 km/h (0 Bft) N 0 0 min 0,0 UV-I 0 W/m 5,6 C 6,8 C 0,0 km/h (0 Bft)
25.05.2022 01:18 6,8 C 5,6 C 92 % 1014,8 hPa 0,0 l/m 0,0 km/h (0 Bft) N 0 0 min 0,0 UV-I 0 W/m 5,6 C 6,8 C 0,0 km/h (0 Bft)
25.05.2022 01:19 6,8 C 5,6 C 91 % 1014,9 hPa 0,0 l/m 0,0 km/h (0 Bft) N 0 0 min 0,0 UV-I 0 W/m 5,4 C 6,8 C 0,0 km/h (0 Bft)
25.05.2022 01:20 6,8 C 5,0 C 91 % 1014,8 hPa 0,0 l/m 0,0 km/h (0 Bft) N 0 0 min 0,0 UV-I 0 W/m 5,4 C 6,8 C 0,0 km/h (0 Bft)
25.05.2022 01:21 6,8 C 5,6 C 91 % 1014,8 hPa 0,0 l/m 0,0 km/h (0 Bft) N 0 0 min 0,0 UV-I 0 W/m 5,4 C 6,8 C 0,0 km/h (0 Bft)
25.05.2022 01:22 6,7 C 5,0 C 91 % 1014,8 hPa 0,0 l/m 0,0 km/h (0 Bft) N 0 0 min 0,0 UV-I 0 W/m 5,3 C 6,7 C 0,0 km/h (0 Bft)
25.05.2022 01:23 6,7 C 5,0 C 91 % 1014,8 hPa 0,0 l/m 0,0 km/h (0 Bft) N 0 0 min 0,0 UV-I 0 W/m 5,3 C 6,7 C 0,0 km/h (0 Bft)
25.05.2022 01:24 6,7 C 5,0 C 91 % 1014,8 hPa 0,0 l/m 0,0 km/h (0 Bft) N 0 0 min 0,0 UV-I 0 W/m 5,3 C 6,7 C 0,0 km/h (0 Bft)
25.05.2022 01:25 6,6 C 5,0 C 91 % 1014,8 hPa 0,0 l/m 0,0 km/h (0 Bft) N 0 0 min 0,0 UV-I 0 W/m 5,2 C 6,6 C 0,0 km/h (0 Bft)
25.05.2022 01:26 6,6 C 5,0 C 91 % 1014,9 hPa 0,0 l/m 0,0 km/h (0 Bft) N 0 0 min 0,0 UV-I 0 W/m 5,2 C 6,6 C 0,0 km/h (0 Bft)
25.05.2022 01:27 6,6 C 5,0 C 91 % 1014,8 hPa 0,0 l/m 0,0 km/h (0 Bft) N 0 0 min 0,0 UV-I 0 W/m 5,2 C 6,6 C 0,0 km/h (0 Bft)
25.05.2022 01:28 6,6 C 5,0 C 91 % 1014,9 hPa 0,0 l/m 0,0 km/h (0 Bft) N 0 0 min 0,0 UV-I 0 W/m 5,2 C 6,6 C 0,0 km/h (0 Bft)
25.05.2022 01:29 6,6 C 5,0 C 92 % 1014,9 hPa 0,0 l/m 0,0 km/h (0 Bft) N 0 0 min 0,0 UV-I 0 W/m 5,4 C 6,6 C 0,0 km/h (0 Bft)
25.05.2022 01:30 6,6 C 5,0 C 92 % 1014,8 hPa 0,0 l/m 0,0 km/h (0 Bft) N 0 0 min 0,0 UV-I 0 W/m 5,4 C 6,6 C 0,0 km/h (0 Bft)
25.05.2022 01:31 6,6 C 5,0 C 92 % 1014,8 hPa 0,0 l/m 0,0 km/h (0 Bft) N 0 0 min 0,0 UV-I 0 W/m 5,4 C 6,6 C 0,0 km/h (0 Bft)
25.05.2022 01:32 6,6 C 5,0 C 92 % 1014,8 hPa 0,0 l/m 0,0 km/h (0 Bft) N 0 0 min 0,0 UV-I 0 W/m 5,4 C 6,6 C 0,0 km/h (0 Bft)
25.05.2022 01:33 6,6 C 5,0 C 92 % 1014,8 hPa 0,0 l/m 0,0 km/h (0 Bft) N 0 0 min 0,0 UV-I 0 W/m 5,4 C 6,6 C 0,0 km/h (0 Bft)
25.05.2022 01:34 6,6 C 5,0 C 92 % 1014,7 hPa 0,0 l/m 0,0 km/h (0 Bft) N 0 0 min 0,0 UV-I 0 W/m 5,4 C 6,6 C 0,0 km/h (0 Bft)
25.05.2022 01:35 6,6 C 5,0 C 92 % 1014,7 hPa 0,0 l/m 0,0 km/h (0 Bft) N 0 0 min 0,0 UV-I 0 W/m 5,4 C 6,6 C 0,0 km/h (0 Bft)
25.05.2022 01:36 6,6 C 5,0 C 92 % 1014,8 hPa 0,0 l/m 0,0 km/h (0 Bft) N 0 0 min 0,0 UV-I 0 W/m 5,4 C 6,6 C 0,0 km/h (0 Bft)
25.05.2022 01:37 6,6 C 5,0 C 92 % 1014,8 hPa 0,0 l/m 0,0 km/h (0 Bft) N 0 0 min 0,0 UV-I 0 W/m 5,4 C 6,6 C 0,0 km/h (0 Bft)
25.05.2022 01:38 6,6 C 5,0 C 92 % 1014,7 hPa 0,0 l/m 0,0 km/h (0 Bft) N 0 0 min 0,0 UV-I 0 W/m 5,4 C 6,6 C 0,0 km/h (0 Bft)
25.05.2022 01:39 6,5 C 5,0 C 92 % 1014,8 hPa 0,0 l/m 0,0 km/h (0 Bft) N 0 0 min 0,0 UV-I 0 W/m 5,3 C 6,5 C 0,0 km/h (0 Bft)
25.05.2022 01:40 6,5 C 5,0 C 92 % 1014,8 hPa 0,0 l/m 0,0 km/h (0 Bft) N 0 0 min 0,0 UV-I 0 W/m 5,3 C 6,5 C 0,0 km/h (0 Bft)
25.05.2022 01:41 6,4 C 5,0 C 92 % 1014,8 hPa 0,0 l/m 0,0 km/h (0 Bft) N 0 0 min 0,0 UV-I 0 W/m 5,2 C 6,4 C 0,0 km/h (0 Bft)
25.05.2022 01:42 6,4 C 5,0 C 92 % 1014,8 hPa 0,0 l/m 0,0 km/h (0 Bft) N 0 0 min 0,0 UV-I 0 W/m 5,2 C 6,4 C 0,0 km/h (0 Bft)
25.05.2022 01:43 6,3 C 4,4 C 91 % 1014,8 hPa 0,0 l/m 0,0 km/h (0 Bft) N 0 0 min 0,0 UV-I 0 W/m 4,9 C 6,3 C 0,0 km/h (0 Bft)
25.05.2022 01:44 6,3 C 4,4 C 91 % 1014,8 hPa 0,0 l/m 0,0 km/h (0 Bft) N 0 0 min 0,0 UV-I 0 W/m 4,9 C 6,3 C 0,0 km/h (0 Bft)
25.05.2022 01:45 6,2 C 4,4 C 91 % 1014,8 hPa 0,0 l/m 0,0 km/h (0 Bft) N 0 0 min 0,0 UV-I 0 W/m 4,8 C 6,2 C 0,0 km/h (0 Bft)
25.05.2022 01:46 6,2 C 4,4 C 91 % 1014,8 hPa 0,0 l/m 0,0 km/h (0 Bft) N 0 0 min 0,0 UV-I 0 W/m 4,8 C 6,2 C 0,0 km/h (0 Bft)
25.05.2022 01:47 6,1 C 4,4 C 91 % 1014,8 hPa 0,0 l/m 0,0 km/h (0 Bft) N 0 0 min 0,0 UV-I 0 W/m 4,7 C 6,1 C 0,0 km/h (0 Bft)
25.05.2022 01:48 6,1 C 4,4 C 92 % 1014,8 hPa 0,0 l/m 0,0 km/h (0 Bft) N 0 0 min 0,0 UV-I 0 W/m 4,9 C 6,1 C 0,0 km/h (0 Bft)
25.05.2022 01:49 6,1 C 4,4 C 91 % 1014,8 hPa 0,0 l/m 0,0 km/h (0 Bft) N 0 0 min 0,0 UV-I 0 W/m 4,7 C 6,1 C 0,0 km/h (0 Bft)
25.05.2022 01:50 6,1 C 4,4 C 91 % 1014,8 hPa 0,0 l/m 0,0 km/h (0 Bft) N 0 0 min 0,0 UV-I 0 W/m 4,7 C 6,1 C 0,0 km/h (0 Bft)
25.05.2022 01:51 6,1 C 4,4 C 92 % 1014,7 hPa 0,0 l/m 0,0 km/h (0 Bft) N 0 0 min 0,0 UV-I 0 W/m 4,9 C 6,1 C 0,0 km/h (0 Bft)
25.05.2022 01:52 6,1 C 4,4 C 92 % 1014,8 hPa 0,0 l/m 0,0 km/h (0 Bft) N-NW 337 0 min 0,0 UV-I 0 W/m 4,9 C 6,1 C 1,6 km/h (1 Bft)
25.05.2022 01:53 6,0 C 4,4 C 92 % 1014,8 hPa 0,0 l/m 1,6 km/h (1 Bft) N-NW 337 0 min 0,0 UV-I 0 W/m 4,8 C 6,0 C 1,6 km/h (1 Bft)
25.05.2022 01:54 6,0 C 4,4 C 92 % 1014,7 hPa 0,0 l/m 0,0 km/h (0 Bft) N 0 0 min 0,0 UV-I 0 W/m 4,8 C 6,0 C 0,0 km/h (0 Bft)
25.05.2022 01:55 6,0 C 4,4 C 92 % 1014,8 hPa 0,0 l/m 0,0 km/h (0 Bft) N 0 0 min 0,0 UV-I 0 W/m 4,8 C 6,0 C 0,0 km/h (0 Bft)
25.05.2022 01:56 6,1 C 4,4 C 92 % 1014,8 hPa 0,0 l/m 0,0 km/h (0 Bft) N 0 0 min 0,0 UV-I 0 W/m 4,9 C 6,1 C 0,0 km/h (0 Bft)
25.05.2022 01:57 6,1 C 4,4 C 92 % 1014,9 hPa 0,0 l/m 0,0 km/h (0 Bft) N 0 0 min 0,0 UV-I 0 W/m 4,9 C 6,1 C 0,0 km/h (0 Bft)
25.05.2022 01:58 6,2 C 4,4 C 92 % 1014,8 hPa 0,0 l/m 0,0 km/h (0 Bft) N 0 0 min 0,0 UV-I 0 W/m 5,0 C 6,2 C 0,0 km/h (0 Bft)
25.05.2022 01:59 6,3 C 4,4 C 92 % 1014,8 hPa 0,0 l/m 0,0 km/h (0 Bft) N 0 0 min 0,0 UV-I 0 W/m 5,1 C 6,3 C 0,0 km/h (0 Bft)
25.05.2022 02:00 6,3 C 4,4 C 92 % 1014,8 hPa 0,0 l/m 0,0 km/h (0 Bft) N 0 0 min 0,0 UV-I 0 W/m 5,1 C 6,3 C 0,0 km/h (0 Bft)
25.05.2022 02:01 6,4 C 4,4 C 92 % 1014,9 hPa 0,0 l/m 0,0 km/h (0 Bft) N 0 0 min 0,0 UV-I 0 W/m 5,2 C 6,4 C 0,0 km/h (0 Bft)
25.05.2022 02:02 6,4 C 4,4 C 92 % 1014,9 hPa 0,0 l/m 0,0 km/h (0 Bft) N 0 0 min 0,0 UV-I 0 W/m 5,2 C 6,4 C 0,0 km/h (0 Bft)
25.05.2022 02:03 6,4 C 4,4 C 92 % 1014,9 hPa 0,0 l/m 0,0 km/h (0 Bft) N-NW 337 0 min 0,0 UV-I 0 W/m 5,2 C 6,4 C 1,6 km/h (1 Bft)
25.05.2022 02:04 6,4 C 4,4 C 92 % 1014,9 hPa 0,0 l/m 0,0 km/h (0 Bft) N 0 0 min 0,0 UV-I 0 W/m 5,2 C 6,4 C 0,0 km/h (0 Bft)
25.05.2022 02:05 6,3 C 4,4 C 92 % 1014,9 hPa 0,0 l/m 0,0 km/h (0 Bft) N 0 0 min 0,0 UV-I 0 W/m 5,1 C 6,3 C 0,0 km/h (0 Bft)
25.05.2022 02:06 6,3 C 4,4 C 92 % 1014,8 hPa 0,0 l/m 0,0 km/h (0 Bft) N 0 0 min 0,0 UV-I 0 W/m 5,1 C 6,3 C 0,0 km/h (0 Bft)
25.05.2022 02:07 6,3 C 4,4 C 92 % 1014,9 hPa 0,0 l/m 0,0 km/h (0 Bft) N 0 0 min 0,0 UV-I 0 W/m 5,1 C 6,3 C 0,0 km/h (0 Bft)
25.05.2022 02:08 6,3 C 4,4 C 92 % 1014,9 hPa 0,0 l/m 0,0 km/h (0 Bft) N 0 0 min 0,0 UV-I 0 W/m 5,1 C 6,3 C 0,0 km/h (0 Bft)
25.05.2022 02:09 6,3 C 4,4 C 92 % 1014,9 hPa 0,0 l/m 0,0 km/h (0 Bft) N 0 0 min 0,0 UV-I 0 W/m 5,1 C 6,3 C 0,0 km/h (0 Bft)
25.05.2022 02:10 6,3 C 4,4 C 92 % 1014,9 hPa 0,0 l/m 0,0 km/h (0 Bft) N 0 0 min 0,0 UV-I 0 W/m 5,1 C 6,3 C 0,0 km/h (0 Bft)
25.05.2022 02:11 6,3 C 3,9 C 92 % 1015,0 hPa 0,0 l/m 0,0 km/h (0 Bft) N 0 0 min 0,0 UV-I 0 W/m 5,1 C 6,3 C 0,0 km/h (0 Bft)
25.05.2022 02:12 6,2 C 3,9 C 92 % 1014,9 hPa 0,0 l/m 0,0 km/h (0 Bft) N 0 0 min 0,0 UV-I 0 W/m 5,0 C 6,2 C 0,0 km/h (0 Bft)
25.05.2022 02:13 6,1 C 4,4 C 92 % 1014,9 hPa 0,0 l/m 0,0 km/h (0 Bft) N 0 0 min 0,0 UV-I 0 W/m 4,9 C 6,1 C 0,0 km/h (0 Bft)
25.05.2022 02:14 5,9 C 4,4 C 91 % 1015,0 hPa 0,0 l/m 0,0 km/h (0 Bft) N 0 0 min 0,0 UV-I 0 W/m 4,5 C 5,9 C 0,0 km/h (0 Bft)
25.05.2022 02:15 5,8 C 4,4 C 91 % 1015,0 hPa 0,0 l/m 0,0 km/h (0 Bft) N 0 0 min 0,0 UV-I 0 W/m 4,4 C 5,8 C 0,0 km/h (0 Bft)
25.05.2022 02:16 5,8 C 3,9 C 91 % 1015,0 hPa 0,0 l/m 0,0 km/h (0 Bft) N 0 0 min 0,0 UV-I 0 W/m 4,4 C 5,8 C 0,0 km/h (0 Bft)
25.05.2022 02:17 5,7 C 3,9 C 92 % 1015,0 hPa 0,0 l/m 0,0 km/h (0 Bft) N 0 0 min 0,0 UV-I 0 W/m 4,5 C 5,7 C 0,0 km/h (0 Bft)
25.05.2022 02:18 5,6 C 3,9 C 91 % 1015,0 hPa 0,0 l/m 0,0 km/h (0 Bft) N 0 0 min 0,0 UV-I 0 W/m 4,2 C 5,6 C 0,0 km/h (0 Bft)
25.05.2022 02:19 5,6 C 3,9 C 91 % 1015,1 hPa 0,0 l/m 0,0 km/h (0 Bft) N 0 0 min 0,0 UV-I 0 W/m 4,2 C 5,6 C 0,0 km/h (0 Bft)
25.05.2022 02:20 5,6 C 3,9 C 92 % 1015,1 hPa 0,0 l/m 0,0 km/h (0 Bft) N 0 0 min 0,0 UV-I 0 W/m 4,4 C 5,6 C 0,0 km/h (0 Bft)
25.05.2022 02:21 5,5 C 3,9 C 92 % 1015,0 hPa 0,0 l/m 0,0 km/h (0 Bft) N 0 0 min 0,0 UV-I 0 W/m 4,3 C 5,5 C 0,0 km/h (0 Bft)
25.05.2022 02:22 5,5 C 3,9 C 92 % 1015,1 hPa 0,0 l/m 0,0 km/h (0 Bft) N 0 0 min 0,0 UV-I 0 W/m 4,3 C 5,5 C 0,0 km/h (0 Bft)
25.05.2022 02:23 5,5 C 3,9 C 92 % 1015,1 hPa 0,0 l/m 0,0 km/h (0 Bft) N 0 0 min 0,0 UV-I 0 W/m 4,3 C 5,5 C 0,0 km/h (0 Bft)
25.05.2022 02:24 5,5 C 3,9 C 92 % 1015,2 hPa 0,0 l/m 0,0 km/h (0 Bft) N 0 0 min 0,0 UV-I 0 W/m 4,3 C 5,5 C 0,0 km/h (0 Bft)
25.05.2022 02:25 5,6 C 3,9 C 92 % 1015,1 hPa 0,0 l/m 0,0 km/h (0 Bft) N 0 0 min 0,0 UV-I 0 W/m 4,4 C 5,6 C 0,0 km/h (0 Bft)
25.05.2022 02:26 5,6 C 3,9 C 92 % 1015,1 hPa 0,0 l/m 0,0 km/h (0 Bft) N 0 0 min 0,0 UV-I 0 W/m 4,4 C 5,6 C 0,0 km/h (0 Bft)
25.05.2022 02:27 5,6 C 3,9 C 92 % 1015,1 hPa 0,0 l/m 0,0 km/h (0 Bft) N 0 0 min 0,0 UV-I 0 W/m 4,4 C 5,6 C 0,0 km/h (0 Bft)
25.05.2022 02:28 5,6 C 3,9 C 92 % 1015,2 hPa 0,0 l/m 0,0 km/h (0 Bft) N 0 0 min 0,0 UV-I 0 W/m 4,4 C 5,6 C 0,0 km/h (0 Bft)
25.05.2022 02:29 5,6 C 3,9 C 92 % 1015,2 hPa 0,0 l/m 0,0 km/h (0 Bft) N 0 0 min 0,0 UV-I 0 W/m 4,4 C 5,6 C 0,0 km/h (0 Bft)
25.05.2022 02:30 5,5 C 3,9 C 92 % 1015,2 hPa 0,0 l/m 0,0 km/h (0 Bft) N 0 0 min 0,0 UV-I 0 W/m 4,3 C 5,5 C 0,0 km/h (0 Bft)
25.05.2022 02:31 5,5 C 3,9 C 92 % 1015,2 hPa 0,0 l/m 0,0 km/h (0 Bft) N 0 0 min 0,0 UV-I 0 W/m 4,3 C 5,5 C 0,0 km/h (0 Bft)
25.05.2022 02:32 5,4 C 3,9 C 92 % 1015,2 hPa 0,0 l/m 0,0 km/h (0 Bft) N 0 0 min 0,0 UV-I 0 W/m 4,2 C 5,4 C 0,0 km/h (0 Bft)
25.05.2022 02:33 5,3 C 3,3 C 92 % 1015,2 hPa 0,0 l/m 0,0 km/h (0 Bft) N 0 0 min 0,0 UV-I 0 W/m 4,1 C 5,3 C 0,0 km/h (0 Bft)
25.05.2022 02:34 5,3 C 3,3 C 92 % 1015,1 hPa 0,0 l/m 0,0 km/h (0 Bft) N 0 0 min 0,0 UV-I 0 W/m 4,1 C 5,3 C 0,0 km/h (0 Bft)
25.05.2022 02:35 5,3 C 3,3 C 92 % 1015,2 hPa 0,0 l/m 0,0 km/h (0 Bft) N 0 0 min 0,0 UV-I 0 W/m 4,1 C 5,3 C 0,0 km/h (0 Bft)
25.05.2022 02:36 5,3 C 3,3 C 92 % 1015,2 hPa 0,0 l/m 0,0 km/h (0 Bft) N 0 0 min 0,0 UV-I 0 W/m 4,1 C 5,3 C 0,0 km/h (0 Bft)
25.05.2022 02:37 5,3 C 3,3 C 92 % 1015,2 hPa 0,0 l/m 0,0 km/h (0 Bft) N 0 0 min 0,0 UV-I 0 W/m 4,1 C 5,3 C 0,0 km/h (0 Bft)
25.05.2022 02:38 5,3 C 3,9 C 92 % 1015,2 hPa 0,0 l/m 0,0 km/h (0 Bft) N 0 0 min 0,0 UV-I 0 W/m 4,1 C 5,3 C 0,0 km/h (0 Bft)
25.05.2022 02:39 5,3 C 3,9 C 92 % 1015,2 hPa 0,0 l/m 0,0 km/h (0 Bft) N 0 0 min 0,0 UV-I 0 W/m 4,1 C 5,3 C 0,0 km/h (0 Bft)
25.05.2022 02:40 5,3 C 3,9 C 92 % 1015,3 hPa 0,0 l/m 0,0 km/h (0 Bft) N 0 0 min 0,0 UV-I 0 W/m 4,1 C 5,3 C 0,0 km/h (0 Bft)
25.05.2022 02:41 5,4 C 3,9 C 92 % 1015,2 hPa 0,0 l/m 0,0 km/h (0 Bft) N 0 0 min 0,0 UV-I 0 W/m 4,2 C 5,4 C 0,0 km/h (0 Bft)
25.05.2022 02:42 5,4 C 3,9 C 92 % 1015,2 hPa 0,0 l/m 0,0 km/h (0 Bft) N-NW 337 0 min 0,0 UV-I 0 W/m 4,2 C 5,4 C 1,6 km/h (1 Bft)
25.05.2022 02:43 5,5 C 3,9 C 92 % 1015,1 hPa 0,0 l/m 0,0 km/h (0 Bft) N 0 0 min 0,0 UV-I 0 W/m 4,3 C 5,5 C 0,0 km/h (0 Bft)
25.05.2022 02:44 5,6 C 3,9 C 92 % 1015,2 hPa 0,0 l/m 0,0 km/h (0 Bft) N 0 0 min 0,0 UV-I 0 W/m 4,4 C 5,6 C 0,0 km/h (0 Bft)
25.05.2022 02:45 5,6 C 3,9 C 92 % 1015,2 hPa 0,0 l/m 0,0 km/h (0 Bft) N 0 0 min 0,0 UV-I 0 W/m 4,4 C 5,6 C 0,0 km/h (0 Bft)
25.05.2022 02:46 5,6 C 3,9 C 92 % 1015,2 hPa 0,0 l/m 0,0 km/h (0 Bft) N 0 0 min 0,0 UV-I 0 W/m 4,4 C 5,6 C 0,0 km/h (0 Bft)
25.05.2022 02:47 5,6 C 3,9 C 92 % 1015,2 hPa 0,0 l/m 0,0 km/h (0 Bft) N 0 0 min 0,0 UV-I 0 W/m 4,4 C 5,6 C 0,0 km/h (0 Bft)
25.05.2022 02:48 5,5 C 3,9 C 92 % 1015,2 hPa 0,0 l/m 0,0 km/h (0 Bft) N 0 0 min 0,0 UV-I 0 W/m 4,3 C 5,5 C 0,0 km/h (0 Bft)
25.05.2022 02:49 5,5 C 3,9 C 92 % 1015,2 hPa 0,0 l/m 0,0 km/h (0 Bft) N 0 0 min 0,0 UV-I 0 W/m 4,3 C 5,5 C 0,0 km/h (0 Bft)
25.05.2022 02:50 5,4 C 3,3 C 92 % 1015,2 hPa 0,0 l/m 0,0 km/h (0 Bft) N 0 0 min 0,0 UV-I 0 W/m 4,2 C 5,4 C 0,0 km/h (0 Bft)
25.05.2022 02:51 5,4 C 3,3 C 92 % 1015,2 hPa 0,0 l/m 0,0 km/h (0 Bft) N 0 0 min 0,0 UV-I 0 W/m 4,2 C 5,4 C 0,0 km/h (0 Bft)
25.05.2022 02:52 5,4 C 3,3 C 92 % 1015,2 hPa 0,0 l/m 0,0 km/h (0 Bft) N 0 0 min 0,0 UV-I 0 W/m 4,2 C 5,4 C 0,0 km/h (0 Bft)
25.05.2022 02:53 5,3 C 3,3 C 92 % 1015,3 hPa 0,0 l/m 0,0 km/h (0 Bft) N 0 0 min 0,0 UV-I 0 W/m 4,1 C 5,3 C 0,0 km/h (0 Bft)
25.05.2022 02:54 5,3 C 3,3 C 92 % 1015,3 hPa 0,0 l/m 0,0 km/h (0 Bft) N 0 0 min 0,0 UV-I 0 W/m 4,1 C 5,3 C 0,0 km/h (0 Bft)
25.05.2022 02:55 5,3 C 3,3 C 92 % 1015,3 hPa 0,0 l/m 0,0 km/h (0 Bft) N 0 0 min 0,0 UV-I 0 W/m 4,1 C 5,3 C 0,0 km/h (0 Bft)
25.05.2022 02:56 5,3 C 3,3 C 92 % 1015,3 hPa 0,0 l/m 0,0 km/h (0 Bft) N 0 0 min 0,0 UV-I 0 W/m 4,1 C 5,3 C 0,0 km/h (0 Bft)
25.05.2022 02:57 5,2 C 3,3 C 92 % 1015,3 hPa 0,0 l/m 0,0 km/h (0 Bft) N 0 0 min 0,0 UV-I 0 W/m 4,0 C 5,2 C 0,0 km/h (0 Bft)
25.05.2022 02:58 5,1 C 3,3 C 92 % 1015,4 hPa 0,0 l/m 0,0 km/h (0 Bft) N 0 0 min 0,0 UV-I 0 W/m 3,9 C 5,1 C 0,0 km/h (0 Bft)
25.05.2022 02:59 5,0 C 3,3 C 92 % 1015,3 hPa 0,0 l/m 0,0 km/h (0 Bft) N 0 0 min 0,0 UV-I 0 W/m 3,8 C 5,0 C 0,0 km/h (0 Bft)
25.05.2022 03:00 4,9 C 3,3 C 92 % 1015,3 hPa 0,0 l/m 0,0 km/h (0 Bft) N 0 0 min 0,0 UV-I 0 W/m 3,7 C 4,9 C 0,0 km/h (0 Bft)
25.05.2022 03:01 5,0 C 3,3 C 92 % 1015,4 hPa 0,0 l/m 0,0 km/h (0 Bft) N 0 0 min 0,0 UV-I 0 W/m 3,8 C 5,0 C 0,0 km/h (0 Bft)
25.05.2022 03:02 4,9 C 3,3 C 92 % 1015,5 hPa 0,0 l/m 0,0 km/h (0 Bft) N 0 0 min 0,0 UV-I 0 W/m 3,7 C 4,9 C 0,0 km/h (0 Bft)
25.05.2022 03:03 4,9 C 3,3 C 92 % 1015,4 hPa 0,0 l/m 0,0 km/h (0 Bft) N 0 0 min 0,0 UV-I 0 W/m 3,7 C 4,9 C 0,0 km/h (0 Bft)
25.05.2022 03:04 4,9 C 3,3 C 92 % 1015,4 hPa 0,0 l/m 0,0 km/h (0 Bft) N-NW 337 0 min 0,0 UV-I 0 W/m 3,7 C 4,9 C 1,6 km/h (1 Bft)
25.05.2022 03:05 4,9 C 3,3 C 92 % 1015,4 hPa 0,0 l/m 0,0 km/h (0 Bft) N-NW 337 0 min 0,0 UV-I 0 W/m 3,7 C 4,9 C 1,6 km/h (1 Bft)
25.05.2022 03:06 4,9 C 3,3 C 92 % 1015,4 hPa 0,0 l/m 1,6 km/h (1 Bft) N-NW 337 0 min 0,0 UV-I 0 W/m 3,7 C 4,9 C 1,6 km/h (1 Bft)
25.05.2022 03:07 4,9 C 3,3 C 92 % 1015,5 hPa 0,0 l/m 1,6 km/h (1 Bft) N-NW 337 0 min 0,0 UV-I 0 W/m 3,7 C 4,9 C 1,6 km/h (1 Bft)
25.05.2022 03:08 4,8 C 3,3 C 92 % 1015,5 hPa 0,0 l/m 1,6 km/h (1 Bft) N-NW 337 0 min 0,0 UV-I 0 W/m 3,6 C 4,8 C 1,6 km/h (1 Bft)
25.05.2022 03:09 4,8 C 3,3 C 92 % 1015,5 hPa 0,0 l/m 0,0 km/h (0 Bft) N-NW 337 0 min 0,0 UV-I 0 W/m 3,6 C 4,8 C 1,6 km/h (1 Bft)
25.05.2022 03:10 4,8 C 3,3 C 92 % 1015,5 hPa 0,0 l/m 1,6 km/h (1 Bft) N-NW 337 0 min 0,0 UV-I 0 W/m 3,6 C 4,8 C 1,6 km/h (1 Bft)
25.05.2022 03:11 4,8 C 3,3 C 92 % 1015,6 hPa 0,0 l/m 0,0 km/h (0 Bft) N-NW 337 0 min 0,0 UV-I 0 W/m 3,6 C 4,8 C 1,6 km/h (1 Bft)
25.05.2022 03:12 4,8 C 3,3 C 92 % 1015,5 hPa 0,0 l/m 0,0 km/h (0 Bft) N 0 0 min 0,0 UV-I 0 W/m 3,6 C 4,8 C 0,0 km/h (0 Bft)
25.05.2022 03:13 4,8 C 3,3 C 92 % 1015,5 hPa 0,0 l/m 0,0 km/h (0 Bft) N 0 0 min 0,0 UV-I 0 W/m 3,6 C 4,8 C 0,0 km/h (0 Bft)
25.05.2022 03:14 4,8 C 3,3 C 92 % 1015,6 hPa 0,0 l/m 0,0 km/h (0 Bft) N 0 0 min 0,0 UV-I 0 W/m 3,6 C 4,8 C 0,0 km/h (0 Bft)
25.05.2022 03:15 4,8 C 3,3 C 92 % 1015,5 hPa 0,0 l/m 0,0 km/h (0 Bft) N-NW 337 0 min 0,0 UV-I 0 W/m 3,6 C 4,8 C 1,6 km/h (1 Bft)
25.05.2022 03:16 4,8 C 3,3 C 92 % 1015,5 hPa 0,0 l/m 1,6 km/h (1 Bft) N-NW 337 0 min 0,0 UV-I 0 W/m 3,6 C 4,8 C 1,6 km/h (1 Bft)
25.05.2022 03:17 4,7 C 3,3 C 92 % 1015,5 hPa 0,0 l/m 1,6 km/h (1 Bft) N-NW 337 0 min 0,0 UV-I 0 W/m 3,5 C 4,7 C 1,6 km/h (1 Bft)
25.05.2022 03:18 4,7 C 3,3 C 92 % 1015,4 hPa 0,0 l/m 0,0 km/h (0 Bft) N-NW 337 0 min 0,0 UV-I 0 W/m 3,5 C 4,7 C 1,6 km/h (1 Bft)
25.05.2022 03:19 4,6 C 3,3 C 92 % 1015,6 hPa 0,0 l/m 0,0 km/h (0 Bft) N-NW 337 0 min 0,0 UV-I 0 W/m 3,4 C 4,6 C 1,6 km/h (1 Bft)
25.05.2022 03:20 4,6 C 3,3 C 92 % 1015,5 hPa 0,0 l/m 1,6 km/h (1 Bft) N-NW 337 0 min 0,0 UV-I 0 W/m 3,4 C 4,6 C 1,6 km/h (1 Bft)
25.05.2022 03:21 4,6 C 3,3 C 92 % 1015,5 hPa 0,0 l/m 0,0 km/h (0 Bft) N-NW 337 0 min 0,0 UV-I 0 W/m 3,4 C 4,6 C 1,6 km/h (1 Bft)
25.05.2022 03:22 4,5 C 3,3 C 92 % 1015,5 hPa 0,0 l/m 1,6 km/h (1 Bft) N-NW 337 0 min 0,0 UV-I 0 W/m 3,3 C 4,5 C 1,6 km/h (1 Bft)
25.05.2022 03:23 4,5 C 3,3 C 92 % 1015,5 hPa 0,0 l/m 0,0 km/h (0 Bft) N 0 0 min 0,0 UV-I 0 W/m 3,3 C 4,5 C 0,0 km/h (0 Bft)
25.05.2022 03:24 4,5 C 3,3 C 92 % 1015,5 hPa 0,0 l/m 0,0 km/h (0 Bft) N-NW 337 0 min 0,0 UV-I 0 W/m 3,3 C 4,5 C 1,6 km/h (1 Bft)
25.05.2022 03:25 4,6 C 3,3 C 92 % 1015,5 hPa 0,0 l/m 0,0 km/h (0 Bft) N-NW 337 0 min 0,0 UV-I 0 W/m 3,4 C 4,6 C 1,6 km/h (1 Bft)
25.05.2022 03:26 4,6 C 3,3 C 93 % 1015,5 hPa 0,0 l/m 0,0 km/h (0 Bft) N-NW 337 0 min 0,0 UV-I 0 W/m 3,6 C 4,6 C 1,6 km/h (1 Bft)
25.05.2022 03:27 4,6 C 3,3 C 92 % 1015,5 hPa 0,0 l/m 0,0 km/h (0 Bft) N 0 0 min 0,0 UV-I 0 W/m 3,4 C 4,6 C 0,0 km/h (0 Bft)
25.05.2022 03:28 4,7 C 3,3 C 92 % 1015,5 hPa 0,0 l/m 0,0 km/h (0 Bft) N 0 0 min 0,0 UV-I 0 W/m 3,5 C 4,7 C 0,0 km/h (0 Bft)
25.05.2022 03:29 4,7 C 3,3 C 93 % 1015,5 hPa 0,0 l/m 0,0 km/h (0 Bft) N 0 0 min 0,0 UV-I 0 W/m 3,7 C 4,7 C 0,0 km/h (0 Bft)
25.05.2022 03:30 4,7 C 3,3 C 93 % 1015,4 hPa 0,0 l/m 0,0 km/h (0 Bft) N 0 0 min 0,0 UV-I 0 W/m 3,7 C 4,7 C 0,0 km/h (0 Bft)
25.05.2022 03:31 4,7 C 3,3 C 93 % 1015,4 hPa 0,0 l/m 0,0 km/h (0 Bft) N 0 0 min 0,0 UV-I 0 W/m 3,7 C 4,7 C 0,0 km/h (0 Bft)
25.05.2022 03:32 4,7 C 3,3 C 93 % 1015,5 hPa 0,0 l/m 0,0 km/h (0 Bft) N-NW 337 0 min 0,0 UV-I 0 W/m 3,7 C 4,7 C 1,6 km/h (1 Bft)
25.05.2022 03:33 4,8 C 3,3 C 93 % 1015,5 hPa 0,0 l/m 0,0 km/h (0 Bft) N-NW 337 0 min 0,0 UV-I 0 W/m 3,8 C 4,8 C 1,6 km/h (1 Bft)
25.05.2022 03:34 4,8 C 3,3 C 93 % 1015,5 hPa 0,0 l/m 0,0 km/h (0 Bft) N 0 0 min 0,0 UV-I 0 W/m 3,8 C 4,8 C 0,0 km/h (0 Bft)
25.05.2022 03:35 4,9 C 3,3 C 93 % 1015,5 hPa 0,0 l/m 0,0 km/h (0 Bft) N 0 0 min 0,0 UV-I 0 W/m 3,9 C 4,9 C 0,0 km/h (0 Bft)
25.05.2022 03:36 4,9 C 3,3 C 93 % 1015,5 hPa 0,0 l/m 0,0 km/h (0 Bft) N-NW 337 0 min 0,0 UV-I 0 W/m 3,9 C 4,9 C 1,6 km/h (1 Bft)
25.05.2022 03:37 5,0 C 3,3 C 93 % 1015,6 hPa 0,0 l/m 0,0 km/h (0 Bft) N-NW 337 0 min 0,0 UV-I 0 W/m 4,0 C 5,0 C 1,6 km/h (1 Bft)
25.05.2022 03:38 5,1 C 3,3 C 93 % 1015,6 hPa 0,0 l/m 0,0 km/h (0 Bft) N 0 0 min 0,0 UV-I 0 W/m 4,1 C 5,1 C 0,0 km/h (0 Bft)
25.05.2022 03:39 5,0 C 3,3 C 93 % 1015,7 hPa 0,0 l/m 0,0 km/h (0 Bft) N-NW 337 0 min 0,0 UV-I 0 W/m 4,0 C 5,0 C 1,6 km/h (1 Bft)
25.05.2022 03:40 5,0 C 3,3 C 92 % 1015,5 hPa 0,0 l/m 1,6 km/h (1 Bft) N-NW 337 0 min 0,0 UV-I 0 W/m 3,8 C 5,0 C 1,6 km/h (1 Bft)
25.05.2022 03:41 5,1 C 3,3 C 93 % 1015,6 hPa 0,0 l/m 1,6 km/h (1 Bft) N-NW 337 0 min 0,0 UV-I 0 W/m 4,1 C 5,1 C 3,2 km/h (1 Bft)
25.05.2022 03:42 5,1 C 3,3 C 93 % 1015,6 hPa 0,0 l/m 1,6 km/h (1 Bft) N-NW 337 0 min 0,0 UV-I 0 W/m 4,1 C 5,1 C 1,6 km/h (1 Bft)
25.05.2022 03:43 5,1 C 3,3 C 93 % 1015,6 hPa 0,0 l/m 0,0 km/h (0 Bft) N-NW 337 0 min 0,0 UV-I 0 W/m 4,1 C 5,1 C 1,6 km/h (1 Bft)
25.05.2022 03:44 5,1 C 3,3 C 93 % 1015,6 hPa 0,0 l/m 0,0 km/h (0 Bft) N-NW 337 0 min 0,0 UV-I 0 W/m 4,1 C 5,1 C 1,6 km/h (1 Bft)
25.05.2022 03:45 5,1 C 3,3 C 93 % 1015,7 hPa 0,0 l/m 1,6 km/h (1 Bft) N-NW 337 0 min 0,0 UV-I 0 W/m 4,1 C 5,1 C 1,6 km/h (1 Bft)
25.05.2022 03:46 5,2 C 3,3 C 93 % 1015,7 hPa 0,0 l/m 0,0 km/h (0 Bft) N 0 0 min 0,0 UV-I 0 W/m 4,2 C 5,2 C 0,0 km/h (0 Bft)
25.05.2022 03:47 5,2 C 3,9 C 93 % 1015,7 hPa 0,0 l/m 0,0 km/h (0 Bft) N 0 0 min 0,0 UV-I 0 W/m 4,2 C 5,2 C 0,0 km/h (0 Bft)
25.05.2022 03:48 5,2 C 3,9 C 93 % 1015,7 hPa 0,0 l/m 0,0 km/h (0 Bft) N 0 0 min 0,0 UV-I 0 W/m 4,2 C 5,2 C 0,0 km/h (0 Bft)
25.05.2022 03:49 5,2 C 3,9 C 93 % 1015,7 hPa 0,0 l/m 0,0 km/h (0 Bft) N 0 0 min 0,0 UV-I 0 W/m 4,2 C 5,2 C 0,0 km/h (0 Bft)
25.05.2022 03:50 5,3 C 3,3 C 93 % 1015,7 hPa 0,0 l/m 0,0 km/h (0 Bft) N 0 0 min 0,0 UV-I 0 W/m 4,3 C 5,3 C 0,0 km/h (0 Bft)
25.05.2022 03:51 5,3 C 3,3 C 93 % 1015,8 hPa 0,0 l/m 0,0 km/h (0 Bft) N 0 0 min 0,0 UV-I 0 W/m 4,3 C 5,3 C 0,0 km/h (0 Bft)
25.05.2022 03:52 5,1 C 3,3 C 93 % 1015,7 hPa 0,0 l/m 0,0 km/h (0 Bft) N 0 0 min 0,0 UV-I 0 W/m 4,1 C 5,1 C 0,0 km/h (0 Bft)
25.05.2022 03:53 4,9 C 3,3 C 92 % 1015,7 hPa 0,0 l/m 0,0 km/h (0 Bft) N 0 0 min 0,0 UV-I 0 W/m 3,7 C 4,9 C 0,0 km/h (0 Bft)
25.05.2022 03:54 4,8 C 2,8 C 92 % 1015,9 hPa 0,0 l/m 0,0 km/h (0 Bft) N 0 0 min 0,0 UV-I 0 W/m 3,6 C 4,8 C 0,0 km/h (0 Bft)
25.05.2022 03:55 4,6 C 2,8 C 91 % 1015,8 hPa 0,0 l/m 0,0 km/h (0 Bft) N 0 0 min 0,0 UV-I 0 W/m 3,3 C 4,6 C 0,0 km/h (0 Bft)
25.05.2022 03:56 4,4 C 2,8 C 92 % 1015,9 hPa 0,0 l/m 0,0 km/h (0 Bft) N 0 0 min 0,0 UV-I 0 W/m 3,2 C 4,4 C 0,0 km/h (0 Bft)
25.05.2022 03:57 4,3 C 2,8 C 92 % 1015,8 hPa 0,0 l/m 0,0 km/h (0 Bft) N 0 0 min 0,0 UV-I 0 W/m 3,1 C 4,3 C 0,0 km/h (0 Bft)
25.05.2022 03:58 4,2 C 2,8 C 92 % 1015,8 hPa 0,0 l/m 0,0 km/h (0 Bft) N 0 0 min 0,0 UV-I 0 W/m 3,0 C 4,2 C 0,0 km/h (0 Bft)
25.05.2022 03:59 4,1 C 2,8 C 92 % 1015,9 hPa 0,0 l/m 0,0 km/h (0 Bft) N 0 0 min 0,0 UV-I 0 W/m 2,9 C 4,1 C 0,0 km/h (0 Bft)
25.05.2022 04:00 4,1 C 2,8 C 92 % 1015,8 hPa 0,0 l/m 0,0 km/h (0 Bft) N 0 0 min 0,0 UV-I 0 W/m 2,9 C 4,1 C 0,0 km/h (0 Bft)
25.05.2022 04:01 4,1 C 2,8 C 92 % 1015,8 hPa 0,0 l/m 0,0 km/h (0 Bft) N 0 0 min 0,0 UV-I 0 W/m 2,9 C 4,1 C 0,0 km/h (0 Bft)
25.05.2022 04:02 4,1 C 2,8 C 92 % 1015,9 hPa 0,0 l/m 0,0 km/h (0 Bft) N 0 0 min 0,0 UV-I 0 W/m 2,9 C 4,1 C 0,0 km/h (0 Bft)
25.05.2022 04:03 4,1 C 2,8 C 92 % 1015,9 hPa 0,0 l/m 0,0 km/h (0 Bft) N 0 0 min 0,0 UV-I 0 W/m 2,9 C 4,1 C 0,0 km/h (0 Bft)
25.05.2022 04:04 4,1 C 2,8 C 92 % 1015,9 hPa 0,0 l/m 0,0 km/h (0 Bft) N 0 0 min 0,0 UV-I 0 W/m 2,9 C 4,1 C 0,0 km/h (0 Bft)
25.05.2022 04:05 4,1 C 2,8 C 92 % 1015,8 hPa 0,0 l/m 0,0 km/h (0 Bft) N 0 0 min 0,0 UV-I 0 W/m 2,9 C 4,1 C 0,0 km/h (0 Bft)
25.05.2022 04:06 4,1 C 2,8 C 92 % 1015,9 hPa 0,0 l/m 0,0 km/h (0 Bft) N 0 0 min 0,0 UV-I 0 W/m 2,9 C 4,1 C 0,0 km/h (0 Bft)
25.05.2022 04:07 4,0 C 2,8 C 92 % 1015,9 hPa 0,0 l/m 0,0 km/h (0 Bft) N 0 0 min 0,0 UV-I 0 W/m 2,8 C 4,0 C 0,0 km/h (0 Bft)
25.05.2022 04:08 4,0 C 2,8 C 92 % 1015,8 hPa 0,0 l/m 0,0 km/h (0 Bft) N 0 0 min 0,0 UV-I 0 W/m 2,8 C 4,0 C 0,0 km/h (0 Bft)
25.05.2022 04:09 4,0 C 2,8 C 92 % 1015,9 hPa 0,0 l/m 0,0 km/h (0 Bft) N 0 0 min 0,0 UV-I 0 W/m 2,8 C 4,0 C 0,0 km/h (0 Bft)
25.05.2022 04:10 4,0 C 2,8 C 92 % 1015,9 hPa 0,0 l/m 0,0 km/h (0 Bft) N 0 0 min 0,0 UV-I 0 W/m 2,8 C 4,0 C 0,0 km/h (0 Bft)
25.05.2022 04:11 4,0 C 2,2 C 92 % 1015,9 hPa 0,0 l/m 0,0 km/h (0 Bft) N 0 0 min 0,0 UV-I 0 W/m 2,8 C 4,0 C 0,0 km/h (0 Bft)
25.05.2022 04:12 4,0 C 2,2 C 92 % 1015,9 hPa 0,0 l/m 0,0 km/h (0 Bft) N 0 0 min 0,0 UV-I 0 W/m 2,8 C 4,0 C 0,0 km/h (0 Bft)
25.05.2022 04:13 3,9 C 2,2 C 92 % 1015,9 hPa 0,0 l/m 0,0 km/h (0 Bft) N 0 0 min 0,0 UV-I 0 W/m 2,7 C 3,9 C 0,0 km/h (0 Bft)
25.05.2022 04:14 3,9 C 2,2 C 92 % 1015,9 hPa 0,0 l/m 0,0 km/h (0 Bft) N 0 0 min 0,0 UV-I 0 W/m 2,7 C 3,9 C 0,0 km/h (0 Bft)
25.05.2022 04:15 3,8 C 2,2 C 92 % 1015,9 hPa 0,0 l/m 0,0 km/h (0 Bft) N 0 0 min 0,0 UV-I 0 W/m 2,6 C 3,8 C 0,0 km/h (0 Bft)
25.05.2022 04:16 3,8 C 2,2 C 92 % 1015,8 hPa 0,0 l/m 0,0 km/h (0 Bft) N 0 0 min 0,0 UV-I 0 W/m 2,6 C 3,8 C 0,0 km/h (0 Bft)
25.05.2022 04:17 3,8 C 2,2 C 92 % 1015,9 hPa 0,0 l/m 0,0 km/h (0 Bft) N 0 0 min 0,0 UV-I 0 W/m 2,6 C 3,8 C 0,0 km/h (0 Bft)
25.05.2022 04:18 3,8 C 2,2 C 92 % 1015,9 hPa 0,0 l/m 0,0 km/h (0 Bft) N 0 0 min 0,0 UV-I 0 W/m 2,6 C 3,8 C 0,0 km/h (0 Bft)
25.05.2022 04:19 3,8 C 2,2 C 92 % 1015,9 hPa 0,0 l/m 0,0 km/h (0 Bft) N 0 0 min 0,0 UV-I 0 W/m 2,6 C 3,8 C 0,0 km/h (0 Bft)
25.05.2022 04:20 3,8 C 2,2 C 92 % 1015,9 hPa 0,0 l/m 0,0 km/h (0 Bft) N 0 0 min 0,0 UV-I 0 W/m 2,6 C 3,8 C 0,0 km/h (0 Bft)
25.05.2022 04:21 3,8 C 2,2 C 92 % 1015,9 hPa 0,0 l/m 0,0 km/h (0 Bft) N 0 0 min 0,0 UV-I 0 W/m 2,6 C 3,8 C 0,0 km/h (0 Bft)
25.05.2022 04:22 3,8 C 2,2 C 92 % 1015,9 hPa 0,0 l/m 0,0 km/h (0 Bft) N 0 0 min 0,0 UV-I 0 W/m 2,6 C 3,8 C 0,0 km/h (0 Bft)
25.05.2022 04:23 3,8 C 2,2 C 92 % 1015,9 hPa 0,0 l/m 0,0 km/h (0 Bft) N 0 0 min 0,0 UV-I 0 W/m 2,6 C 3,8 C 0,0 km/h (0 Bft)
25.05.2022 04:24 3,8 C 2,2 C 92 % 1015,9 hPa 0,0 l/m 0,0 km/h (0 Bft) N 0 0 min 0,0 UV-I 0 W/m 2,6 C 3,8 C 0,0 km/h (0 Bft)
25.05.2022 04:25 3,8 C 2,2 C 92 % 1015,9 hPa 0,0 l/m 0,0 km/h (0 Bft) N 0 0 min 0,0 UV-I 0 W/m 2,6 C 3,8 C 0,0 km/h (0 Bft)
25.05.2022 04:26 3,8 C 2,2 C 92 % 1015,9 hPa 0,0 l/m 0,0 km/h (0 Bft) N 0 0 min 0,0 UV-I 0 W/m 2,6 C 3,8 C 0,0 km/h (0 Bft)
25.05.2022 04:27 3,8 C 2,2 C 92 % 1015,9 hPa 0,0 l/m 0,0 km/h (0 Bft) N 0 0 min 0,0 UV-I 0 W/m 2,6 C 3,8 C 0,0 km/h (0 Bft)
25.05.2022 04:28 3,8 C 2,2 C 92 % 1015,9 hPa 0,0 l/m 0,0 km/h (0 Bft) N 0 0 min 0,0 UV-I 0 W/m 2,6 C 3,8 C 0,0 km/h (0 Bft)
25.05.2022 04:29 3,8 C 2,2 C 92 % 1016,0 hPa 0,0 l/m 0,0 km/h (0 Bft) N 0 0 min 0,0 UV-I 0 W/m 2,6 C 3,8 C 0,0 km/h (0 Bft)
25.05.2022 04:30 3,8 C 2,2 C 92 % 1016,0 hPa 0,0 l/m 0,0 km/h (0 Bft) N 0 0 min 0,0 UV-I 0 W/m 2,6 C 3,8 C 0,0 km/h (0 Bft)
25.05.2022 04:31 3,8 C 2,2 C 92 % 1015,9 hPa 0,0 l/m 0,0 km/h (0 Bft) N 0 0 min 0,0 UV-I 0 W/m 2,6 C 3,8 C 0,0 km/h (0 Bft)
25.05.2022 04:32 3,8 C 2,2 C 92 % 1016,0 hPa 0,0 l/m 0,0 km/h (0 Bft) N 0 0 min 0,0 UV-I 0 W/m 2,6 C 3,8 C 0,0 km/h (0 Bft)
25.05.2022 04:33 3,8 C 2,2 C 92 % 1015,9 hPa 0,0 l/m 0,0 km/h (0 Bft) N 0 0 min 0,0 UV-I 0 W/m 2,6 C 3,8 C 0,0 km/h (0 Bft)
25.05.2022 04:34 3,7 C 2,2 C 92 % 1015,9 hPa 0,0 l/m 0,0 km/h (0 Bft) N 0 0 min 0,0 UV-I 0 W/m 2,5 C 3,7 C 0,0 km/h (0 Bft)
25.05.2022 04:35 3,7 C 2,2 C 92 % 1015,8 hPa 0,0 l/m 0,0 km/h (0 Bft) N 0 0 min 0,0 UV-I 0 W/m 2,5 C 3,7 C 0,0 km/h (0 Bft)
25.05.2022 04:36 3,6 C 2,2 C 92 % 1015,9 hPa 0,0 l/m 0,0 km/h (0 Bft) N 0 0 min 0,0 UV-I 0 W/m 2,4 C 3,6 C 0,0 km/h (0 Bft)
25.05.2022 04:37 3,7 C 2,2 C 92 % 1015,9 hPa 0,0 l/m 0,0 km/h (0 Bft) N 0 0 min 0,0 UV-I 0 W/m 2,5 C 3,7 C 0,0 km/h (0 Bft)
25.05.2022 04:38 3,7 C 2,2 C 92 % 1016,0 hPa 0,0 l/m 0,0 km/h (0 Bft) N 0 0 min 0,0 UV-I 0 W/m 2,5 C 3,7 C 0,0 km/h (0 Bft)
25.05.2022 04:39 3,7 C 2,2 C 93 % 1015,9 hPa 0,0 l/m 0,0 km/h (0 Bft) N 0 0 min 0,0 UV-I 0 W/m 2,7 C 3,7 C 0,0 km/h (0 Bft)
25.05.2022 04:40 3,7 C 2,2 C 93 % 1016,0 hPa 0,0 l/m 0,0 km/h (0 Bft) N 0 0 min 0,0 UV-I 0 W/m 2,7 C 3,7 C 0,0 km/h (0 Bft)
25.05.2022 04:41 3,7 C 2,2 C 93 % 1015,9 hPa 0,0 l/m 0,0 km/h (0 Bft) N 0 0 min 0,0 UV-I 0 W/m 2,7 C 3,7 C 0,0 km/h (0 Bft)
25.05.2022 04:42 3,7 C 2,2 C 93 % 1015,9 hPa 0,0 l/m 0,0 km/h (0 Bft) N 0 0 min 0,0 UV-I 0 W/m 2,7 C 3,7 C 0,0 km/h (0 Bft)
25.05.2022 04:43 3,7 C 2,2 C 93 % 1015,9 hPa 0,0 l/m 0,0 km/h (0 Bft) N 0 0 min 0,0 UV-I 0 W/m 2,7 C 3,7 C 0,0 km/h (0 Bft)
25.05.2022 04:44 3,7 C 2,2 C 93 % 1015,9 hPa 0,0 l/m 0,0 km/h (0 Bft) N-NW 337 0 min 0,0 UV-I 0 W/m 2,7 C 3,7 C 1,6 km/h (1 Bft)
25.05.2022 04:45 3,8 C 2,2 C 93 % 1016,0 hPa 0,0 l/m 0,0 km/h (0 Bft) N-NW 337 0 min 0,0 UV-I 0 W/m 2,8 C 3,8 C 1,6 km/h (1 Bft)
25.05.2022 04:46 3,9 C 2,2 C 93 % 1016,0 hPa 0,0 l/m 1,6 km/h (1 Bft) N-NW 337 0 min 0,0 UV-I 0 W/m 2,9 C 3,9 C 1,6 km/h (1 Bft)
25.05.2022 04:47 3,9 C 2,2 C 93 % 1015,9 hPa 0,0 l/m 1,6 km/h (1 Bft) N-NW 337 0 min 0,0 UV-I 0 W/m 2,9 C 3,9 C 1,6 km/h (1 Bft)
25.05.2022 04:48 4,1 C 2,2 C 93 % 1015,9 hPa 0,0 l/m 1,6 km/h (1 Bft) N-NW 337 0 min 0,0 UV-I 0 W/m 3,1 C 4,1 C 1,6 km/h (1 Bft)
25.05.2022 04:49 4,2 C 2,2 C 93 % 1015,9 hPa 0,0 l/m 1,6 km/h (1 Bft) N-NW 337 0 min 0,0 UV-I 0 W/m 3,2 C 4,2 C 1,6 km/h (1 Bft)
25.05.2022 04:50 4,2 C 2,2 C 93 % 1015,9 hPa 0,0 l/m 1,6 km/h (1 Bft) N-NW 337 0 min 0,0 UV-I 0 W/m 3,2 C 4,2 C 1,6 km/h (1 Bft)
25.05.2022 04:51 4,2 C 2,2 C 93 % 1015,9 hPa 0,0 l/m 1,6 km/h (1 Bft) N-NW 337 0 min 0,0 UV-I 0 W/m 3,2 C 4,2 C 1,6 km/h (1 Bft)
25.05.2022 04:52 4,2 C 2,2 C 93 % 1015,9 hPa 0,0 l/m 0,0 km/h (0 Bft) N-NW 337 0 min 0,0 UV-I 0 W/m 3,2 C 4,2 C 1,6 km/h (1 Bft)
25.05.2022 04:53 4,1 C 2,2 C 92 % 1016,0 hPa 0,0 l/m 0,0 km/h (0 Bft) N-NW 337 0 min 0,0 UV-I 0 W/m 2,9 C 4,1 C 1,6 km/h (1 Bft)
25.05.2022 04:54 3,9 C 2,2 C 92 % 1016,0 hPa 0,0 l/m 1,6 km/h (1 Bft) N-NW 337 0 min 0,0 UV-I 0 W/m 2,7 C 3,9 C 3,2 km/h (1 Bft)
25.05.2022 04:55 3,9 C 2,2 C 92 % 1016,0 hPa 0,0 l/m 1,6 km/h (1 Bft) N-NW 337 0 min 0,0 UV-I 0 W/m 2,7 C 3,9 C 1,6 km/h (1 Bft)
25.05.2022 04:56 3,9 C 2,2 C 93 % 1016,0 hPa 0,0 l/m 1,6 km/h (1 Bft) N-NW 337 0 min 0,0 UV-I 0 W/m 2,9 C 3,9 C 1,6 km/h (1 Bft)
25.05.2022 04:57 3,8 C 1,7 C 92 % 1016,0 hPa 0,0 l/m 1,6 km/h (1 Bft) N-NW 337 0 min 0,0 UV-I 0 W/m 2,6 C 3,8 C 3,2 km/h (1 Bft)
25.05.2022 04:58 3,9 C 1,7 C 93 % 1016,1 hPa 0,0 l/m 1,6 km/h (1 Bft) N-NW 337 0 min 0,0 UV-I 0 W/m 2,9 C 3,9 C 1,6 km/h (1 Bft)
25.05.2022 04:59 3,9 C 1,7 C 93 % 1016,0 hPa 0,0 l/m 1,6 km/h (1 Bft) N-NW 337 0 min 0,0 UV-I 0 W/m 2,9 C 3,9 C 1,6 km/h (1 Bft)
25.05.2022 05:00 3,9 C 1,7 C 93 % 1016,0 hPa 0,0 l/m 1,6 km/h (1 Bft) N-NW 337 0 min 0,0 UV-I 0 W/m 2,9 C 3,9 C 1,6 km/h (1 Bft)
25.05.2022 05:01 3,8 C 1,7 C 93 % 1016,0 hPa 0,0 l/m 1,6 km/h (1 Bft) N-NW 337 0 min 0,0 UV-I 0 W/m 2,8 C 3,8 C 3,2 km/h (1 Bft)
25.05.2022 05:02 3,9 C 1,7 C 92 % 1016,1 hPa 0,0 l/m 1,6 km/h (1 Bft) N-NW 337 0 min 0,0 UV-I 0 W/m 2,7 C 3,9 C 3,2 km/h (1 Bft)
25.05.2022 05:03 3,8 C 1,7 C 93 % 1016,0 hPa 0,0 l/m 1,6 km/h (1 Bft) N-NW 337 0 min 0,0 UV-I 0 W/m 2,8 C 3,8 C 3,2 km/h (1 Bft)
25.05.2022 05:04 3,9 C 1,7 C 93 % 1016,1 hPa 0,0 l/m 1,6 km/h (1 Bft) N-NW 337 0 min 0,0 UV-I 0 W/m 2,9 C 3,9 C 3,2 km/h (1 Bft)
25.05.2022 05:05 4,1 C 1,7 C 93 % 1016,0 hPa 0,0 l/m 1,6 km/h (1 Bft) N-NW 337 0 min 0,0 UV-I 0 W/m 3,1 C 4,1 C 3,2 km/h (1 Bft)
25.05.2022 05:06 4,1 C 1,7 C 93 % 1016,0 hPa 0,0 l/m 1,6 km/h (1 Bft) N-NW 337 0 min 0,0 UV-I 0 W/m 3,1 C 4,1 C 1,6 km/h (1 Bft)
25.05.2022 05:07 4,0 C 1,7 C 93 % 1016,1 hPa 0,0 l/m 1,6 km/h (1 Bft) N-NW 337 0 min 0,0 UV-I 0 W/m 3,0 C 4,0 C 3,2 km/h (1 Bft)
25.05.2022 05:08 3,8 C 1,7 C 93 % 1015,9 hPa 0,0 l/m 0,0 km/h (0 Bft) N-NW 337 0 min 0,0 UV-I 0 W/m 2,8 C 3,8 C 1,6 km/h (1 Bft)
25.05.2022 05:09 3,7 C 1,7 C 92 % 1016,1 hPa 0,0 l/m 1,6 km/h (1 Bft) N-NW 337 0 min 0,0 UV-I 0 W/m 2,5 C 3,7 C 1,6 km/h (1 Bft)
25.05.2022 05:10 3,6 C 1,7 C 92 % 1016,1 hPa 0,0 l/m 1,6 km/h (1 Bft) N-NW 337 0 min 0,0 UV-I 0 W/m 2,4 C 3,6 C 1,6 km/h (1 Bft)
25.05.2022 05:11 3,7 C 1,7 C 92 % 1016,0 hPa 0,0 l/m 1,6 km/h (1 Bft) N-NW 337 0 min 0,0 UV-I 0 W/m 2,5 C 3,7 C 1,6 km/h (1 Bft)
25.05.2022 05:12 3,7 C 1,7 C 93 % 1016,1 hPa 0,0 l/m 0,0 km/h (0 Bft) N-NW 337 0 min 0,0 UV-I 0 W/m 2,7 C 3,7 C 1,6 km/h (1 Bft)
25.05.2022 05:13 3,7 C 1,7 C 93 % 1016,1 hPa 0,0 l/m 0,0 km/h (0 Bft) N-NW 337 0 min 0,0 UV-I 0 W/m 2,7 C 3,7 C 1,6 km/h (1 Bft)
25.05.2022 05:14 3,7 C 1,7 C 93 % 1016,1 hPa 0,0 l/m 0,0 km/h (0 Bft) N-NW 337 0 min 0,0 UV-I 0 W/m 2,7 C 3,7 C 1,6 km/h (1 Bft)
25.05.2022 05:15 3,8 C 1,7 C 93 % 1016,1 hPa 0,0 l/m 0,0 km/h (0 Bft) N 0 0 min 0,0 UV-I 0 W/m 2,8 C 3,8 C 0,0 km/h (0 Bft)
25.05.2022 05:16 3,7 C 1,7 C 93 % 1016,1 hPa 0,0 l/m 0,0 km/h (0 Bft) N 0 0 min 0,0 UV-I 0 W/m 2,7 C 3,7 C 0,0 km/h (0 Bft)
25.05.2022 05:17 3,8 C 1,7 C 93 % 1016,1 hPa 0,0 l/m 0,0 km/h (0 Bft) N 0 0 min 0,0 UV-I 0 W/m 2,8 C 3,8 C 0,0 km/h (0 Bft)
25.05.2022 05:18 3,8 C 1,7 C 93 % 1016,1 hPa 0,0 l/m 0,0 km/h (0 Bft) N 0 0 min 0,0 UV-I 0 W/m 2,8 C 3,8 C 0,0 km/h (0 Bft)
25.05.2022 05:19 3,9 C 1,7 C 93 % 1016,1 hPa 0,0 l/m 0,0 km/h (0 Bft) N 0 0 min 0,0 UV-I 0 W/m 2,9 C 3,9 C 0,0 km/h (0 Bft)
25.05.2022 05:20 4,1 C 2,2 C 93 % 1016,1 hPa 0,0 l/m 0,0 km/h (0 Bft) N 0 0 min 0,0 UV-I 0 W/m 3,1 C 4,1 C 0,0 km/h (0 Bft)
25.05.2022 05:21 4,2 C 2,2 C 93 % 1016,1 hPa 0,0 l/m 0,0 km/h (0 Bft) N 0 0 min 0,0 UV-I 0 W/m 3,2 C 4,2 C 0,0 km/h (0 Bft)
25.05.2022 05:22 4,2 C 2,2 C 93 % 1016,1 hPa 0,0 l/m 0,0 km/h (0 Bft) N 0 0 min 0,0 UV-I 0 W/m 3,2 C 4,2 C 0,0 km/h (0 Bft)
25.05.2022 05:23 4,2 C 2,2 C 93 % 1016,1 hPa 0,0 l/m 0,0 km/h (0 Bft) N 0 0 min 0,0 UV-I 0 W/m 3,2 C 4,2 C 0,0 km/h (0 Bft)
25.05.2022 05:24 4,2 C 2,2 C 93 % 1016,2 hPa 0,0 l/m 0,0 km/h (0 Bft) N 0 0 min 0,0 UV-I 0 W/m 3,2 C 4,2 C 0,0 km/h (0 Bft)
25.05.2022 05:25 4,2 C 2,2 C 93 % 1016,2 hPa 0,0 l/m 0,0 km/h (0 Bft) N 0 0 min 0,0 UV-I 0 W/m 3,2 C 4,2 C 0,0 km/h (0 Bft)
25.05.2022 05:26 4,2 C 2,2 C 93 % 1016,2 hPa 0,0 l/m 0,0 km/h (0 Bft) N 0 0 min 0,0 UV-I 0 W/m 3,2 C 4,2 C 0,0 km/h (0 Bft)
25.05.2022 05:27 4,1 C 2,2 C 93 % 1016,2 hPa 0,0 l/m 0,0 km/h (0 Bft) N 0 0 min 0,0 UV-I 0 W/m 3,1 C 4,1 C 0,0 km/h (0 Bft)
25.05.2022 05:28 4,1 C 2,2 C 93 % 1016,2 hPa 0,0 l/m 0,0 km/h (0 Bft) N 0 0 min 0,0 UV-I 0 W/m 3,1 C 4,1 C 0,0 km/h (0 Bft)
25.05.2022 05:29 4,2 C 2,2 C 93 % 1016,2 hPa 0,0 l/m 0,0 km/h (0 Bft) N 0 0 min 0,0 UV-I 0 W/m 3,2 C 4,2 C 0,0 km/h (0 Bft)
25.05.2022 05:30 4,1 C 2,2 C 93 % 1016,2 hPa 0,0 l/m 0,0 km/h (0 Bft) N 0 0 min 0,0 UV-I 0 W/m 3,1 C 4,1 C 0,0 km/h (0 Bft)
25.05.2022 05:31 3,8 C 2,2 C 93 % 1016,3 hPa 0,0 l/m 0,0 km/h (0 Bft) N 0 0 min 0,0 UV-I 0 W/m 2,8 C 3,8 C 0,0 km/h (0 Bft)
25.05.2022 05:32 3,8 C 2,2 C 92 % 1016,2 hPa 0,0 l/m 0,0 km/h (0 Bft) N 0 0 min 0,0 UV-I 0 W/m 2,6 C 3,8 C 0,0 km/h (0 Bft)
25.05.2022 05:33 3,7 C 2,2 C 92 % 1016,2 hPa 0,0 l/m 0,0 km/h (0 Bft) N 0 0 min 0,0 UV-I 0 W/m 2,5 C 3,7 C 0,0 km/h (0 Bft)
25.05.2022 05:34 3,6 C 2,2 C 92 % 1016,3 hPa 0,0 l/m 0,0 km/h (0 Bft) N 0 0 min 0,0 UV-I 0 W/m 2,4 C 3,6 C 0,0 km/h (0 Bft)
25.05.2022 05:35 3,6 C 2,2 C 93 % 1016,3 hPa 0,0 l/m 0,0 km/h (0 Bft) N 0 0 min 0,0 UV-I 0 W/m 2,6 C 3,6 C 0,0 km/h (0 Bft)
25.05.2022 05:36 3,7 C 2,2 C 93 % 1016,3 hPa 0,0 l/m 0,0 km/h (0 Bft) N 0 0 min 0,0 UV-I 0 W/m 2,7 C 3,7 C 0,0 km/h (0 Bft)
25.05.2022 05:37 3,7 C 2,2 C 93 % 1016,4 hPa 0,0 l/m 0,0 km/h (0 Bft) N-NW 337 0 min 0,0 UV-I 0 W/m 2,7 C 3,7 C 1,6 km/h (1 Bft)
25.05.2022 05:38 3,7 C 2,2 C 93 % 1016,3 hPa 0,0 l/m 0,0 km/h (0 Bft) N 0 0 min 0,0 UV-I 0 W/m 2,7 C 3,7 C 0,0 km/h (0 Bft)
25.05.2022 05:39 3,7 C 2,2 C 93 % 1016,3 hPa 0,0 l/m 0,0 km/h (0 Bft) N 0 0 min 0,0 UV-I 5 W/m 2,7 C 3,7 C 0,0 km/h (0 Bft)
25.05.2022 05:40 3,7 C 2,2 C 93 % 1016,3 hPa 0,0 l/m 0,0 km/h (0 Bft) N-NW 337 0 min 0,0 UV-I 5 W/m 2,7 C 3,7 C 1,6 km/h (1 Bft)
25.05.2022 05:41 3,6 C 2,2 C 93 % 1016,3 hPa 0,0 l/m 0,0 km/h (0 Bft) N-NW 337 0 min 0,0 UV-I 5 W/m 2,6 C 3,6 C 1,6 km/h (1 Bft)
25.05.2022 05:42 3,5 C 2,2 C 92 % 1016,4 hPa 0,0 l/m 0,0 km/h (0 Bft) N-NW 337 0 min 0,0 UV-I 5 W/m 2,3 C 3,5 C 1,6 km/h (1 Bft)
25.05.2022 05:43 3,4 C 1,7 C 92 % 1016,4 hPa 0,0 l/m 0,0 km/h (0 Bft) N-NW 337 0 min 0,0 UV-I 5 W/m 2,2 C 3,4 C 1,6 km/h (1 Bft)
25.05.2022 05:44 3,3 C 1,7 C 92 % 1016,4 hPa 0,0 l/m 0,0 km/h (0 Bft) N-NW 337 0 min 0,0 UV-I 7 W/m 2,1 C 3,3 C 1,6 km/h (1 Bft)
25.05.2022 05:45 3,3 C 2,2 C 92 % 1016,4 hPa 0,0 l/m 0,0 km/h (0 Bft) N 0 0 min 0,0 UV-I 7 W/m 2,1 C 3,3 C 0,0 km/h (0 Bft)
25.05.2022 05:46 3,2 C 2,2 C 92 % 1016,3 hPa 0,0 l/m 0,0 km/h (0 Bft) N 0 0 min 0,0 UV-I 7 W/m 2,0 C 3,2 C 0,0 km/h (0 Bft)
25.05.2022 05:47 3,2 C 2,2 C 92 % 1016,4 hPa 0,0 l/m 0,0 km/h (0 Bft) N 0 0 min 0,0 UV-I 7 W/m 2,0 C 3,2 C 0,0 km/h (0 Bft)
25.05.2022 05:48 3,2 C 2,2 C 92 % 1016,5 hPa 0,0 l/m 0,0 km/h (0 Bft) N 0 0 min 0,0 UV-I 7 W/m 2,0 C 3,2 C 0,0 km/h (0 Bft)
25.05.2022 05:49 3,1 C 2,2 C 92 % 1016,4 hPa 0,0 l/m 0,0 km/h (0 Bft) N 0 0 min 0,0 UV-I 9 W/m 1,9 C 3,1 C 0,0 km/h (0 Bft)
25.05.2022 05:50 3,1 C 2,2 C 92 % 1016,4 hPa 0,0 l/m 0,0 km/h (0 Bft) N 0 0 min 0,0 UV-I 9 W/m 1,9 C 3,1 C 0,0 km/h (0 Bft)
25.05.2022 05:51 3,2 C 2,2 C 93 % 1016,5 hPa 0,0 l/m 0,0 km/h (0 Bft) N 0 0 min 0,0 UV-I 9 W/m 2,2 C 3,2 C 0,0 km/h (0 Bft)
25.05.2022 05:52 3,2 C 2,2 C 93 % 1016,4 hPa 0,0 l/m 0,0 km/h (0 Bft) N 0 0 min 0,0 UV-I 9 W/m 2,2 C 3,2 C 0,0 km/h (0 Bft)
25.05.2022 05:53 3,2 C 1,7 C 93 % 1016,5 hPa 0,0 l/m 0,0 km/h (0 Bft) N 0 0 min 0,0 UV-I 11 W/m 2,2 C 3,2 C 0,0 km/h (0 Bft)
25.05.2022 05:54 3,3 C 1,7 C 93 % 1016,4 hPa 0,0 l/m 0,0 km/h (0 Bft) N 0 0 min 0,0 UV-I 11 W/m 2,3 C 3,3 C 0,0 km/h (0 Bft)
25.05.2022 05:55 3,4 C 1,7 C 93 % 1016,6 hPa 0,0 l/m 0,0 km/h (0 Bft) N 0 0 min 0,0 UV-I 11 W/m 2,4 C 3,4 C 0,0 km/h (0 Bft)
25.05.2022 05:56 3,5 C 1,7 C 93 % 1016,6 hPa 0,0 l/m 0,0 km/h (0 Bft) N 0 0 min 0,0 UV-I 11 W/m 2,5 C 3,5 C 0,0 km/h (0 Bft)
25.05.2022 05:57 3,6 C 1,7 C 93 % 1016,6 hPa 0,0 l/m 0,0 km/h (0 Bft) N 0 0 min 0,0 UV-I 11 W/m 2,6 C 3,6 C 0,0 km/h (0 Bft)
25.05.2022 05:58 3,7 C 1,7 C 93 % 1016,6 hPa 0,0 l/m 0,0 km/h (0 Bft) N 0 0 min 0,0 UV-I 11 W/m 2,7 C 3,7 C 0,0 km/h (0 Bft)
25.05.2022 05:59 3,7 C 1,7 C 93 % 1016,6 hPa 0,0 l/m 0,0 km/h (0 Bft) N 0 0 min 0,0 UV-I 12 W/m 2,7 C 3,7 C 0,0 km/h (0 Bft)
25.05.2022 06:00 3,7 C 1,7 C 93 % 1016,7 hPa 0,0 l/m 0,0 km/h (0 Bft) N 0 0 min 0,0 UV-I 12 W/m 2,7 C 3,7 C 0,0 km/h (0 Bft)
25.05.2022 06:01 3,7 C 1,7 C 93 % 1016,6 hPa 0,0 l/m 0,0 km/h (0 Bft) N 0 0 min 0,0 UV-I 12 W/m 2,7 C 3,7 C 0,0 km/h (0 Bft)
25.05.2022 06:02 3,7 C 2,2 C 93 % 1016,6 hPa 0,0 l/m 0,0 km/h (0 Bft) N 0 0 min 0,0 UV-I 12 W/m 2,7 C 3,7 C 0,0 km/h (0 Bft)
25.05.2022 06:03 3,8 C 2,2 C 93 % 1016,5 hPa 0,0 l/m 0,0 km/h (0 Bft) N 0 0 min 0,0 UV-I 12 W/m 2,8 C 3,8 C 0,0 km/h (0 Bft)
25.05.2022 06:04 3,9 C 2,2 C 93 % 1016,6 hPa 0,0 l/m 0,0 km/h (0 Bft) N 0 0 min 0,0 UV-I 14 W/m 2,9 C 3,9 C 0,0 km/h (0 Bft)
25.05.2022 06:05 3,8 C 2,2 C 93 % 1016,6 hPa 0,0 l/m 0,0 km/h (0 Bft) N 0 0 min 0,0 UV-I 14 W/m 2,8 C 3,8 C 0,0 km/h (0 Bft)
25.05.2022 06:06 3,9 C 2,2 C 93 % 1016,6 hPa 0,0 l/m 0,0 km/h (0 Bft) N 0 0 min 0,0 UV-I 14 W/m 2,9 C 3,9 C 0,0 km/h (0 Bft)
25.05.2022 06:07 3,9 C 2,2 C 93 % 1016,5 hPa 0,0 l/m 0,0 km/h (0 Bft) N 0 0 min 0,0 UV-I 14 W/m 2,9 C 3,9 C 0,0 km/h (0 Bft)
25.05.2022 06:08 3,9 C 2,2 C 93 % 1016,6 hPa 0,0 l/m 0,0 km/h (0 Bft) N 0 0 min 0,0 UV-I 16 W/m 2,9 C 3,9 C 0,0 km/h (0 Bft)
25.05.2022 06:09 4,1 C 2,2 C 93 % 1016,6 hPa 0,0 l/m 0,0 km/h (0 Bft) N 0 0 min 0,0 UV-I 16 W/m 3,1 C 4,1 C 0,0 km/h (0 Bft)
25.05.2022 06:10 4,3 C 2,8 C 94 % 1016,6 hPa 0,0 l/m 0,0 km/h (0 Bft) N 0 0 min 0,0 UV-I 16 W/m 3,4 C 4,3 C 0,0 km/h (0 Bft)
25.05.2022 06:11 4,3 C 2,8 C 94 % 1016,6 hPa 0,0 l/m 0,0 km/h (0 Bft) N-NW 337 0 min 0,0 UV-I 16 W/m 3,4 C 4,3 C 1,6 km/h (1 Bft)
25.05.2022 06:12 4,1 C 2,8 C 94 % 1016,7 hPa 0,0 l/m 0,0 km/h (0 Bft) N-NW 337 0 min 0,0 UV-I 18 W/m 3,2 C 4,1 C 1,6 km/h (1 Bft)
25.05.2022 06:13 3,8 C 2,2 C 93 % 1016,6 hPa 0,0 l/m 0,0 km/h (0 Bft) N-NW 337 0 min 0,0 UV-I 19 W/m 2,8 C 3,8 C 1,6 km/h (1 Bft)
25.05.2022 06:14 3,7 C 2,2 C 92 % 1016,6 hPa 0,0 l/m 1,6 km/h (1 Bft) N-NW 337 0 min 0,0 UV-I 19 W/m 2,5 C 3,7 C 3,2 km/h (1 Bft)
25.05.2022 06:15 3,6 C 2,2 C 92 % 1016,6 hPa 0,0 l/m 1,6 km/h (1 Bft) N-NW 337 0 min 0,0 UV-I 21 W/m 2,4 C 3,6 C 3,2 km/h (1 Bft)
25.05.2022 06:16 3,7 C 2,2 C 93 % 1016,6 hPa 0,0 l/m 1,6 km/h (1 Bft) N-NW 337 0 min 0,0 UV-I 21 W/m 2,7 C 3,7 C 3,2 km/h (1 Bft)
25.05.2022 06:17 3,8 C 2,2 C 93 % 1016,7 hPa 0,0 l/m 1,6 km/h (1 Bft) N-NW 337 0 min 0,0 UV-I 24 W/m 2,8 C 3,8 C 1,6 km/h (1 Bft)
25.05.2022 06:18 3,8 C 2,2 C 93 % 1016,7 hPa 0,0 l/m 0,0 km/h (0 Bft) N-NW 337 0 min 0,0 UV-I 25 W/m 2,8 C 3,8 C 1,6 km/h (1 Bft)
25.05.2022 06:19 3,9 C 2,8 C 93 % 1016,7 hPa 0,0 l/m 0,0 km/h (0 Bft) N 0 0 min 0,0 UV-I 26 W/m 2,9 C 3,9 C 0,0 km/h (0 Bft)
25.05.2022 06:20 3,8 C 2,8 C 93 % 1016,6 hPa 0,0 l/m 0,0 km/h (0 Bft) N 0 0 min 0,0 UV-I 26 W/m 2,8 C 3,8 C 0,0 km/h (0 Bft)
25.05.2022 06:21 3,8 C 2,8 C 93 % 1016,6 hPa 0,0 l/m 0,0 km/h (0 Bft) N 0 0 min 0,0 UV-I 28 W/m 2,8 C 3,8 C 0,0 km/h (0 Bft)
25.05.2022 06:22 3,8 C 2,8 C 93 % 1016,6 hPa 0,0 l/m 0,0 km/h (0 Bft) N 0 0 min 0,0 UV-I 31 W/m 2,8 C 3,8 C 0,0 km/h (0 Bft)
25.05.2022 06:23 3,8 C 2,8 C 93 % 1016,7 hPa 0,0 l/m 0,0 km/h (0 Bft) N 0 0 min 0,0 UV-I 33 W/m 2,8 C 3,8 C 0,0 km/h (0 Bft)
25.05.2022 06:24 3,9 C 2,8 C 93 % 1016,6 hPa 0,0 l/m 0,0 km/h (0 Bft) N 0 0 min 0,0 UV-I 33 W/m 2,9 C 3,9 C 0,0 km/h (0 Bft)
25.05.2022 06:25 4,1 C 2,8 C 93 % 1016,7 hPa 0,0 l/m 0,0 km/h (0 Bft) N 0 0 min 0,0 UV-I 35 W/m 3,1 C 4,1 C 0,0 km/h (0 Bft)
25.05.2022 06:26 4,2 C 2,8 C 93 % 1016,6 hPa 0,0 l/m 0,0 km/h (0 Bft) N 0 0 min 0,0 UV-I 37 W/m 3,2 C 4,2 C 0,0 km/h (0 Bft)
25.05.2022 06:27 4,3 C 2,8 C 94 % 1016,6 hPa 0,0 l/m 0,0 km/h (0 Bft) N 0 0 min 0,0 UV-I 37 W/m 3,4 C 4,3 C 0,0 km/h (0 Bft)
25.05.2022 06:28 4,4 C 2,8 C 94 % 1016,6 hPa 0,0 l/m 0,0 km/h (0 Bft) N 0 0 min 0,0 UV-I 40 W/m 3,5 C 4,4 C 0,0 km/h (0 Bft)
25.05.2022 06:29 4,5 C 2,8 C 94 % 1016,6 hPa 0,0 l/m 0,0 km/h (0 Bft) N 0 0 min 0,0 UV-I 42 W/m 3,6 C 4,5 C 0,0 km/h (0 Bft)
25.05.2022 06:30 4,4 C 2,8 C 93 % 1016,6 hPa 0,0 l/m 0,0 km/h (0 Bft) N 0 0 min 0,0 UV-I 44 W/m 3,4 C 4,4 C 0,0 km/h (0 Bft)
25.05.2022 06:31 4,4 C 2,8 C 93 % 1016,7 hPa 0,0 l/m 0,0 km/h (0 Bft) N 0 0 min 0,0 UV-I 44 W/m 3,4 C 4,4 C 0,0 km/h (0 Bft)
25.05.2022 06:32 4,4 C 2,8 C 93 % 1016,6 hPa 0,0 l/m 0,0 km/h (0 Bft) N-NW 337 0 min 0,0 UV-I 46 W/m 3,4 C 4,4 C 1,6 km/h (1 Bft)
25.05.2022 06:33 4,4 C 3,3 C 93 % 1016,7 hPa 0,0 l/m 0,0 km/h (0 Bft) N 0 0 min 0,0 UV-I 47 W/m 3,4 C 4,4 C 0,0 km/h (0 Bft)
25.05.2022 06:34 4,4 C 2,8 C 93 % 1016,6 hPa 0,0 l/m 0,0 km/h (0 Bft) N 0 0 min 0,0 UV-I 51 W/m 3,4 C 4,4 C 0,0 km/h (0 Bft)
25.05.2022 06:35 4,5 C 3,3 C 93 % 1016,6 hPa 0,0 l/m 0,0 km/h (0 Bft) N 0 0 min 0,0 UV-I 53 W/m 3,5 C 4,5 C 0,0 km/h (0 Bft)
25.05.2022 06:36 4,4 C 3,3 C 93 % 1016,7 hPa 0,0 l/m 0,0 km/h (0 Bft) N 0 0 min 0,0 UV-I 54 W/m 3,4 C 4,4 C 0,0 km/h (0 Bft)
25.05.2022 06:37 4,5 C 3,3 C 93 % 1016,6 hPa 0,0 l/m 0,0 km/h (0 Bft) N 0 0 min 0,0 UV-I 56 W/m 3,5 C 4,5 C 0,0 km/h (0 Bft)
25.05.2022 06:38 4,4 C 3,3 C 93 % 1016,7 hPa 0,0 l/m 0,0 km/h (0 Bft) N 0 0 min 0,0 UV-I 58 W/m 3,4 C 4,4 C 0,0 km/h (0 Bft)
25.05.2022 06:39 4,5 C 3,3 C 93 % 1016,7 hPa 0,0 l/m 1,6 km/h (1 Bft) N-NW 337 0 min 0,0 UV-I 60 W/m 3,5 C 4,5 C 1,6 km/h (1 Bft)
25.05.2022 06:40 4,5 C 3,3 C 93 % 1016,8 hPa 0,0 l/m 1,6 km/h (1 Bft) N-NW 337 0 min 0,0 UV-I 61 W/m 3,5 C 4,5 C 3,2 km/h (1 Bft)
25.05.2022 06:41 4,6 C 3,3 C 93 % 1016,7 hPa 0,0 l/m 0,0 km/h (0 Bft) N-NW 337 0 min 0,0 UV-I 63 W/m 3,6 C 4,6 C 1,6 km/h (1 Bft)
25.05.2022 06:42 4,6 C 3,3 C 94 % 1016,8 hPa 0,0 l/m 0,0 km/h (0 Bft) N 0 0 min 0,0 UV-I 65 W/m 3,7 C 4,6 C 0,0 km/h (0 Bft)
25.05.2022 06:43 4,6 C 3,3 C 94 % 1016,8 hPa 0,0 l/m 0,0 km/h (0 Bft) N 0 0 min 0,0 UV-I 67 W/m 3,7 C 4,6 C 0,0 km/h (0 Bft)
25.05.2022 06:44 4,7 C 3,9 C 94 % 1016,8 hPa 0,0 l/m 0,0 km/h (0 Bft) N 0 0 min 0,0 UV-I 69 W/m 3,8 C 4,7 C 0,0 km/h (0 Bft)
25.05.2022 06:45 4,6 C 3,3 C 93 % 1016,8 hPa 0,0 l/m 0,0 km/h (0 Bft) N 0 0 min 0,0 UV-I 70 W/m 3,6 C 4,6 C 0,0 km/h (0 Bft)
25.05.2022 06:46 4,7 C 3,3 C 93 % 1016,7 hPa 0,0 l/m 0,0 km/h (0 Bft) N 0 0 min 0,0 UV-I 73 W/m 3,7 C 4,7 C 0,0 km/h (0 Bft)
25.05.2022 06:47 4,7 C 3,9 C 94 % 1016,8 hPa 0,0 l/m 0,0 km/h (0 Bft) N 0 0 min 0,0 UV-I 76 W/m 3,8 C 4,7 C 0,0 km/h (0 Bft)
25.05.2022 06:48 4,7 C 3,3 C 93 % 1016,9 hPa 0,0 l/m 0,0 km/h (0 Bft) N 0 0 min 0,0 UV-I 77 W/m 3,7 C 4,7 C 0,0 km/h (0 Bft)
25.05.2022 06:49 4,7 C 3,9 C 93 % 1016,8 hPa 0,0 l/m 0,0 km/h (0 Bft) N 0 0 min 0,0 UV-I 79 W/m 3,7 C 4,7 C 0,0 km/h (0 Bft)
25.05.2022 06:50 4,7 C 3,9 C 93 % 1016,8 hPa 0,0 l/m 0,0 km/h (0 Bft) N 0 0 min 0,0 UV-I 81 W/m 3,7 C 4,7 C 0,0 km/h (0 Bft)
25.05.2022 06:51 4,7 C 3,9 C 93 % 1016,8 hPa 0,0 l/m 0,0 km/h (0 Bft) N 0 0 min 0,0 UV-I 83 W/m 3,7 C 4,7 C 0,0 km/h (0 Bft)
25.05.2022 06:52 4,7 C 3,9 C 93 % 1016,9 hPa 0,0 l/m 0,0 km/h (0 Bft) N 0 0 min 0,0 UV-I 86 W/m 3,7 C 4,7 C 0,0 km/h (0 Bft)
25.05.2022 06:53 4,7 C 3,9 C 93 % 1016,9 hPa 0,0 l/m 0,0 km/h (0 Bft) N 0 0 min 0,0 UV-I 90 W/m 3,7 C 4,7 C 0,0 km/h (0 Bft)
25.05.2022 06:54 4,7 C 3,9 C 93 % 1016,8 hPa 0,0 l/m 0,0 km/h (0 Bft) N 0 0 min 0,0 UV-I 91 W/m 3,7 C 4,7 C 0,0 km/h (0 Bft)
25.05.2022 06:55 4,8 C 3,9 C 93 % 1016,9 hPa 0,0 l/m 0,0 km/h (0 Bft) N 0 0 min 0,0 UV-I 93 W/m 3,8 C 4,8 C 0,0 km/h (0 Bft)
25.05.2022 06:56 4,8 C 3,9 C 93 % 1016,8 hPa 0,0 l/m 0,0 km/h (0 Bft) N 0 0 min 0,0 UV-I 95 W/m 3,8 C 4,8 C 0,0 km/h (0 Bft)
25.05.2022 06:57 4,8 C 3,9 C 93 % 1016,8 hPa 0,0 l/m 0,0 km/h (0 Bft) N 0 0 min 0,0 UV-I 97 W/m 3,8 C 4,8 C 0,0 km/h (0 Bft)
25.05.2022 06:58 4,8 C 3,9 C 93 % 1016,9 hPa 0,0 l/m 0,0 km/h (0 Bft) N 0 0 min 0,0 UV-I 100 W/m 3,8 C 4,8 C 0,0 km/h (0 Bft)
25.05.2022 06:59 4,8 C 3,9 C 93 % 1016,9 hPa 0,0 l/m 0,0 km/h (0 Bft) N 0 0 min 0,0 UV-I 102 W/m 3,8 C 4,8 C 0,0 km/h (0 Bft)
25.05.2022 07:00 4,8 C 3,9 C 93 % 1016,9 hPa 0,0 l/m 0,0 km/h (0 Bft) N 0 0 min 0,0 UV-I 104 W/m 3,8 C 4,8 C 0,0 km/h (0 Bft)
25.05.2022 07:01 4,9 C 3,9 C 93 % 1016,9 hPa 0,0 l/m 0,0 km/h (0 Bft) N 0 0 min 0,0 UV-I 104 W/m 3,9 C 4,9 C 0,0 km/h (0 Bft)
25.05.2022 07:02 4,9 C 4,4 C 94 % 1016,9 hPa 0,0 l/m 0,0 km/h (0 Bft) N-NW 337 0 min 0,0 UV-I 104 W/m 4,0 C 4,9 C 1,6 km/h (1 Bft)
25.05.2022 07:03 5,2 C 4,4 C 94 % 1016,9 hPa 0,0 l/m 0,0 km/h (0 Bft) N-NW 337 0 min 0,0 UV-I 105 W/m 4,3 C 5,2 C 1,6 km/h (1 Bft)
25.05.2022 07:04 5,3 C 4,4 C 94 % 1017,0 hPa 0,0 l/m 0,0 km/h (0 Bft) N-NW 337 0 min 0,0 UV-I 105 W/m 4,4 C 5,3 C 1,6 km/h (1 Bft)
25.05.2022 07:05 5,3 C 4,4 C 94 % 1016,9 hPa 0,0 l/m 0,0 km/h (0 Bft) N-NW 337 0 min 0,0 UV-I 105 W/m 4,4 C 5,3 C 1,6 km/h (1 Bft)
25.05.2022 07:06 5,4 C 4,4 C 94 % 1017,0 hPa 0,0 l/m 0,0 km/h (0 Bft) N-NW 337 0 min 0,0 UV-I 105 W/m 4,5 C 5,4 C 1,6 km/h (1 Bft)
25.05.2022 07:07 5,4 C 5,0 C 94 % 1017,0 hPa 0,0 l/m 0,0 km/h (0 Bft) N-NW 337 0 min 0,0 UV-I 105 W/m 4,5 C 5,4 C 1,6 km/h (1 Bft)
25.05.2022 07:08 5,4 C 5,0 C 93 % 1017,0 hPa 0,0 l/m 1,6 km/h (1 Bft) N-NW 337 0 min 0,5 UV-I 105 W/m 4,4 C 5,4 C 3,2 km/h (1 Bft)
25.05.2022 07:09 5,4 C 5,6 C 93 % 1017,0 hPa 0,0 l/m 0,0 km/h (0 Bft) N-NW 337 0 min 0,5 UV-I 107 W/m 4,4 C 5,4 C 1,6 km/h (1 Bft)
25.05.2022 07:10 5,6 C 5,6 C 94 % 1016,9 hPa 0,0 l/m 1,6 km/h (1 Bft) N-NW 337 0 min 0,5 UV-I 111 W/m 4,7 C 5,6 C 3,2 km/h (1 Bft)
25.05.2022 07:11 5,7 C 5,6 C 94 % 1017,0 hPa 0,0 l/m 3,2 km/h (1 Bft) N-NW 337 0 min 0,5 UV-I 114 W/m 4,8 C 5,7 C 4,8 km/h (1 Bft)
25.05.2022 07:12 5,8 C 6,1 C 94 % 1017,0 hPa 0,0 l/m 3,2 km/h (1 Bft) N-NW 337 0 min 0,5 UV-I 118 W/m 4,9 C 5,8 C 4,8 km/h (1 Bft)
25.05.2022 07:13 5,8 C 6,1 C 94 % 1017,0 hPa 0,0 l/m 3,2 km/h (1 Bft) N-NW 337 0 min 0,5 UV-I 123 W/m 4,9 C 5,8 C 4,8 km/h (1 Bft)
25.05.2022 07:14 5,9 C 6,1 C 94 % 1017,0 hPa 0,0 l/m 4,8 km/h (1 Bft) SW 225 0 min 0,5 UV-I 127 W/m 5,0 C 5,9 C 6,4 km/h (2 Bft)
25.05.2022 07:15 6,1 C 6,1 C 94 % 1017,1 hPa 0,0 l/m 4,8 km/h (1 Bft) SW 225 0 min 0,5 UV-I 135 W/m 5,2 C 6,1 C 6,4 km/h (2 Bft)
25.05.2022 07:16 6,1 C 6,1 C 94 % 1017,0 hPa 0,0 l/m 4,8 km/h (1 Bft) SW 225 0 min 0,5 UV-I 142 W/m 5,2 C 6,1 C 6,4 km/h (2 Bft)
25.05.2022 07:17 6,1 C 6,1 C 93 % 1017,2 hPa 0,0 l/m 4,8 km/h (1 Bft) SW 225 0 min 0,5 UV-I 148 W/m 5,1 C 6,1 C 6,4 km/h (2 Bft)
25.05.2022 07:18 6,2 C 6,1 C 93 % 1017,2 hPa 0,0 l/m 4,8 km/h (1 Bft) SW 225 0 min 0,5 UV-I 151 W/m 5,2 C 6,2 C 6,4 km/h (2 Bft)
25.05.2022 07:19 6,3 C 6,1 C 94 % 1017,2 hPa 0,0 l/m 4,8 km/h (1 Bft) SW 225 0 min 0,6 UV-I 156 W/m 5,4 C 6,3 C 8,0 km/h (2 Bft)
25.05.2022 07:20 6,4 C 6,7 C 94 % 1017,1 hPa 0,0 l/m 4,8 km/h (1 Bft) SW 225 0 min 0,6 UV-I 160 W/m 5,5 C 6,4 C 4,8 km/h (1 Bft)
25.05.2022 07:21 6,6 C 6,7 C 94 % 1017,0 hPa 0,0 l/m 4,8 km/h (1 Bft) SW 225 0 min 0,6 UV-I 163 W/m 5,7 C 6,6 C 8,0 km/h (2 Bft)
25.05.2022 07:22 6,6 C 6,7 C 94 % 1017,2 hPa 0,0 l/m 4,8 km/h (1 Bft) SW 225 0 min 0,6 UV-I 167 W/m 5,7 C 6,6 C 6,4 km/h (2 Bft)
25.05.2022 07:23 6,8 C 6,7 C 94 % 1017,1 hPa 0,0 l/m 4,8 km/h (1 Bft) SW 225 0 min 0,6 UV-I 169 W/m 5,9 C 6,8 C 6,4 km/h (2 Bft)
25.05.2022 07:24 6,8 C 6,7 C 93 % 1017,2 hPa 0,0 l/m 6,4 km/h (2 Bft) SW 225 0 min 0,6 UV-I 172 W/m 5,7 C 6,8 C 8,0 km/h (2 Bft)
25.05.2022 07:25 6,9 C 6,7 C 93 % 1017,2 hPa 0,0 l/m 6,4 km/h (2 Bft) S-SW 202 0 min 0,6 UV-I 174 W/m 5,8 C 6,9 C 8,0 km/h (2 Bft)
25.05.2022 07:26 7,1 C 6,7 C 94 % 1017,2 hPa 0,0 l/m 8,0 km/h (2 Bft) S-SW 202 0 min 0,6 UV-I 176 W/m 6,2 C 5,8 C 9,7 km/h (2 Bft)
25.05.2022 07:27 7,1 C 6,7 C 93 % 1017,1 hPa 0,0 l/m 8,0 km/h (2 Bft) S-SW 202 0 min 0,6 UV-I 181 W/m 6,0 C 5,8 C 9,7 km/h (2 Bft)
25.05.2022 07:28 7,2 C 6,7 C 93 % 1017,1 hPa 0,0 l/m 4,8 km/h (1 Bft) SW 225 0 min 0,6 UV-I 185 W/m 6,1 C 7,2 C 6,4 km/h (2 Bft)
25.05.2022 07:29 7,2 C 7,2 C 93 % 1017,1 hPa 0,0 l/m 4,8 km/h (1 Bft) SW 225 0 min 0,7 UV-I 186 W/m 6,1 C 7,2 C 9,7 km/h (2 Bft)
25.05.2022 07:30 7,3 C 7,2 C 93 % 1017,1 hPa 0,0 l/m 6,4 km/h (2 Bft) SW 225 0 min 0,7 UV-I 190 W/m 6,2 C 7,3 C 8,0 km/h (2 Bft)
25.05.2022 07:31 7,3 C 7,2 C 93 % 1017,2 hPa 0,0 l/m 6,4 km/h (2 Bft) SW 225 0 min 0,7 UV-I 192 W/m 6,2 C 7,3 C 8,0 km/h (2 Bft)
25.05.2022 07:32 7,4 C 7,2 C 93 % 1017,1 hPa 0,0 l/m 6,4 km/h (2 Bft) SW 225 0 min 0,7 UV-I 195 W/m 6,3 C 7,4 C 12,9 km/h (3 Bft)
25.05.2022 07:33 7,4 C 7,2 C 93 % 1017,2 hPa 0,0 l/m 8,0 km/h (2 Bft) S-SW 202 0 min 0,7 UV-I 199 W/m 6,3 C 6,1 C 11,3 km/h (2 Bft)
25.05.2022 07:34 7,6 C 7,2 C 93 % 1017,2 hPa 0,0 l/m 8,0 km/h (2 Bft) SW 225 0 min 0,7 UV-I 202 W/m 6,5 C 6,3 C 12,9 km/h (3 Bft)
25.05.2022 07:35 7,6 C 7,2 C 93 % 1017,2 hPa 0,0 l/m 8,0 km/h (2 Bft) SW 225 0 min 0,7 UV-I 204 W/m 6,5 C 6,3 C 11,3 km/h (2 Bft)
25.05.2022 07:36 7,7 C 7,2 C 93 % 1017,2 hPa 0,0 l/m 9,7 km/h (2 Bft) SW 225 0 min 0,7 UV-I 207 W/m 6,6 C 5,2 C 12,9 km/h (3 Bft)
25.05.2022 07:37 7,7 C 7,2 C 93 % 1017,2 hPa 0,0 l/m 9,7 km/h (2 Bft) S-SW 202 0 min 0,7 UV-I 209 W/m 6,6 C 5,2 C 11,3 km/h (2 Bft)
25.05.2022 07:38 7,8 C 7,2 C 92 % 1017,2 hPa 0,0 l/m 8,0 km/h (2 Bft) S-SW 202 0 min 0,8 UV-I 211 W/m 6,6 C 6,5 C 11,3 km/h (2 Bft)
25.05.2022 07:39 7,8 C 7,2 C 93 % 1017,3 hPa 0,0 l/m 9,7 km/h (2 Bft) S-SW 202 0 min 0,8 UV-I 215 W/m 6,7 C 5,4 C 11,3 km/h (2 Bft)
25.05.2022 07:40 7,8 C 7,2 C 92 % 1017,2 hPa 0,0 l/m 11,3 km/h (2 Bft) S-SW 202 0 min 0,8 UV-I 218 W/m 6,6 C 4,4 C 12,9 km/h (3 Bft)
25.05.2022 07:41 7,9 C 7,2 C 92 % 1017,3 hPa 0,0 l/m 8,0 km/h (2 Bft) S-SW 202 0 min 0,8 UV-I 221 W/m 6,7 C 6,6 C 11,3 km/h (2 Bft)
25.05.2022 07:42 7,9 C 7,2 C 92 % 1017,2 hPa 0,0 l/m 8,0 km/h (2 Bft) S-SW 202 0 min 0,8 UV-I 223 W/m 6,7 C 6,6 C 12,9 km/h (3 Bft)
25.05.2022 07:43 7,9 C 7,8 C 92 % 1017,3 hPa 0,0 l/m 9,7 km/h (2 Bft) S-SW 202 0 min 0,8 UV-I 225 W/m 6,7 C 5,5 C 11,3 km/h (2 Bft)
25.05.2022 07:44 8,1 C 7,8 C 92 % 1017,4 hPa 0,0 l/m 8,0 km/h (2 Bft) SW 225 0 min 0,8 UV-I 229 W/m 6,9 C 6,9 C 9,7 km/h (2 Bft)
25.05.2022 07:45 8,1 C 7,8 C 92 % 1017,3 hPa 0,0 l/m 9,7 km/h (2 Bft) S-SW 202 0 min 0,8 UV-I 232 W/m 6,9 C 5,7 C 12,9 km/h (3 Bft)
25.05.2022 07:46 8,1 C 7,8 C 92 % 1017,3 hPa 0,0 l/m 12,9 km/h (3 Bft) SW 225 0 min 0,9 UV-I 234 W/m 6,9 C 3,8 C 16,1 km/h (3 Bft)
25.05.2022 07:47 8,1 C 7,8 C 92 % 1017,3 hPa 0,0 l/m 12,9 km/h (3 Bft) SW 225 0 min 0,9 UV-I 237 W/m 6,9 C 3,8 C 16,1 km/h (3 Bft)
25.05.2022 07:50 8,3 C 7,8 C 91 % 1017,3 hPa 0,0 l/m 10,8 km/h (2 Bft) SW 229 0 min 0,9 UV-I 243 W/m 6,9 C 5,2 C 12,9 km/h (3 Bft)
25.05.2022 07:52 8,3 C 7,8 C 91 % 1017,3 hPa 0,0 l/m 6,3 km/h (2 Bft) SW 219 0 min 0,9 UV-I 248 W/m 6,9 C 8,3 C 11,3 km/h (2 Bft)
25.05.2022 07:54 8,4 C 8,3 C 91 % 1017,4 hPa 0,0 l/m 8,3 km/h (2 Bft) S-SW 209 0 min 0,9 UV-I 251 W/m 7,0 C 7,0 C 12,9 km/h (3 Bft)
25.05.2022 07:56 8,4 C 8,3 C 90 % 1017,3 hPa 0,0 l/m 12,4 km/h (3 Bft) S-SW 193 0 min 1,0 UV-I 256 W/m 6,9 C 4,5 C 16,1 km/h (3 Bft)
25.05.2022 07:58 8,5 C 8,3 C 90 % 1017,3 hPa 0,0 l/m 9,9 km/h (2 Bft) SW 215 0 min 1,0 UV-I 262 W/m 7,0 C 6,0 C 12,9 km/h (3 Bft)
25.05.2022 08:00 8,6 C 8,3 C 90 % 1017,4 hPa 0,0 l/m 6,7 km/h (2 Bft) S-SW 205 0 min 1,0 UV-I 266 W/m 7,1 C 8,4 C 11,3 km/h (2 Bft)
25.05.2022 08:02 8,7 C 8,9 C 89 % 1017,3 hPa 0,0 l/m 6,8 km/h (2 Bft) SW 219 0 min 1,0 UV-I 271 W/m 7,0 C 8,4 C 11,3 km/h (2 Bft)
25.05.2022 08:04 8,8 C 8,9 C 89 % 1017,4 hPa 0,0 l/m 5,1 km/h (1 Bft) S-SW 198 0 min 1,1 UV-I 276 W/m 7,1 C 8,8 C 8,0 km/h (2 Bft)
25.05.2022 08:06 8,8 C 8,9 C 89 % 1017,4 hPa 0,0 l/m 7,5 km/h (2 Bft) SW 234 0 min 1,1 UV-I 281 W/m 7,1 C 8,0 C 9,7 km/h (2 Bft)
25.05.2022 08:08 8,8 C 8,9 C 88 % 1017,6 hPa 0,0 l/m 8,3 km/h (2 Bft) S 183 0 min 1,1 UV-I 287 W/m 6,9 C 7,4 C 12,9 km/h (3 Bft)
25.05.2022 08:10 8,8 C 8,3 C 88 % 1017,5 hPa 0,0 l/m 8,9 km/h (2 Bft) S-SW 194 0 min 1,2 UV-I 293 W/m 6,9 C 7,0 C 16,1 km/h (3 Bft)
25.05.2022 08:12 8,8 C 8,3 C 87 % 1017,5 hPa 0,0 l/m 10,1 km/h (2 Bft) S-SW 206 0 min 1,2 UV-I 297 W/m 6,8 C 6,2 C 12,9 km/h (3 Bft)
25.05.2022 08:14 8,8 C 8,3 C 86 % 1017,5 hPa 0,0 l/m 10,0 km/h (2 Bft) S-SW 202 0 min 1,2 UV-I 303 W/m 6,6 C 6,3 C 14,5 km/h (3 Bft)
25.05.2022 08:16 8,8 C 8,3 C 86 % 1017,6 hPa 0,0 l/m 11,9 km/h (2 Bft) SW 216 0 min 1,3 UV-I 308 W/m 6,6 C 5,2 C 17,7 km/h (3 Bft)
25.05.2022 08:18 8,8 C 8,3 C 86 % 1017,6 hPa 0,0 l/m 10,5 km/h (2 Bft) S-SW 202 0 min 1,3 UV-I 312 W/m 6,6 C 6,0 C 14,5 km/h (3 Bft)
25.05.2022 08:20 8,9 C 8,9 C 86 % 1017,6 hPa 0,0 l/m 8,3 km/h (2 Bft) SW 220 0 min 1,3 UV-I 317 W/m 6,7 C 7,5 C 11,3 km/h (2 Bft)
25.05.2022 08:22 8,9 C 8,3 C 85 % 1017,5 hPa 0,0 l/m 11,2 km/h (2 Bft) S-SW 205 0 min 1,3 UV-I 322 W/m 6,5 C 5,7 C 17,7 km/h (3 Bft)
25.05.2022 08:24 9,0 C 8,3 C 85 % 1017,7 hPa 0,0 l/m 10,8 km/h (2 Bft) S-SW 205 0 min 1,4 UV-I 329 W/m 6,6 C 6,0 C 17,7 km/h (3 Bft)
25.05.2022 08:26 9,0 C 8,9 C 85 % 1017,6 hPa 0,0 l/m 13,0 km/h (3 Bft) S 186 0 min 1,4 UV-I 334 W/m 6,6 C 4,9 C 16,1 km/h (3 Bft)
25.05.2022 08:28 9,0 C 8,3 C 85 % 1017,7 hPa 0,0 l/m 11,6 km/h (2 Bft) S-SW 193 0 min 1,4 UV-I 338 W/m 6,6 C 5,6 C 14,5 km/h (3 Bft)
25.05.2022 08:30 9,1 C 8,9 C 85 % 1017,6 hPa 0,0 l/m 8,4 km/h (2 Bft) SW 227 0 min 1,5 UV-I 343 W/m 6,7 C 7,6 C 12,9 km/h (3 Bft)
25.05.2022 08:32 9,3 C 8,9 C 84 % 1017,6 hPa 0,0 l/m 9,0 km/h (2 Bft) S-SW 193 2 min 1,5 UV-I 349 W/m 6,7 C 7,4 C 14,5 km/h (3 Bft)
25.05.2022 08:34 9,3 C 8,9 C 84 % 1017,6 hPa 0,0 l/m 10,3 km/h (2 Bft) S 189 2 min 1,5 UV-I 355 W/m 6,7 C 6,6 C 14,5 km/h (3 Bft)
25.05.2022 08:36 9,3 C 8,9 C 83 % 1017,8 hPa 0,0 l/m 9,6 km/h (2 Bft) SW 232 2 min 1,5 UV-I 360 W/m 6,6 C 7,1 C 12,9 km/h (3 Bft)
25.05.2022 08:38 9,4 C 8,9 C 83 % 1017,6 hPa 0,0 l/m 9,0 km/h (2 Bft) SW 219 2 min 1,6 UV-I 365 W/m 6,7 C 7,6 C 14,5 km/h (3 Bft)
25.05.2022 08:40 9,5 C 9,4 C 83 % 1017,7 hPa 0,0 l/m 9,2 km/h (2 Bft) S-SW 205 2 min 1,6 UV-I 370 W/m 6,8 C 7,5 C 12,9 km/h (3 Bft)
25.05.2022 08:42 9,6 C 9,4 C 82 % 1017,7 hPa 0,0 l/m 10,3 km/h (2 Bft) S-SW 197 2 min 1,6 UV-I 376 W/m 6,7 C 7,0 C 14,5 km/h (3 Bft)
25.05.2022 08:44 9,7 C 9,4 C 82 % 1017,7 hPa 0,0 l/m 9,4 km/h (2 Bft) S-SW 197 2 min 1,7 UV-I 381 W/m 6,8 C 7,6 C 14,5 km/h (3 Bft)
25.05.2022 08:46 9,6 C 9,4 C 82 % 1017,8 hPa 0,0 l/m 9,7 km/h (2 Bft) S 173 2 min 1,7 UV-I 386 W/m 6,7 C 7,3 C 16,1 km/h (3 Bft)
25.05.2022 08:48 9,7 C 10,0 C 82 % 1017,7 hPa 0,0 l/m 9,0 km/h (2 Bft) S-SW 192 2 min 1,7 UV-I 391 W/m 6,8 C 7,9 C 11,3 km/h (2 Bft)
25.05.2022 08:50 9,8 C 10,0 C 82 % 1017,8 hPa 0,0 l/m 10,9 km/h (2 Bft) S-SW 211 2 min 1,8 UV-I 397 W/m 6,9 C 6,9 C 17,7 km/h (3 Bft)
25.05.2022 08:52 9,8 C 10,0 C 80 % 1017,8 hPa 0,0 l/m 11,5 km/h (2 Bft) SW 214 2 min 1,8 UV-I 402 W/m 6,5 C 6,5 C 19,3 km/h (3 Bft)
25.05.2022 08:54 9,8 C 10,0 C 81 % 1017,9 hPa 0,0 l/m 12,2 km/h (2 Bft) SW 223 2 min 1,8 UV-I 407 W/m 6,7 C 6,2 C 16,1 km/h (3 Bft)
25.05.2022 08:56 9,8 C 10,0 C 81 % 1017,8 hPa 0,0 l/m 11,5 km/h (2 Bft) S-SW 198 2 min 1,9 UV-I 414 W/m 6,7 C 6,5 C 16,1 km/h (3 Bft)
25.05.2022 08:58 9,8 C 10,0 C 81 % 1017,8 hPa 0,0 l/m 8,5 km/h (2 Bft) S-SO 163 2 min 1,9 UV-I 419 W/m 6,7 C 8,3 C 14,5 km/h (3 Bft)
25.05.2022 09:00 9,9 C 10,0 C 81 % 1017,9 hPa 0,0 l/m 9,4 km/h (2 Bft) S-SW 199 2 min 1,9 UV-I 425 W/m 6,8 C 7,8 C 14,5 km/h (3 Bft)
25.05.2022 09:02 10,0 C 10,6 C 81 % 1017,8 hPa 0,0 l/m 9,2 km/h (2 Bft) W 269 2 min 2,0 UV-I 431 W/m 6,9 C 8,1 C 12,9 km/h (3 Bft)
25.05.2022 09:04 10,1 C 10,6 C 81 % 1017,9 hPa 0,0 l/m 8,6 km/h (2 Bft) S-SW 204 2 min 2,0 UV-I 438 W/m 7,0 C 8,6 C 16,1 km/h (3 Bft)
25.05.2022 09:06 10,1 C 10,6 C 80 % 1018,0 hPa 0,0 l/m 10,2 km/h (2 Bft) S 184 2 min 2,0 UV-I 445 W/m 6,8 C 7,6 C 16,1 km/h (3 Bft)
25.05.2022 09:08 10,1 C 10,6 C 80 % 1017,9 hPa 0,0 l/m 8,8 km/h (2 Bft) S 186 2 min 2,1 UV-I 453 W/m 6,8 C 8,4 C 12,9 km/h (3 Bft)
25.05.2022 09:10 10,3 C 10,6 C 81 % 1018,0 hPa 0,0 l/m 8,3 km/h (2 Bft) S-SW 195 2 min 2,1 UV-I 459 W/m 7,2 C 9,0 C 14,5 km/h (3 Bft)
25.05.2022 09:12 10,3 C 10,6 C 80 % 1018,0 hPa 0,0 l/m 7,7 km/h (2 Bft) S-SW 194 2 min 2,1 UV-I 467 W/m 7,0 C 9,4 C 11,3 km/h (2 Bft)
25.05.2022 09:14 10,6 C 11,1 C 81 % 1018,0 hPa 0,0 l/m 8,1 km/h (2 Bft) SW 227 2 min 2,2 UV-I 475 W/m 7,5 C 9,4 C 11,3 km/h (2 Bft)
25.05.2022 09:16 10,7 C 11,1 C 79 % 1018,0 hPa 0,0 l/m 9,2 km/h (2 Bft) SW 217 2 min 2,2 UV-I 481 W/m 7,2 C 8,8 C 16,1 km/h (3 Bft)
25.05.2022 09:18 10,6 C 11,1 C 79 % 1018,0 hPa 0,0 l/m 9,5 km/h (2 Bft) SW 215 2 min 2,2 UV-I 487 W/m 7,1 C 8,5 C 16,1 km/h (3 Bft)
25.05.2022 09:20 10,7 C 11,1 C 79 % 1017,9 hPa 0,0 l/m 7,3 km/h (2 Bft) S 175 2 min 2,3 UV-I 495 W/m 7,2 C 10,1 C 11,3 km/h (2 Bft)
25.05.2022 09:22 10,9 C 11,7 C 78 % 1018,0 hPa 0,0 l/m 11,0 km/h (2 Bft) S 187 2 min 2,3 UV-I 500 W/m 7,2 C 8,1 C 17,7 km/h (3 Bft)
25.05.2022 09:24 10,8 C 11,7 C 77 % 1017,9 hPa 0,0 l/m 13,8 km/h (3 Bft) S-SW 202 2 min 2,3 UV-I 505 W/m 6,9 C 6,6 C 17,7 km/h (3 Bft)
25.05.2022 09:26 10,8 C 11,1 C 77 % 1017,9 hPa 0,0 l/m 10,2 km/h (2 Bft) S-SW 196 2 min 2,4 UV-I 509 W/m 6,9 C 8,4 C 16,1 km/h (3 Bft)
25.05.2022 09:28 10,9 C 11,7 C 78 % 1018,0 hPa 0,0 l/m 12,2 km/h (2 Bft) S 187 2 min 2,4 UV-I 512 W/m 7,2 C 7,5 C 16,1 km/h (3 Bft)
25.05.2022 09:30 10,9 C 11,7 C 77 % 1018,0 hPa 0,0 l/m 12,9 km/h (3 Bft) S 187 2 min 2,5 UV-I 512 W/m 7,0 C 7,1 C 20,9 km/h (4 Bft)
25.05.2022 09:32 10,9 C 11,7 C 76 % 1018,1 hPa 0,0 l/m 14,5 km/h (3 Bft) S-SW 196 2 min 2,5 UV-I 512 W/m 6,8 C 6,4 C 20,9 km/h (4 Bft)
25.05.2022 09:34 11,0 C 11,7 C 77 % 1018,0 hPa 0,0 l/m 9,7 km/h (2 Bft) SW 225 2 min 2,5 UV-I 512 W/m 7,1 C 8,9 C 16,1 km/h (3 Bft)
25.05.2022 09:36 11,1 C 11,7 C 75 % 1018,0 hPa 0,0 l/m 16,2 km/h (3 Bft) S-SW 203 2 min 2,6 UV-I 511 W/m 6,8 C 6,0 C 22,5 km/h (4 Bft)
25.05.2022 09:38 11,0 C 11,7 C 76 % 1018,0 hPa 0,0 l/m 11,5 km/h (2 Bft) W-SW 253 2 min 2,6 UV-I 507 W/m 6,9 C 7,9 C 17,7 km/h (3 Bft)
25.05.2022 09:40 11,1 C 11,7 C 75 % 1018,0 hPa 0,0 l/m 11,6 km/h (2 Bft) SW 214 2 min 2,7 UV-I 504 W/m 6,8 C 8,0 C 19,3 km/h (3 Bft)
25.05.2022 09:42 11,2 C 11,7 C 75 % 1018,1 hPa 0,0 l/m 12,8 km/h (3 Bft) S 185 2 min 2,7 UV-I 499 W/m 6,9 C 7,5 C 17,7 km/h (3 Bft)
25.05.2022 09:44 11,3 C 12,2 C 74 % 1018,1 hPa 0,0 l/m 16,3 km/h (3 Bft) SW 223 2 min 2,7 UV-I 494 W/m 6,8 C 6,2 C 22,5 km/h (4 Bft)
25.05.2022 09:46 11,2 C 12,2 C 74 % 1018,1 hPa 0,0 l/m 14,3 km/h (3 Bft) SW 221 2 min 2,8 UV-I 490 W/m 6,7 C 6,9 C 19,3 km/h (3 Bft)
25.05.2022 09:48 11,3 C 12,2 C 74 % 1018,2 hPa 0,0 l/m 15,1 km/h (3 Bft) S-SW 202 2 min 2,8 UV-I 485 W/m 6,8 C 6,7 C 22,5 km/h (4 Bft)
25.05.2022 09:50 11,3 C 12,2 C 73 % 1018,1 hPa 0,0 l/m 16,9 km/h (3 Bft) S 184 2 min 2,9 UV-I 481 W/m 6,6 C 6,0 C 22,5 km/h (4 Bft)
25.05.2022 09:52 11,5 C 12,2 C 73 % 1018,0 hPa 0,0 l/m 12,2 km/h (2 Bft) S-SW 207 2 min 2,9 UV-I 478 W/m 6,8 C 8,1 C 17,7 km/h (3 Bft)
25.05.2022 09:54 11,7 C 12,8 C 74 % 1018,1 hPa 0,0 l/m 10,0 km/h (2 Bft) SW 232 2 min 2,9 UV-I 475 W/m 7,2 C 9,5 C 16,1 km/h (3 Bft)
25.05.2022 09:56 11,9 C 12,8 C 74 % 1018,0 hPa 0,0 l/m 11,6 km/h (2 Bft) S 191 2 min 3,0 UV-I 473 W/m 7,4 C 8,9 C 16,1 km/h (3 Bft)
25.05.2022 09:58 11,9 C 13,3 C 73 % 1018,2 hPa 0,0 l/m 16,3 km/h (3 Bft) S-SW 192 2 min 3,0 UV-I 473 W/m 7,2 C 7,0 C 24,1 km/h (4 Bft)
25.05.2022 10:00 11,8 C 12,8 C 71 % 1018,2 hPa 0,0 l/m 14,8 km/h (3 Bft) SW 218 2 min 3,0 UV-I 474 W/m 6,7 C 7,4 C 25,7 km/h (4 Bft)
25.05.2022 10:02 11,8 C 12,8 C 72 % 1018,2 hPa 0,0 l/m 16,3 km/h (3 Bft) S-SW 197 2 min 3,1 UV-I 476 W/m 6,9 C 6,8 C 22,5 km/h (4 Bft)
25.05.2022 10:04 11,9 C 12,8 C 72 % 1018,1 hPa 0,0 l/m 12,2 km/h (2 Bft) SW 217 2 min 3,1 UV-I 481 W/m 7,0 C 8,6 C 27,4 km/h (4 Bft)
25.05.2022 10:06 11,8 C 13,3 C 71 % 1018,2 hPa 0,0 l/m 15,5 km/h (3 Bft) S 190 2 min 3,1 UV-I 486 W/m 6,7 C 7,1 C 22,5 km/h (4 Bft)
25.05.2022 10:08 11,9 C 13,3 C 72 % 1018,2 hPa 0,0 l/m 14,0 km/h (3 Bft) S-SO 159 2 min 3,2 UV-I 493 W/m 7,0 C 7,8 C 22,5 km/h (4 Bft)
25.05.2022 10:10 12,1 C 13,3 C 71 % 1018,2 hPa 0,0 l/m 15,0 km/h (3 Bft) S 188 2 min 3,2 UV-I 501 W/m 7,0 C 7,7 C 24,1 km/h (4 Bft)
25.05.2022 10:12 12,1 C 13,3 C 69 % 1018,1 hPa 0,0 l/m 17,6 km/h (3 Bft) S 188 2 min 3,3 UV-I 511 W/m 6,6 C 6,8 C 29,0 km/h (5 Bft)
25.05.2022 10:14 12,1 C 13,3 C 71 % 1018,2 hPa 0,0 l/m 18,0 km/h (3 Bft) S 178 2 min 3,3 UV-I 526 W/m 7,0 C 6,6 C 24,1 km/h (4 Bft)
25.05.2022 10:16 12,1 C 13,3 C 69 % 1018,1 hPa 0,0 l/m 13,9 km/h (3 Bft) S-SW 197 2 min 3,4 UV-I 538 W/m 6,6 C 8,1 C 22,5 km/h (4 Bft)
25.05.2022 10:18 12,2 C 13,3 C 70 % 1018,1 hPa 0,0 l/m 18,5 km/h (3 Bft) S-SW 197 2 min 3,4 UV-I 553 W/m 6,9 C 6,6 C 27,4 km/h (4 Bft)
25.05.2022 10:20 12,2 C 13,3 C 70 % 1018,1 hPa 0,0 l/m 15,2 km/h (3 Bft) S-SW 200 2 min 3,4 UV-I 568 W/m 6,9 C 7,7 C 29,0 km/h (5 Bft)
25.05.2022 10:22 12,4 C 13,9 C 71 % 1018,2 hPa 0,0 l/m 9,2 km/h (2 Bft) SW 219 2 min 3,5 UV-I 584 W/m 7,3 C 10,7 C 14,5 km/h (3 Bft)
25.05.2022 10:24 12,7 C 14,4 C 69 % 1018,2 hPa 0,0 l/m 13,5 km/h (3 Bft) S 178 2 min 3,5 UV-I 603 W/m 7,2 C 9,0 C 22,5 km/h (4 Bft)
25.05.2022 10:26 12,8 C 14,4 C 67 % 1018,1 hPa 0,0 l/m 12,3 km/h (3 Bft) SW 215 2 min 3,4 UV-I 579 W/m 6,8 C 9,6 C 20,9 km/h (4 Bft)
25.05.2022 10:28 12,7 C 13,9 C 66 % 1018,2 hPa 0,0 l/m 16,4 km/h (3 Bft) S-SW 192 2 min 3,6 UV-I 634 W/m 6,5 C 7,9 C 29,0 km/h (5 Bft)
25.05.2022 10:30 12,5 C 13,9 C 66 % 1018,2 hPa 0,0 l/m 14,8 km/h (3 Bft) S-SW 204 2 min 3,7 UV-I 649 W/m 6,3 C 8,2 C 20,9 km/h (4 Bft)
25.05.2022 10:32 12,6 C 14,4 C 67 % 1018,2 hPa 0,0 l/m 16,5 km/h (3 Bft) S-SW 202 2 min 3,7 UV-I 659 W/m 6,6 C 7,7 C 25,7 km/h (4 Bft)
25.05.2022 10:34 12,7 C 14,4 C 68 % 1018,1 hPa 0,0 l/m 10,9 km/h (2 Bft) S-SW 204 2 min 3,7 UV-I 673 W/m 6,9 C 10,1 C 20,9 km/h (4 Bft)
25.05.2022 10:36 12,9 C 14,4 C 67 % 1018,2 hPa 0,0 l/m 15,5 km/h (3 Bft) S 180 2 min 3,8 UV-I 685 W/m 6,9 C 8,5 C 27,4 km/h (4 Bft)
25.05.2022 10:38 12,8 C 13,9 C 66 % 1018,1 hPa 0,0 l/m 13,8 km/h (3 Bft) S 188 2 min 3,8 UV-I 691 W/m 6,6 C 9,0 C 20,9 km/h (4 Bft)
25.05.2022 10:40 12,8 C 14,4 C 67 % 1018,0 hPa 0,0 l/m 11,9 km/h (2 Bft) S 190 2 min 3,8 UV-I 695 W/m 6,8 C 9,8 C 17,7 km/h (3 Bft)
25.05.2022 10:42 13,0 C 15,0 C 68 % 1018,1 hPa 0,0 l/m 10,4 km/h (2 Bft) S 186 2 min 3,9 UV-I 699 W/m 7,2 C 10,7 C 17,7 km/h (3 Bft)
25.05.2022 10:44 13,2 C 15,0 C 67 % 1018,1 hPa 0,0 l/m 17,0 km/h (3 Bft) S 171 2 min 3,9 UV-I 703 W/m 7,2 C 8,3 C 25,7 km/h (4 Bft)
25.05.2022 10:46 13,1 C 15,0 C 66 % 1018,1 hPa 0,0 l/m 14,9 km/h (3 Bft) S-SW 208 2 min 4,0 UV-I 709 W/m 6,9 C 8,9 C 24,1 km/h (4 Bft)
25.05.2022 10:48 13,1 C 15,0 C 67 % 1018,0 hPa 0,0 l/m 14,0 km/h (3 Bft) SW 229 2 min 4,0 UV-I 716 W/m 7,1 C 9,3 C 24,1 km/h (4 Bft)
25.05.2022 10:50 13,1 C 15,0 C 66 % 1018,0 hPa 0,0 l/m 16,5 km/h (3 Bft) S-SW 208 2 min 4,0 UV-I 721 W/m 6,9 C 8,4 C 27,4 km/h (4 Bft)
25.05.2022 10:52 13,2 C 15,6 C 67 % 1018,0 hPa 0,0 l/m 18,3 km/h (3 Bft) S 173 2 min 4,1 UV-I 726 W/m 7,2 C 7,9 C 30,6 km/h (5 Bft)
25.05.2022 10:54 13,1 C 15,6 C 65 % 1018,1 hPa 0,0 l/m 18,8 km/h (3 Bft) S-SW 205 2 min 4,1 UV-I 732 W/m 6,7 C 7,6 C 24,1 km/h (4 Bft)
25.05.2022 10:56 13,1 C 16,1 C 66 % 1017,9 hPa 0,0 l/m 15,3 km/h (3 Bft) S-SW 213 2 min 4,2 UV-I 738 W/m 6,9 C 8,8 C 24,1 km/h (4 Bft)
25.05.2022 10:58 13,3 C 16,7 C 67 % 1018,1 hPa 0,0 l/m 13,4 km/h (3 Bft) S-SW 202 2 min 4,2 UV-I 744 W/m 7,3 C 9,7 C 19,3 km/h (3 Bft)
25.05.2022 11:00 13,5 C 16,7 C 66 % 1018,0 hPa 0,0 l/m 17,8 km/h (3 Bft) S 174 2 min 4,3 UV-I 748 W/m 7,3 C 8,4 C 30,6 km/h (5 Bft)
25.05.2022 11:02 13,4 C 17,2 C 64 % 1018,1 hPa 0,0 l/m 16,6 km/h (3 Bft) S-SW 193 2 min 4,3 UV-I 753 W/m 6,7 C 8,7 C 25,7 km/h (4 Bft)
25.05.2022 11:04 13,4 C 16,7 C 66 % 1018,1 hPa 0,0 l/m 13,4 km/h (3 Bft) S 184 2 min 4,3 UV-I 761 W/m 7,2 C 9,9 C 27,4 km/h (4 Bft)
25.05.2022 11:06 13,4 C 17,2 C 64 % 1018,2 hPa 0,0 l/m 19,2 km/h (3 Bft) S-SW 202 2 min 4,5 UV-I 777 W/m 6,7 C 7,9 C 27,4 km/h (4 Bft)
25.05.2022 11:08 13,4 C 17,2 C 64 % 1018,0 hPa 0,0 l/m 15,2 km/h (3 Bft) S-SW 194 2 min 4,5 UV-I 785 W/m 6,7 C 9,2 C 25,7 km/h (4 Bft)
25.05.2022 11:10 13,6 C 18,3 C 66 % 1018,1 hPa 0,0 l/m 13,5 km/h (3 Bft) S-SW 192 2 min 4,5 UV-I 792 W/m 7,4 C 10,1 C 19,3 km/h (3 Bft)
25.05.2022 11:12 13,8 C 17,8 C 65 % 1018,2 hPa 0,0 l/m 20,3 km/h (4 Bft) S 182 2 min 4,4 UV-I 816 W/m 7,3 C 8,1 C 27,4 km/h (4 Bft)
25.05.2022 11:14 13,6 C 17,8 C 63 % 1018,2 hPa 0,0 l/m 20,1 km/h (4 Bft) S-SW 207 2 min 4,2 UV-I 829 W/m 6,7 C 7,9 C 29,0 km/h (5 Bft)
25.05.2022 11:16 13,5 C 17,8 C 63 % 1018,2 hPa 0,0 l/m 17,1 km/h (3 Bft) W 277 2 min 4,7 UV-I 814 W/m 6,6 C 8,7 C 27,4 km/h (4 Bft)
25.05.2022 11:18 13,5 C 17,8 C 65 % 1018,2 hPa 0,0 l/m 16,2 km/h (3 Bft) S-SW 205 2 min 4,8 UV-I 817 W/m 7,1 C 9,0 C 30,6 km/h (5 Bft)
25.05.2022 11:20 13,6 C 17,8 C 64 % 1018,3 hPa 0,0 l/m 21,2 km/h (4 Bft) S 182 2 min 4,5 UV-I 849 W/m 6,9 C 7,6 C 40,2 km/h (6 Bft)
25.05.2022 11:22 13,8 C 18,3 C 65 % 1018,2 hPa 0,0 l/m 16,1 km/h (3 Bft) S 175 2 min 4,8 UV-I 855 W/m 7,3 C 9,4 C 25,7 km/h (4 Bft)
25.05.2022 11:24 13,8 C 17,8 C 63 % 1018,3 hPa 0,0 l/m 17,9 km/h (3 Bft) S 179 2 min 4,8 UV-I 820 W/m 6,9 C 8,8 C 27,4 km/h (4 Bft)
25.05.2022 11:26 13,9 C 17,8 C 64 % 1018,3 hPa 0,0 l/m 17,8 km/h (3 Bft) S-SO 151 2 min 4,9 UV-I 817 W/m 7,2 C 9,0 C 25,7 km/h (4 Bft)
25.05.2022 11:28 14,1 C 18,3 C 62 % 1018,3 hPa 0,0 l/m 19,1 km/h (3 Bft) S 188 2 min 4,9 UV-I 819 W/m 6,9 C 8,8 C 27,4 km/h (4 Bft)
25.05.2022 11:30 13,9 C 17,8 C 61 % 1018,4 hPa 0,0 l/m 21,1 km/h (4 Bft) S-SO 168 2 min 5,0 UV-I 837 W/m 6,5 C 8,0 C 29,0 km/h (5 Bft)
25.05.2022 11:32 13,9 C 17,8 C 62 % 1018,2 hPa 0,0 l/m 20,0 km/h (4 Bft) S 180 2 min 5,0 UV-I 843 W/m 6,7 C 8,3 C 33,8 km/h (5 Bft)
25.05.2022 11:34 14,0 C 18,9 C 63 % 1018,3 hPa 0,0 l/m 14,8 km/h (3 Bft) S 178 2 min 5,0 UV-I 841 W/m 7,1 C 10,1 C 25,7 km/h (4 Bft)
25.05.2022 11:36 14,1 C 18,3 C 60 % 1018,3 hPa 0,0 l/m 21,6 km/h (4 Bft) SW 227 2 min 5,0 UV-I 852 W/m 6,5 C 8,2 C 32,2 km/h (5 Bft)
25.05.2022 11:38 14,1 C 18,3 C 62 % 1018,2 hPa 0,0 l/m 18,0 km/h (3 Bft) S-SW 194 2 min 5,2 UV-I 884 W/m 6,9 C 9,1 C 25,7 km/h (4 Bft)
25.05.2022 11:40 14,2 C 18,9 C 61 % 1018,3 hPa 0,0 l/m 20,5 km/h (4 Bft) W-SW 250 2 min 4,8 UV-I 917 W/m 6,8 C 8,6 C 27,4 km/h (4 Bft)
25.05.2022 11:42 14,2 C 18,9 C 60 % 1018,4 hPa 0,0 l/m 20,5 km/h (4 Bft) S 187 2 min 5,3 UV-I 883 W/m 6,5 C 8,6 C 32,2 km/h (5 Bft)
25.05.2022 11:44 14,1 C 18,9 C 60 % 1018,2 hPa 0,0 l/m 18,6 km/h (3 Bft) S-SO 161 2 min 5,3 UV-I 893 W/m 6,5 C 9,0 C 29,0 km/h (5 Bft)
25.05.2022 11:46 14,2 C 18,9 C 59 % 1018,2 hPa 0,0 l/m 20,5 km/h (4 Bft) SW 229 2 min 5,3 UV-I 885 W/m 6,3 C 8,6 C 33,8 km/h (5 Bft)
25.05.2022 11:48 14,2 C 18,3 C 60 % 1018,2 hPa 0,0 l/m 25,1 km/h (4 Bft) S-SW 208 2 min 5,4 UV-I 896 W/m 6,5 C 7,5 C 40,2 km/h (6 Bft)
25.05.2022 11:50 14,3 C 18,9 C 60 % 1018,3 hPa 0,0 l/m 21,5 km/h (4 Bft) S-SW 211 2 min 5,5 UV-I 924 W/m 6,6 C 8,5 C 30,6 km/h (5 Bft)
25.05.2022 11:52 14,6 C 19,4 C 62 % 1018,4 hPa 0,0 l/m 18,7 km/h (3 Bft) S-SW 194 2 min 5,5 UV-I 971 W/m 7,4 C 9,6 C 32,2 km/h (5 Bft)
25.05.2022 11:54 14,7 C 18,9 C 60 % 1018,3 hPa 0,0 l/m 18,2 km/h (3 Bft) S 191 2 min 4,9 UV-I 1020 W/m 7,0 C 9,8 C 29,0 km/h (5 Bft)
25.05.2022 11:56 14,7 C 19,4 C 59 % 1018,3 hPa 0,0 l/m 17,1 km/h (3 Bft) S-SO 163 2 min 5,6 UV-I 975 W/m 6,8 C 10,2 C 27,4 km/h (4 Bft)
25.05.2022 11:58 14,8 C 17,8 C 60 % 1018,4 hPa 0,0 l/m 15,1 km/h (3 Bft) SW 221 2 min 3,6 UV-I 860 W/m 7,1 C 10,9 C 29,0 km/h (5 Bft)
25.05.2022 12:00 14,3 C 16,7 C 58 % 1018,4 hPa 0,0 l/m 19,3 km/h (3 Bft) W-SW 238 0 min 3,1 UV-I 288 W/m 6,2 C 9,0 C 29,0 km/h (5 Bft)
25.05.2022 12:02 14,1 C 17,2 C 60 % 1018,4 hPa 0,0 l/m 16,0 km/h (3 Bft) S 177 0 min 4,3 UV-I 271 W/m 6,5 C 9,8 C 29,0 km/h (5 Bft)
25.05.2022 12:04 13,8 C 16,1 C 60 % 1018,4 hPa 0,0 l/m 15,4 km/h (3 Bft) SW 228 0 min 2,9 UV-I 239 W/m 6,2 C 9,6 C 27,4 km/h (4 Bft)
25.05.2022 12:06 13,9 C 17,8 C 62 % 1018,4 hPa 0,0 l/m 10,4 km/h (2 Bft) SW 219 2 min 5,3 UV-I 408 W/m 6,7 C 11,7 C 17,7 km/h (3 Bft)
25.05.2022 12:08 13,9 C 17,2 C 60 % 1018,4 hPa 0,0 l/m 17,0 km/h (3 Bft) S-SW 206 2 min 3,1 UV-I 679 W/m 6,3 C 9,2 C 22,5 km/h (4 Bft)
25.05.2022 12:10 13,9 C 17,8 C 61 % 1018,3 hPa 0,0 l/m 14,2 km/h (3 Bft) S-SW 194 0 min 4,5 UV-I 244 W/m 6,5 C 10,1 C 20,9 km/h (4 Bft)
25.05.2022 12:12 14,1 C 18,9 C 60 % 1018,3 hPa 0,0 l/m 18,0 km/h (3 Bft) W-SW 243 2 min 5,9 UV-I 511 W/m 6,5 C 9,1 C 27,4 km/h (4 Bft)
25.05.2022 12:14 13,9 C 17,8 C 59 % 1018,4 hPa 0,0 l/m 19,8 km/h (3 Bft) S-SW 204 2 min 3,1 UV-I 595 W/m 6,0 C 8,4 C 27,4 km/h (4 Bft)
25.05.2022 12:16 13,6 C 15,0 C 58 % 1018,4 hPa 0,0 l/m 16,1 km/h (3 Bft) W-SW 252 0 min 2,4 UV-I 189 W/m 5,5 C 9,1 C 29,0 km/h (5 Bft)
25.05.2022 12:18 13,6 C 16,1 C 61 % 1018,4 hPa 0,0 l/m 13,7 km/h (3 Bft) SW 223 0 min 3,4 UV-I 183 W/m 6,2 C 10,0 C 20,9 km/h (4 Bft)
25.05.2022 12:20 13,9 C 17,8 C 61 % 1018,4 hPa 0,0 l/m 15,7 km/h (3 Bft) S-SW 213 0 min 4,4 UV-I 181 W/m 6,5 C 9,6 C 22,5 km/h (4 Bft)
25.05.2022 12:22 14,2 C 18,9 C 59 % 1018,3 hPa 0,0 l/m 15,8 km/h (3 Bft) S 184 2 min 5,6 UV-I 714 W/m 6,3 C 10,0 C 24,1 km/h (4 Bft)
25.05.2022 12:24 14,6 C 18,9 C 59 % 1018,4 hPa 0,0 l/m 14,9 km/h (3 Bft) S-SW 201 2 min 5,0 UV-I 985 W/m 6,7 C 10,7 C 27,4 km/h (4 Bft)
25.05.2022 12:26 14,7 C 19,4 C 60 % 1018,4 hPa 0,0 l/m 13,8 km/h (3 Bft) SW 232 2 min 5,5 UV-I 1019 W/m 7,0 C 11,2 C 22,5 km/h (4 Bft)
25.05.2022 12:28 15,0 C 20,6 C 59 % 1018,3 hPa 0,0 l/m 13,9 km/h (3 Bft) SW 222 2 min 6,0 UV-I 1044 W/m 7,1 C 11,6 C 24,1 km/h (4 Bft)
25.05.2022 12:30 14,8 C 17,8 C 59 % 1018,4 hPa 0,0 l/m 15,4 km/h (3 Bft) W-SW 239 2 min 3,4 UV-I 359 W/m 6,9 C 10,8 C 29,0 km/h (5 Bft)
25.05.2022 12:32 14,6 C 16,7 C 59 % 1018,3 hPa 0,0 l/m 15,4 km/h (3 Bft) S-SW 199 0 min 2,7 UV-I 219 W/m 6,7 C 10,6 C 24,1 km/h (4 Bft)
25.05.2022 12:34 14,3 C 16,1 C 59 % 1018,3 hPa 0,0 l/m 15,1 km/h (3 Bft) SW 229 0 min 2,8 UV-I 211 W/m 6,4 C 10,3 C 22,5 km/h (4 Bft)
25.05.2022 12:36 14,1 C 15,6 C 61 % 1018,3 hPa 0,0 l/m 13,5 km/h (3 Bft) SW 222 0 min 2,9 UV-I 181 W/m 6,7 C 10,6 C 19,3 km/h (3 Bft)
25.05.2022 12:38 14,1 C 16,1 C 61 % 1018,3 hPa 0,0 l/m 13,6 km/h (3 Bft) S 188 0 min 4,1 UV-I 170 W/m 6,7 C 10,6 C 22,5 km/h (4 Bft)
25.05.2022 12:40 14,1 C 16,1 C 61 % 1018,4 hPa 0,0 l/m 17,7 km/h (3 Bft) W-SW 246 0 min 4,4 UV-I 218 W/m 6,7 C 9,2 C 25,7 km/h (4 Bft)
25.05.2022 12:42 14,3 C 17,2 C 63 % 1018,4 hPa 0,0 l/m 11,8 km/h (2 Bft) S-SW 202 2 min 5,1 UV-I 519 W/m 7,4 C 11,5 C 22,5 km/h (4 Bft)
25.05.2022 12:44 14,6 C 19,4 C 62 % 1018,4 hPa 0,0 l/m 15,4 km/h (3 Bft) S-SW 213 2 min 5,9 UV-I 981 W/m 7,4 C 10,6 C 27,4 km/h (4 Bft)
25.05.2022 12:46 14,7 C 19,4 C 60 % 1018,4 hPa 0,0 l/m 15,8 km/h (3 Bft) W-SW 244 2 min 4,0 UV-I 988 W/m 7,0 C 10,6 C 22,5 km/h (4 Bft)
25.05.2022 12:48 15,0 C 20,0 C 60 % 1018,4 hPa 0,0 l/m 14,7 km/h (3 Bft) SW 226 2 min 6,2 UV-I 993 W/m 7,3 C 11,3 C 24,1 km/h (4 Bft)
25.05.2022 12:50 15,2 C 21,1 C 58 % 1018,4 hPa 0,0 l/m 17,1 km/h (3 Bft) SW 224 2 min 6,1 UV-I 1024 W/m 7,0 C 10,8 C 29,0 km/h (5 Bft)
25.05.2022 12:52 15,0 C 18,9 C 57 % 1018,3 hPa 0,0 l/m 16,1 km/h (3 Bft) S-SW 212 2 min 5,0 UV-I 483 W/m 6,6 C 10,8 C 25,7 km/h (4 Bft)
25.05.2022 12:54 14,8 C 18,3 C 57 % 1018,5 hPa 0,0 l/m 18,1 km/h (3 Bft) SW 221 0 min 3,7 UV-I 276 W/m 6,4 C 10,0 C 27,4 km/h (4 Bft)
25.05.2022 12:56 14,5 C 16,7 C 59 % 1018,4 hPa 0,0 l/m 16,8 km/h (3 Bft) S-SW 198 0 min 2,8 UV-I 266 W/m 6,6 C 10,0 C 24,1 km/h (4 Bft)
25.05.2022 12:58 14,5 C 17,2 C 59 % 1018,3 hPa 0,0 l/m 17,0 km/h (3 Bft) W 266 2 min 5,6 UV-I 522 W/m 6,6 C 9,9 C 27,4 km/h (4 Bft)
25.05.2022 13:00 14,9 C 21,1 C 60 % 1018,4 hPa 0,0 l/m 12,3 km/h (3 Bft) S-SW 200 2 min 6,4 UV-I 1072 W/m 7,2 C 12,0 C 19,3 km/h (3 Bft)
25.05.2022 13:02 15,2 C 21,7 C 58 % 1018,4 hPa 0,0 l/m 18,5 km/h (3 Bft) SW 232 2 min 6,4 UV-I 1058 W/m 7,0 C 10,4 C 30,6 km/h (5 Bft)
25.05.2022 13:04 15,3 C 21,7 C 55 % 1018,4 hPa 0,0 l/m 21,4 km/h (4 Bft) S 172 2 min 6,4 UV-I 1021 W/m 6,3 C 9,8 C 33,8 km/h (5 Bft)
25.05.2022 13:06 15,5 C 21,1 C 57 % 1018,3 hPa 0,0 l/m 18,3 km/h (3 Bft) SW 215 2 min 6,5 UV-I 1055 W/m 7,0 C 10,8 C 27,4 km/h (4 Bft)
25.05.2022 13:08 15,5 C 21,1 C 55 % 1018,3 hPa 0,0 l/m 18,9 km/h (3 Bft) S-SW 196 2 min 5,4 UV-I 1121 W/m 6,5 C 10,7 C 27,4 km/h (4 Bft)
25.05.2022 13:10 15,4 C 20,0 C 56 % 1018,3 hPa 0,0 l/m 11,7 km/h (2 Bft) SW 220 2 min 4,9 UV-I 1121 W/m 6,7 C 12,8 C 22,5 km/h (4 Bft)
25.05.2022 13:12 15,9 C 21,7 C 57 % 1018,2 hPa 0,0 l/m 15,9 km/h (3 Bft) S-SW 192 2 min 6,1 UV-I 1040 W/m 7,4 C 12,0 C 27,4 km/h (4 Bft)
25.05.2022 13:14 15,9 C 21,7 C 54 % 1018,3 hPa 0,0 l/m 23,7 km/h (4 Bft) S 180 2 min 6,7 UV-I 1099 W/m 6,6 C 10,1 C 33,8 km/h (5 Bft)
25.05.2022 13:16 15,8 C 21,1 C 55 % 1018,2 hPa 0,0 l/m 22,3 km/h (4 Bft) S-SW 207 2 min 6,7 UV-I 1101 W/m 6,8 C 10,2 C 37,0 km/h (5 Bft)
25.05.2022 13:18 15,6 C 21,1 C 53 % 1018,3 hPa 0,0 l/m 21,7 km/h (4 Bft) SW 227 2 min 6,5 UV-I 1144 W/m 6,1 C 10,1 C 32,2 km/h (5 Bft)
25.05.2022 13:20 15,6 C 20,6 C 53 % 1018,2 hPa 0,0 l/m 18,8 km/h (3 Bft) W-SW 242 2 min 5,6 UV-I 869 W/m 6,1 C 10,8 C 29,0 km/h (5 Bft)
25.05.2022 13:22 15,4 C 20,0 C 53 % 1018,3 hPa 0,0 l/m 21,5 km/h (4 Bft) S-SW 206 2 min 3,5 UV-I 588 W/m 5,9 C 9,9 C 33,8 km/h (5 Bft)
25.05.2022 13:24 15,1 C 19,4 C 55 % 1018,3 hPa 0,0 l/m 25,5 km/h (4 Bft) S-SW 192 2 min 4,6 UV-I 433 W/m 6,1 C 8,6 C 37,0 km/h (5 Bft)
25.05.2022 13:26 14,9 C 17,8 C 56 % 1018,3 hPa 0,0 l/m 22,8 km/h (4 Bft) SW 227 2 min 4,5 UV-I 429 W/m 6,2 C 8,9 C 32,2 km/h (5 Bft)
25.05.2022 13:28 15,1 C 19,4 C 56 % 1018,3 hPa 0,0 l/m 21,9 km/h (4 Bft) S 185 2 min 6,7 UV-I 461 W/m 6,4 C 9,4 C 35,4 km/h (5 Bft)
25.05.2022 13:30 15,2 C 19,4 C 58 % 1018,4 hPa 0,0 l/m 16,7 km/h (3 Bft) S-SW 200 2 min 3,9 UV-I 461 W/m 7,0 C 10,9 C 25,7 km/h (4 Bft)
25.05.2022 13:32 15,3 C 19,4 C 57 % 1018,4 hPa 0,0 l/m 14,0 km/h (3 Bft) S-SW 205 2 min 5,4 UV-I 967 W/m 6,8 C 11,9 C 19,3 km/h (3 Bft)
25.05.2022 13:34 15,4 C 18,9 C 56 % 1018,4 hPa 0,0 l/m 14,9 km/h (3 Bft) S 191 2 min 3,5 UV-I 921 W/m 6,7 C 11,7 C 22,5 km/h (4 Bft)
25.05.2022 13:36 15,1 C 17,2 C 55 % 1018,4 hPa 0,0 l/m 20,0 km/h (4 Bft) W 264 2 min 2,8 UV-I 350 W/m 6,1 C 9,9 C 32,2 km/h (5 Bft)
25.05.2022 13:38 15,0 C 19,4 C 56 % 1018,5 hPa 0,0 l/m 15,9 km/h (3 Bft) SW 231 2 min 5,0 UV-I 548 W/m 6,3 C 10,9 C 25,7 km/h (4 Bft)
25.05.2022 13:40 15,3 C 21,1 C 53 % 1018,4 hPa 0,0 l/m 24,0 km/h (4 Bft) SW 215 2 min 6,8 UV-I 1130 W/m 5,8 C 9,2 C 35,4 km/h (5 Bft)
25.05.2022 13:42 15,6 C 21,1 C 52 % 1018,5 hPa 0,0 l/m 19,6 km/h (3 Bft) S-SW 212 2 min 6,7 UV-I 1048 W/m 5,8 C 10,6 C 30,6 km/h (5 Bft)
25.05.2022 13:44 15,7 C 21,7 C 52 % 1018,5 hPa 0,0 l/m 19,3 km/h (3 Bft) S 185 2 min 6,6 UV-I 1026 W/m 5,9 C 10,8 C 27,4 km/h (4 Bft)
25.05.2022 13:46 15,9 C 21,7 C 52 % 1018,4 hPa 0,0 l/m 17,7 km/h (3 Bft) S-SW 196 2 min 6,6 UV-I 1073 W/m 6,1 C 11,5 C 25,7 km/h (4 Bft)
25.05.2022 13:48 16,2 C 22,2 C 52 % 1018,4 hPa 0,0 l/m 19,7 km/h (3 Bft) S-SW 194 2 min 6,7 UV-I 1126 W/m 6,3 C 11,4 C 25,7 km/h (4 Bft)
25.05.2022 13:50 16,1 C 21,1 C 53 % 1018,4 hPa 0,0 l/m 19,2 km/h (3 Bft) SW 227 2 min 4,9 UV-I 1144 W/m 6,5 C 11,4 C 35,4 km/h (5 Bft)
25.05.2022 13:52 15,8 C 19,4 C 56 % 1018,6 hPa 0,0 l/m 27,1 km/h (4 Bft) S-SW 209 2 min 4,3 UV-I 1144 W/m 7,0 C 9,3 C 40,2 km/h (6 Bft)
25.05.2022 13:54 15,7 C 20,0 C 55 % 1018,5 hPa 0,0 l/m 19,2 km/h (3 Bft) S 189 2 min 4,9 UV-I 621 W/m 6,7 C 10,9 C 27,4 km/h (4 Bft)
25.05.2022 13:56 15,4 C 18,3 C 55 % 1018,5 hPa 0,0 l/m 22,8 km/h (4 Bft) S 173 2 min 3,4 UV-I 432 W/m 6,4 C 9,6 C 32,2 km/h (5 Bft)
25.05.2022 13:58 15,1 C 17,2 C 55 % 1018,5 hPa 0,0 l/m 20,4 km/h (4 Bft) SW 225 2 min 2,7 UV-I 348 W/m 6,1 C 9,8 C 29,0 km/h (5 Bft)
25.05.2022 14:00 14,8 C 16,7 C 56 % 1018,6 hPa 0,0 l/m 16,2 km/h (3 Bft) S-SW 193 0 min 2,3 UV-I 289 W/m 6,1 C 10,6 C 29,0 km/h (5 Bft)
25.05.2022 14:02 14,7 C 16,1 C 56 % 1018,6 hPa 0,0 l/m 18,2 km/h (3 Bft) S-SW 213 0 min 2,2 UV-I 288 W/m 6,0 C 9,8 C 25,7 km/h (4 Bft)
25.05.2022 14:04 14,5 C 15,6 C 55 % 1018,5 hPa 0,0 l/m 21,3 km/h (4 Bft) SW 216 0 min 2,4 UV-I 290 W/m 5,6 C 8,8 C 29,0 km/h (5 Bft)
25.05.2022 14:06 14,4 C 16,1 C 56 % 1018,5 hPa 0,0 l/m 14,9 km/h (3 Bft) SW 231 2 min 4,6 UV-I 345 W/m 5,7 C 10,5 C 24,1 km/h (4 Bft)
25.05.2022 14:08 14,5 C 16,7 C 57 % 1018,6 hPa 0,0 l/m 11,5 km/h (2 Bft) SW 219 0 min 3,0 UV-I 304 W/m 6,1 C 11,9 C 24,1 km/h (4 Bft)
25.05.2022 14:10 14,4 C 16,1 C 56 % 1018,6 hPa 0,0 l/m 15,7 km/h (3 Bft) W-SW 251 0 min 2,9 UV-I 293 W/m 5,7 C 10,2 C 29,0 km/h (5 Bft)
25.05.2022 14:12 14,6 C 17,2 C 58 % 1018,5 hPa 0,0 l/m 11,0 km/h (2 Bft) SW 225 0 min 5,0 UV-I 320 W/m 6,4 C 12,2 C 17,7 km/h (3 Bft)
25.05.2022 14:14 14,8 C 18,3 C 58 % 1018,5 hPa 0,0 l/m 10,1 km/h (2 Bft) SW 223 2 min 5,8 UV-I 425 W/m 6,6 C 12,9 C 19,3 km/h (3 Bft)
25.05.2022 14:16 15,1 C 20,0 C 57 % 1018,4 hPa 0,0 l/m 13,8 km/h (3 Bft) S-SW 205 2 min 6,0 UV-I 712 W/m 6,6 C 11,7 C 27,4 km/h (4 Bft)
25.05.2022 14:18 15,6 C 21,7 C 60 % 1018,4 hPa 0,0 l/m 9,9 km/h (2 Bft) SW 229 2 min 5,0 UV-I 1037 W/m 7,9 C 13,8 C 24,1 km/h (4 Bft)
25.05.2022 14:20 15,5 C 19,4 C 57 % 1018,4 hPa 0,0 l/m 13,1 km/h (3 Bft) S 188 2 min 4,2 UV-I 1037 W/m 7,0 C 12,4 C 19,3 km/h (3 Bft)
25.05.2022 14:22 15,7 C 21,1 C 57 % 1018,4 hPa 0,0 l/m 12,3 km/h (3 Bft) S-SW 211 2 min 6,4 UV-I 1037 W/m 7,2 C 13,0 C 20,9 km/h (4 Bft)
25.05.2022 14:24 15,7 C 20,6 C 56 % 1018,4 hPa 0,0 l/m 14,7 km/h (3 Bft) W 276 2 min 5,1 UV-I 1037 W/m 6,9 C 12,1 C 20,9 km/h (4 Bft)
25.05.2022 14:26 15,4 C 20,0 C 56 % 1018,4 hPa 0,0 l/m 14,9 km/h (3 Bft) S-SW 201 2 min 3,3 UV-I 503 W/m 6,7 C 11,7 C 19,3 km/h (3 Bft)
25.05.2022 14:28 15,3 C 19,4 C 56 % 1018,4 hPa 0,0 l/m 13,1 km/h (3 Bft) SW 224 0 min 4,1 UV-I 302 W/m 6,6 C 12,2 C 19,3 km/h (3 Bft)
25.05.2022 14:30 15,0 C 17,2 C 56 % 1018,4 hPa 0,0 l/m 12,3 km/h (3 Bft) S-SW 213 0 min 2,6 UV-I 205 W/m 6,3 C 12,2 C 17,7 km/h (3 Bft)
25.05.2022 14:32 14,7 C 16,1 C 57 % 1018,4 hPa 0,0 l/m 12,6 km/h (3 Bft) SW 223 0 min 2,4 UV-I 221 W/m 6,3 C 11,7 C 17,7 km/h (3 Bft)
25.05.2022 14:34 14,6 C 16,1 C 58 % 1018,4 hPa 0,0 l/m 10,5 km/h (2 Bft) S-SW 198 0 min 2,6 UV-I 248 W/m 6,4 C 12,4 C 17,7 km/h (3 Bft)
25.05.2022 14:36 14,7 C 18,3 C 59 % 1018,4 hPa 0,0 l/m 10,0 km/h (2 Bft) S 191 2 min 4,7 UV-I 392 W/m 6,8 C 12,8 C 19,3 km/h (3 Bft)
25.05.2022 14:38 15,1 C 18,9 C 59 % 1018,4 hPa 0,0 l/m 10,2 km/h (2 Bft) SW 228 2 min 4,3 UV-I 800 W/m 7,1 C 13,1 C 20,9 km/h (4 Bft)
25.05.2022 14:40 15,2 C 18,3 C 58 % 1018,5 hPa 0,0 l/m 14,1 km/h (3 Bft) S-SW 213 0 min 3,3 UV-I 292 W/m 7,0 C 11,7 C 19,3 km/h (3 Bft)
25.05.2022 14:42 15,1 C 17,8 C 55 % 1018,5 hPa 0,0 l/m 14,6 km/h (3 Bft) SW 223 0 min 4,0 UV-I 225 W/m 6,1 C 11,4 C 22,5 km/h (4 Bft)
25.05.2022 14:44 14,9 C 16,7 C 56 % 1018,4 hPa 0,0 l/m 13,0 km/h (3 Bft) SW 231 0 min 2,4 UV-I 226 W/m 6,2 C 11,8 C 22,5 km/h (4 Bft)
25.05.2022 14:46 14,8 C 16,7 C 56 % 1018,4 hPa 0,0 l/m 13,0 km/h (3 Bft) W-SW 257 0 min 3,4 UV-I 290 W/m 6,1 C 11,7 C 22,5 km/h (4 Bft)
25.05.2022 14:48 14,9 C 16,7 C 57 % 1018,4 hPa 0,0 l/m 12,0 km/h (2 Bft) SW 216 0 min 3,1 UV-I 339 W/m 6,5 C 12,2 C 19,3 km/h (3 Bft)
25.05.2022 14:50 15,2 C 17,8 C 57 % 1018,5 hPa 0,0 l/m 19,6 km/h (3 Bft) SW 235 0 min 4,3 UV-I 330 W/m 6,7 C 10,1 C 33,8 km/h (5 Bft)
25.05.2022 14:52 15,4 C 20,0 C 56 % 1018,6 hPa 0,0 l/m 21,4 km/h (4 Bft) SW 232 2 min 6,0 UV-I 979 W/m 6,7 C 9,9 C 30,6 km/h (5 Bft)
25.05.2022 14:54 15,6 C 21,1 C 56 % 1018,5 hPa 0,0 l/m 14,4 km/h (3 Bft) SW 232 2 min 6,0 UV-I 979 W/m 6,9 C 12,1 C 22,5 km/h (4 Bft)
25.05.2022 14:56 15,8 C 20,6 C 55 % 1018,5 hPa 0,0 l/m 14,7 km/h (3 Bft) S-SW 193 2 min 3,8 UV-I 719 W/m 6,8 C 12,3 C 32,2 km/h (5 Bft)
25.05.2022 14:58 15,4 C 17,8 C 54 % 1018,4 hPa 0,0 l/m 15,8 km/h (3 Bft) W-SW 237 0 min 2,4 UV-I 201 W/m 6,1 C 11,4 C 24,1 km/h (4 Bft)
25.05.2022 15:00 15,1 C 16,7 C 55 % 1018,5 hPa 0,0 l/m 12,4 km/h (3 Bft) S-SW 207 0 min 2,2 UV-I 224 W/m 6,1 C 12,2 C 20,9 km/h (4 Bft)
25.05.2022 15:02 14,9 C 16,7 C 55 % 1018,4 hPa 0,0 l/m 14,2 km/h (3 Bft) S-SW 192 0 min 2,6 UV-I 260 W/m 5,9 C 11,3 C 19,3 km/h (3 Bft)
25.05.2022 15:04 15,3 C 19,4 C 55 % 1018,4 hPa 0,0 l/m 22,7 km/h (4 Bft) S-SW 203 2 min 5,8 UV-I 675 W/m 6,3 C 9,5 C 35,4 km/h (5 Bft)
25.05.2022 15:06 15,4 C 19,4 C 55 % 1018,4 hPa 0,0 l/m 21,0 km/h (4 Bft) W 275 2 min 4,4 UV-I 548 W/m 6,4 C 10,0 C 33,8 km/h (5 Bft)
25.05.2022 15:08 15,5 C 19,4 C 54 % 1018,5 hPa 0,0 l/m 15,8 km/h (3 Bft) S-SW 207 0 min 5,3 UV-I 279 W/m 6,2 C 11,5 C 25,7 km/h (4 Bft)
25.05.2022 15:10 15,3 C 18,3 C 54 % 1018,4 hPa 0,0 l/m 18,3 km/h (3 Bft) S 176 0 min 2,9 UV-I 269 W/m 6,0 C 10,6 C 29,0 km/h (5 Bft)
25.05.2022 15:12 15,1 C 17,2 C 54 % 1018,4 hPa 0,0 l/m 14,5 km/h (3 Bft) SW 215 0 min 3,0 UV-I 289 W/m 5,9 C 11,5 C 20,9 km/h (4 Bft)
25.05.2022 15:14 15,1 C 17,2 C 56 % 1018,4 hPa 0,0 l/m 11,9 km/h (2 Bft) S-SW 205 0 min 3,0 UV-I 286 W/m 6,4 C 12,4 C 17,7 km/h (3 Bft)
25.05.2022 15:16 15,0 C 16,7 C 55 % 1018,4 hPa 0,0 l/m 13,5 km/h (3 Bft) W-SW 238 0 min 2,5 UV-I 257 W/m 6,0 C 11,7 C 19,3 km/h (3 Bft)
25.05.2022 15:18 15,2 C 17,8 C 57 % 1018,4 hPa 0,0 l/m 13,3 km/h (3 Bft) W-SW 254 0 min 3,9 UV-I 280 W/m 6,7 C 12,0 C 22,5 km/h (4 Bft)
25.05.2022 15:20 15,4 C 18,9 C 55 % 1018,5 hPa 0,0 l/m 18,0 km/h (3 Bft) SW 234 0 min 4,3 UV-I 322 W/m 6,4 C 10,8 C 25,7 km/h (4 Bft)
25.05.2022 15:22 15,5 C 18,9 C 56 % 1018,5 hPa 0,0 l/m 13,7 km/h (3 Bft) W 263 2 min 3,6 UV-I 369 W/m 6,8 C 12,2 C 24,1 km/h (4 Bft)
25.05.2022 15:24 15,7 C 19,4 C 56 % 1018,5 hPa 0,0 l/m 13,8 km/h (3 Bft) S-SW 195 2 min 5,8 UV-I 759 W/m 6,9 C 12,4 C 19,3 km/h (3 Bft)
25.05.2022 15:26 15,9 C 21,1 C 57 % 1018,4 hPa 0,0 l/m 12,9 km/h (3 Bft) S-SW 198 2 min 5,7 UV-I 942 W/m 7,4 C 13,0 C 20,9 km/h (4 Bft)
25.05.2022 15:28 16,1 C 21,7 C 55 % 1018,3 hPa 0,0 l/m 16,9 km/h (3 Bft) S-SW 209 2 min 5,5 UV-I 911 W/m 7,1 C 12,0 C 24,1 km/h (4 Bft)
25.05.2022 15:30 16,2 C 22,2 C 55 % 1018,4 hPa 0,0 l/m 15,7 km/h (3 Bft) S-SW 209 2 min 5,5 UV-I 912 W/m 7,2 C 12,4 C 24,1 km/h (4 Bft)
25.05.2022 15:32 16,2 C 22,8 C 53 % 1018,4 hPa 0,0 l/m 17,0 km/h (3 Bft) S-SW 203 2 min 4,5 UV-I 948 W/m 6,6 C 12,1 C 24,1 km/h (4 Bft)
25.05.2022 15:34 15,9 C 19,4 C 54 % 1018,4 hPa 0,0 l/m 18,2 km/h (3 Bft) SW 223 0 min 2,9 UV-I 252 W/m 6,6 C 11,4 C 25,7 km/h (4 Bft)
25.05.2022 15:36 15,8 C 20,0 C 53 % 1018,4 hPa 0,0 l/m 13,2 km/h (3 Bft) SW 220 0 min 3,6 UV-I 322 W/m 6,2 C 12,8 C 24,1 km/h (4 Bft)
25.05.2022 15:38 15,7 C 18,3 C 53 % 1018,4 hPa 0,0 l/m 14,5 km/h (3 Bft) W-SW 250 0 min 2,7 UV-I 277 W/m 6,1 C 12,2 C 24,1 km/h (4 Bft)
25.05.2022 15:40 15,8 C 20,6 C 54 % 1018,4 hPa 0,0 l/m 15,5 km/h (3 Bft) S 187 2 min 5,4 UV-I 390 W/m 6,5 C 12,0 C 29,0 km/h (5 Bft)
25.05.2022 15:42 16,2 C 22,2 C 53 % 1018,4 hPa 0,0 l/m 20,0 km/h (4 Bft) W-SW 252 2 min 5,6 UV-I 961 W/m 6,6 C 11,3 C 35,4 km/h (5 Bft)
25.05.2022 15:44 16,6 C 23,3 C 56 % 1018,4 hPa 0,0 l/m 13,9 km/h (3 Bft) S 188 2 min 5,5 UV-I 915 W/m 7,8 C 13,5 C 27,4 km/h (4 Bft)
25.05.2022 15:46 16,6 C 22,8 C 53 % 1018,4 hPa 0,0 l/m 19,5 km/h (3 Bft) SW 223 2 min 5,4 UV-I 892 W/m 7,0 C 11,9 C 29,0 km/h (5 Bft)
25.05.2022 15:48 16,6 C 22,8 C 54 % 1018,5 hPa 0,0 l/m 16,2 km/h (3 Bft) S-SW 207 2 min 5,3 UV-I 877 W/m 7,3 C 12,8 C 30,6 km/h (5 Bft)
25.05.2022 15:50 16,7 C 22,8 C 54 % 1018,4 hPa 0,0 l/m 15,9 km/h (3 Bft) S-SW 192 2 min 5,3 UV-I 867 W/m 7,3 C 13,0 C 27,4 km/h (4 Bft)
25.05.2022 15:52 16,8 C 23,3 C 54 % 1018,4 hPa 0,0 l/m 14,8 km/h (3 Bft) S-SW 194 2 min 5,3 UV-I 854 W/m 7,4 C 13,4 C 24,1 km/h (4 Bft)
25.05.2022 15:54 16,7 C 23,3 C 53 % 1018,3 hPa 0,0 l/m 22,1 km/h (4 Bft) S-SW 205 2 min 5,1 UV-I 875 W/m 7,1 C 11,5 C 33,8 km/h (5 Bft)
25.05.2022 15:56 16,4 C 20,6 C 52 % 1018,4 hPa 0,0 l/m 25,0 km/h (4 Bft) S 188 2 min 3,3 UV-I 916 W/m 6,5 C 10,5 C 38,6 km/h (5 Bft)
25.05.2022 15:58 15,9 C 18,3 C 52 % 1018,4 hPa 0,0 l/m 17,8 km/h (3 Bft) S 188 2 min 2,5 UV-I 508 W/m 6,1 C 11,5 C 27,4 km/h (4 Bft)
25.05.2022 16:00 15,9 C 19,4 C 55 % 1018,4 hPa 0,0 l/m 13,4 km/h (3 Bft) W-SW 254 0 min 4,5 UV-I 287 W/m 6,9 C 12,8 C 22,5 km/h (4 Bft)
25.05.2022 16:02 16,1 C 20,0 C 54 % 1018,4 hPa 0,0 l/m 14,1 km/h (3 Bft) S-SW 202 0 min 3,3 UV-I 287 W/m 6,8 C 12,8 C 27,4 km/h (4 Bft)
25.05.2022 16:04 16,2 C 20,6 C 54 % 1018,4 hPa 0,0 l/m 17,0 km/h (3 Bft) S-SW 205 0 min 4,0 UV-I 295 W/m 6,9 C 12,1 C 27,4 km/h (4 Bft)
25.05.2022 16:06 16,4 C 21,7 C 52 % 1018,3 hPa 0,0 l/m 23,1 km/h (4 Bft) S-SW 198 2 min 5,0 UV-I 745 W/m 6,5 C 10,9 C 30,6 km/h (5 Bft)
25.05.2022 16:08 16,5 C 22,2 C 54 % 1018,3 hPa 0,0 l/m 17,4 km/h (3 Bft) S 182 2 min 4,9 UV-I 875 W/m 7,2 C 12,3 C 30,6 km/h (5 Bft)
25.05.2022 16:10 16,7 C 22,8 C 52 % 1018,4 hPa 0,0 l/m 18,8 km/h (3 Bft) SW 227 2 min 5,0 UV-I 906 W/m 6,8 C 12,2 C 32,2 km/h (5 Bft)
25.05.2022 16:12 16,6 C 22,2 C 51 % 1018,4 hPa 0,0 l/m 20,3 km/h (4 Bft) S-SW 194 2 min 4,7 UV-I 914 W/m 6,4 C 11,7 C 32,2 km/h (5 Bft)
25.05.2022 16:14 16,6 C 22,2 C 53 % 1018,4 hPa 0,0 l/m 21,8 km/h (4 Bft) SW 221 2 min 4,9 UV-I 914 W/m 7,0 C 11,4 C 30,6 km/h (5 Bft)
25.05.2022 16:16 16,4 C 22,2 C 52 % 1018,4 hPa 0,0 l/m 24,7 km/h (4 Bft) S-SW 209 2 min 3,9 UV-I 904 W/m 6,5 C 10,6 C 35,4 km/h (5 Bft)
25.05.2022 16:18 16,1 C 18,3 C 53 % 1018,5 hPa 0,0 l/m 21,4 km/h (4 Bft) SW 234 2 min 2,0 UV-I 380 W/m 6,5 C 10,8 C 29,0 km/h (5 Bft)
25.05.2022 16:20 15,7 C 17,2 C 54 % 1018,5 hPa 0,0 l/m 19,1 km/h (3 Bft) S-SW 201 0 min 1,9 UV-I 236 W/m 6,4 C 10,9 C 30,6 km/h (5 Bft)
25.05.2022 16:22 15,6 C 17,2 C 55 % 1018,4 hPa 0,0 l/m 14,7 km/h (3 Bft) S-SW 210 0 min 2,2 UV-I 304 W/m 6,6 C 12,0 C 22,5 km/h (4 Bft)
25.05.2022 16:24 15,5 C 16,7 C 56 % 1018,6 hPa 0,0 l/m 17,3 km/h (3 Bft) S-SO 163 0 min 2,1 UV-I 279 W/m 6,8 C 11,1 C 25,7 km/h (4 Bft)
25.05.2022 16:26 15,4 C 16,7 C 55 % 1018,5 hPa 0,0 l/m 18,5 km/h (3 Bft) SW 224 0 min 1,8 UV-I 241 W/m 6,4 C 10,7 C 32,2 km/h (5 Bft)
25.05.2022 16:28 15,4 C 16,1 C 54 % 1018,4 hPa 0,0 l/m 18,6 km/h (3 Bft) S-SW 193 0 min 1,6 UV-I 235 W/m 6,1 C 10,6 C 27,4 km/h (4 Bft)
25.05.2022 16:30 15,3 C 16,1 C 56 % 1018,4 hPa 0,0 l/m 13,1 km/h (3 Bft) S-SW 192 0 min 1,6 UV-I 238 W/m 6,6 C 12,2 C 24,1 km/h (4 Bft)
25.05.2022 16:32 15,3 C 16,7 C 55 % 1018,4 hPa 0,0 l/m 15,9 km/h (3 Bft) S 181 0 min 1,8 UV-I 279 W/m 6,3 C 11,3 C 25,7 km/h (4 Bft)
25.05.2022 16:34 15,4 C 16,7 C 55 % 1018,5 hPa 0,0 l/m 16,6 km/h (3 Bft) S 190 0 min 2,2 UV-I 334 W/m 6,4 C 11,2 C 24,1 km/h (4 Bft)
25.05.2022 16:36 15,4 C 17,2 C 56 % 1018,4 hPa 0,0 l/m 16,3 km/h (3 Bft) S-SW 203 2 min 2,5 UV-I 367 W/m 6,7 C 11,3 C 22,5 km/h (4 Bft)
25.05.2022 16:38 15,6 C 18,3 C 55 % 1018,4 hPa 0,0 l/m 18,6 km/h (3 Bft) S 187 2 min 2,7 UV-I 366 W/m 6,6 C 10,9 C 24,1 km/h (4 Bft)
25.05.2022 16:40 15,7 C 18,9 C 55 % 1018,4 hPa 0,0 l/m 19,4 km/h (3 Bft) S-SW 196 2 min 3,9 UV-I 367 W/m 6,7 C 10,8 C 32,2 km/h (5 Bft)
25.05.2022 16:42 15,8 C 19,4 C 55 % 1018,4 hPa 0,0 l/m 14,3 km/h (3 Bft) S-SW 212 2 min 2,8 UV-I 362 W/m 6,8 C 12,4 C 20,9 km/h (4 Bft)
25.05.2022 16:44 15,8 C 18,3 C 56 % 1018,3 hPa 0,0 l/m 12,0 km/h (2 Bft) S-SW 198 0 min 2,2 UV-I 240 W/m 7,0 C 13,2 C 24,1 km/h (4 Bft)
25.05.2022 16:46 15,7 C 18,3 C 55 % 1018,4 hPa 0,0 l/m 14,0 km/h (3 Bft) W-SW 237 0 min 2,4 UV-I 233 W/m 6,7 C 12,4 C 22,5 km/h (4 Bft)
25.05.2022 16:48 15,8 C 18,3 C 55 % 1018,4 hPa 0,0 l/m 11,5 km/h (2 Bft) S-SW 205 0 min 2,9 UV-I 241 W/m 6,8 C 13,4 C 19,3 km/h (3 Bft)
25.05.2022 16:50 15,8 C 18,3 C 55 % 1018,4 hPa 0,0 l/m 12,2 km/h (2 Bft) S-SW 211 0 min 2,6 UV-I 230 W/m 6,8 C 13,1 C 19,3 km/h (3 Bft)
25.05.2022 16:52 15,9 C 18,9 C 55 % 1018,4 hPa 0,0 l/m 18,4 km/h (3 Bft) S 188 2 min 3,0 UV-I 421 W/m 6,9 C 11,3 C 32,2 km/h (5 Bft)
25.05.2022 16:54 16,3 C 20,6 C 55 % 1018,5 hPa 0,0 l/m 18,1 km/h (3 Bft) S-SW 205 2 min 3,2 UV-I 670 W/m 7,2 C 11,9 C 37,0 km/h (5 Bft)
25.05.2022 16:56 16,3 C 19,4 C 54 % 1018,3 hPa 0,0 l/m 15,3 km/h (3 Bft) SW 223 2 min 2,0 UV-I 387 W/m 7,0 C 12,7 C 20,9 km/h (4 Bft)
25.05.2022 16:58 16,1 C 19,4 C 53 % 1018,5 hPa 0,0 l/m 20,2 km/h (4 Bft) S-SW 196 0 min 3,0 UV-I 188 W/m 6,5 C 11,1 C 30,6 km/h (5 Bft)
25.05.2022 17:00 16,1 C 19,4 C 53 % 1018,5 hPa 0,0 l/m 19,0 km/h (3 Bft) SW 218 0 min 2,7 UV-I 188 W/m 6,5 C 11,4 C 29,0 km/h (5 Bft)
25.05.2022 17:02 16,1 C 20,0 C 53 % 1018,4 hPa 0,0 l/m 23,2 km/h (4 Bft) SW 225 0 min 3,1 UV-I 188 W/m 6,5 C 10,5 C 29,0 km/h (5 Bft)
25.05.2022 17:04 15,9 C 18,3 C 54 % 1018,4 hPa 0,0 l/m 15,9 km/h (3 Bft) S-SW 205 0 min 2,0 UV-I 209 W/m 6,6 C 12,0 C 22,5 km/h (4 Bft)
25.05.2022 17:06 15,7 C 17,2 C 54 % 1018,6 hPa 0,0 l/m 17,5 km/h (3 Bft) SW 223 0 min 1,8 UV-I 196 W/m 6,4 C 11,3 C 24,1 km/h (4 Bft)
25.05.2022 17:08 15,6 C 17,2 C 55 % 1018,6 hPa 0,0 l/m 11,6 km/h (2 Bft) S-SW 204 0 min 1,9 UV-I 202 W/m 6,6 C 13,1 C 14,5 km/h (3 Bft)
25.05.2022 17:10 15,7 C 17,8 C 57 % 1018,5 hPa 0,0 l/m 11,8 km/h (2 Bft) S 177 0 min 2,3 UV-I 202 W/m 7,2 C 13,2 C 22,5 km/h (4 Bft)
25.05.2022 17:12 15,9 C 19,4 C 55 % 1018,5 hPa 0,0 l/m 14,1 km/h (3 Bft) S-SW 197 2 min 2,7 UV-I 628 W/m 6,9 C 12,6 C 24,1 km/h (4 Bft)
25.05.2022 17:14 15,9 C 18,3 C 54 % 1018,6 hPa 0,0 l/m 18,8 km/h (3 Bft) S 184 2 min 1,7 UV-I 389 W/m 6,6 C 11,2 C 29,0 km/h (5 Bft)
25.05.2022 17:16 15,8 C 17,2 C 55 % 1018,6 hPa 0,0 l/m 16,0 km/h (3 Bft) SW 215 0 min 1,7 UV-I 231 W/m 6,8 C 11,9 C 27,4 km/h (4 Bft)
25.05.2022 17:18 15,7 C 17,2 C 54 % 1018,7 hPa 0,0 l/m 19,3 km/h (3 Bft) S-SW 212 0 min 2,4 UV-I 319 W/m 6,4 C 10,8 C 33,8 km/h (5 Bft)
25.05.2022 17:20 15,8 C 18,9 C 54 % 1018,6 hPa 0,0 l/m 18,1 km/h (3 Bft) S-SW 209 2 min 2,7 UV-I 452 W/m 6,5 C 11,3 C 27,4 km/h (4 Bft)
25.05.2022 17:22 15,8 C 17,8 C 54 % 1018,6 hPa 0,0 l/m 18,2 km/h (3 Bft) S 188 2 min 1,8 UV-I 414 W/m 6,5 C 11,2 C 24,1 km/h (4 Bft)
25.05.2022 17:24 15,7 C 16,7 C 54 % 1018,6 hPa 0,0 l/m 16,2 km/h (3 Bft) S-SW 200 0 min 1,5 UV-I 171 W/m 6,4 C 11,7 C 22,5 km/h (4 Bft)
25.05.2022 17:26 15,5 C 16,1 C 55 % 1018,6 hPa 0,0 l/m 15,4 km/h (3 Bft) S-SW 198 0 min 1,4 UV-I 190 W/m 6,5 C 11,7 C 22,5 km/h (4 Bft)
25.05.2022 17:28 15,4 C 16,1 C 55 % 1018,7 hPa 0,0 l/m 17,2 km/h (3 Bft) S-SW 209 0 min 1,3 UV-I 198 W/m 6,4 C 11,0 C 24,1 km/h (4 Bft)
25.05.2022 17:30 15,3 C 16,1 C 56 % 1018,6 hPa 0,0 l/m 13,3 km/h (3 Bft) SW 235 0 min 1,3 UV-I 201 W/m 6,6 C 12,1 C 19,3 km/h (3 Bft)
25.05.2022 17:32 15,6 C 18,3 C 56 % 1018,6 hPa 0,0 l/m 9,2 km/h (2 Bft) SW 221 2 min 2,0 UV-I 392 W/m 6,9 C 14,1 C 14,5 km/h (3 Bft)
25.05.2022 17:34 15,9 C 19,4 C 57 % 1018,6 hPa 0,0 l/m 10,3 km/h (2 Bft) S-SW 196 2 min 2,3 UV-I 535 W/m 7,4 C 14,0 C 16,1 km/h (3 Bft)
25.05.2022 17:36 16,0 C 20,0 C 56 % 1018,8 hPa 0,0 l/m 12,4 km/h (3 Bft) S 185 2 min 1,9 UV-I 553 W/m 7,2 C 13,3 C 22,5 km/h (4 Bft)
25.05.2022 17:38 16,0 C 18,9 C 56 % 1018,8 hPa 0,0 l/m 13,8 km/h (3 Bft) SW 216 0 min 1,6 UV-I 326 W/m 7,2 C 12,8 C 20,9 km/h (4 Bft)
25.05.2022 17:40 15,9 C 17,8 C 54 % 1018,7 hPa 0,0 l/m 14,1 km/h (3 Bft) S-SW 213 0 min 1,7 UV-I 215 W/m 6,6 C 12,6 C 25,7 km/h (4 Bft)
25.05.2022 17:42 15,8 C 17,2 C 54 % 1018,8 hPa 0,0 l/m 20,7 km/h (4 Bft) S-SW 198 0 min 1,4 UV-I 205 W/m 6,5 C 10,6 C 29,0 km/h (5 Bft)
25.05.2022 17:44 15,7 C 16,7 C 54 % 1018,8 hPa 0,0 l/m 16,5 km/h (3 Bft) SW 216 0 min 1,4 UV-I 210 W/m 6,4 C 11,6 C 22,5 km/h (4 Bft)
25.05.2022 17:46 15,6 C 16,1 C 54 % 1018,7 hPa 0,0 l/m 22,3 km/h (4 Bft) S-SW 210 0 min 1,3 UV-I 201 W/m 6,3 C 10,0 C 32,2 km/h (5 Bft)
25.05.2022 17:48 15,5 C 16,1 C 54 % 1018,8 hPa 0,0 l/m 16,5 km/h (3 Bft) S-SW 205 0 min 1,3 UV-I 192 W/m 6,2 C 11,3 C 25,7 km/h (4 Bft)
25.05.2022 17:50 15,4 C 16,1 C 55 % 1018,7 hPa 0,0 l/m 15,9 km/h (3 Bft) S-SW 209 0 min 1,2 UV-I 188 W/m 6,4 C 11,4 C 24,1 km/h (4 Bft)
25.05.2022 17:52 15,3 C 16,1 C 55 % 1018,8 hPa 0,0 l/m 19,3 km/h (3 Bft) S 175 0 min 1,2 UV-I 189 W/m 6,3 C 10,3 C 27,4 km/h (4 Bft)
25.05.2022 17:54 15,3 C 16,1 C 55 % 1018,8 hPa 0,0 l/m 17,2 km/h (3 Bft) S-SW 207 0 min 1,2 UV-I 196 W/m 6,3 C 10,9 C 24,1 km/h (4 Bft)
25.05.2022 17:56 15,3 C 16,1 C 56 % 1018,7 hPa 0,0 l/m 13,7 km/h (3 Bft) SW 225 0 min 1,3 UV-I 219 W/m 6,6 C 12,0 C 19,3 km/h (3 Bft)
25.05.2022 17:58 15,4 C 16,7 C 55 % 1018,8 hPa 0,0 l/m 12,3 km/h (3 Bft) W-SW 243 0 min 1,5 UV-I 276 W/m 6,4 C 12,6 C 20,9 km/h (4 Bft)
25.05.2022 18:00 15,6 C 17,8 C 56 % 1018,8 hPa 0,0 l/m 11,6 km/h (2 Bft) S-SW 209 0 min 1,6 UV-I 305 W/m 6,9 C 13,1 C 24,1 km/h (4 Bft)
25.05.2022 18:02 15,7 C 18,3 C 55 % 1018,8 hPa 0,0 l/m 17,2 km/h (3 Bft) S 190 2 min 1,7 UV-I 382 W/m 6,7 C 11,4 C 27,4 km/h (4 Bft)
25.05.2022 18:04 15,7 C 17,2 C 54 % 1018,9 hPa 0,0 l/m 18,0 km/h (3 Bft) SW 218 0 min 1,4 UV-I 228 W/m 6,4 C 11,2 C 30,6 km/h (5 Bft)
25.05.2022 18:06 15,6 C 16,7 C 54 % 1018,7 hPa 0,0 l/m 13,0 km/h (3 Bft) W-SW 240 0 min 1,3 UV-I 200 W/m 6,3 C 12,6 C 20,9 km/h (4 Bft)
25.05.2022 18:08 15,6 C 17,2 C 55 % 1018,9 hPa 0,0 l/m 13,7 km/h (3 Bft) S 184 0 min 1,6 UV-I 258 W/m 6,6 C 12,3 C 20,9 km/h (4 Bft)
25.05.2022 18:10 15,6 C 17,2 C 54 % 1018,8 hPa 0,0 l/m 15,0 km/h (3 Bft) SW 228 0 min 1,5 UV-I 307 W/m 6,3 C 11,9 C 24,1 km/h (4 Bft)
25.05.2022 18:12 15,6 C 16,7 C 56 % 1018,8 hPa 0,0 l/m 14,7 km/h (3 Bft) S-SW 201 0 min 1,3 UV-I 209 W/m 6,9 C 12,0 C 22,5 km/h (4 Bft)
25.05.2022 18:14 15,6 C 16,1 C 56 % 1018,8 hPa 0,0 l/m 11,6 km/h (2 Bft) S-SW 194 0 min 1,1 UV-I 160 W/m 6,9 C 13,1 C 19,3 km/h (3 Bft)
25.05.2022 18:16 15,4 C 16,1 C 56 % 1018,9 hPa 0,0 l/m 9,2 km/h (2 Bft) SW 227 0 min 1,1 UV-I 134 W/m 6,7 C 13,9 C 17,7 km/h (3 Bft)
25.05.2022 18:18 15,3 C 15,6 C 55 % 1018,9 hPa 0,0 l/m 14,0 km/h (3 Bft) W-SW 257 0 min 0,9 UV-I 132 W/m 6,3 C 11,9 C 22,5 km/h (4 Bft)
25.05.2022 18:20 15,3 C 15,6 C 55 % 1018,8 hPa 0,0 l/m 12,4 km/h (3 Bft) W-SW 257 0 min 0,9 UV-I 149 W/m 6,3 C 12,5 C 19,3 km/h (3 Bft)
25.05.2022 18:22 15,2 C 15,6 C 55 % 1018,8 hPa 0,0 l/m 12,8 km/h (3 Bft) S-SW 202 0 min 0,9 UV-I 164 W/m 6,2 C 12,2 C 17,7 km/h (3 Bft)
25.05.2022 18:24 15,3 C 16,1 C 55 % 1018,8 hPa 0,0 l/m 14,8 km/h (3 Bft) S-SW 207 0 min 1,1 UV-I 249 W/m 6,3 C 11,6 C 19,3 km/h (3 Bft)
25.05.2022 18:26 15,3 C 16,1 C 55 % 1018,8 hPa 0,0 l/m 14,9 km/h (3 Bft) S-SW 196 0 min 1,2 UV-I 252 W/m 6,3 C 11,6 C 20,9 km/h (4 Bft)
25.05.2022 18:28 15,4 C 16,7 C 56 % 1018,8 hPa 0,0 l/m 14,1 km/h (3 Bft) SW 219 0 min 1,2 UV-I 236 W/m 6,7 C 12,0 C 20,9 km/h (4 Bft)
25.05.2022 18:30 15,4 C 16,1 C 55 % 1018,9 hPa 0,0 l/m 17,2 km/h (3 Bft) W-SW 240 0 min 1,3 UV-I 227 W/m 6,4 C 11,0 C 32,2 km/h (5 Bft)
25.05.2022 18:32 15,4 C 16,1 C 55 % 1018,9 hPa 0,0 l/m 15,1 km/h (3 Bft) S-SW 213 0 min 1,3 UV-I 232 W/m 6,4 C 11,6 C 29,0 km/h (5 Bft)
25.05.2022 18:34 15,4 C 16,1 C 55 % 1018,9 hPa 0,0 l/m 16,3 km/h (3 Bft) S 184 0 min 1,3 UV-I 228 W/m 6,4 C 11,3 C 27,4 km/h (4 Bft)
25.05.2022 18:36 15,4 C 16,1 C 56 % 1019,0 hPa 0,0 l/m 11,2 km/h (2 Bft) SW 229 0 min 1,2 UV-I 213 W/m 6,7 C 13,0 C 22,5 km/h (4 Bft)
25.05.2022 18:38 15,3 C 16,1 C 56 % 1018,9 hPa 0,0 l/m 14,7 km/h (3 Bft) SW 223 0 min 1,1 UV-I 190 W/m 6,6 C 11,7 C 25,7 km/h (4 Bft)
25.05.2022 18:40 15,3 C 16,1 C 56 % 1019,0 hPa 0,0 l/m 12,0 km/h (2 Bft) SW 220 0 min 1,0 UV-I 169 W/m 6,6 C 12,6 C 17,7 km/h (3 Bft)
25.05.2022 18:42 15,3 C 15,6 C 56 % 1018,9 hPa 0,0 l/m 16,0 km/h (3 Bft) S-SW 211 0 min 0,9 UV-I 159 W/m 6,6 C 11,2 C 22,5 km/h (4 Bft)
25.05.2022 18:44 15,2 C 15,6 C 56 % 1018,9 hPa 0,0 l/m 14,0 km/h (3 Bft) SW 232 0 min 0,8 UV-I 151 W/m 6,5 C 11,8 C 20,9 km/h (4 Bft)
25.05.2022 18:46 15,2 C 15,6 C 56 % 1018,9 hPa 0,0 l/m 13,4 km/h (3 Bft) S-SW 213 0 min 0,8 UV-I 148 W/m 6,5 C 12,0 C 22,5 km/h (4 Bft)
25.05.2022 18:48 15,1 C 15,6 C 56 % 1018,8 hPa 0,0 l/m 16,4 km/h (3 Bft) S 189 0 min 0,8 UV-I 151 W/m 6,4 C 10,9 C 24,1 km/h (4 Bft)
25.05.2022 18:50 15,1 C 15,6 C 56 % 1018,8 hPa 0,0 l/m 15,8 km/h (3 Bft) S-SW 205 0 min 0,8 UV-I 165 W/m 6,4 C 11,1 C 22,5 km/h (4 Bft)
25.05.2022 18:52 15,1 C 15,6 C 58 % 1018,9 hPa 0,0 l/m 11,4 km/h (2 Bft) S-SW 193 0 min 0,9 UV-I 176 W/m 6,9 C 12,6 C 17,7 km/h (3 Bft)
25.05.2022 18:54 15,1 C 15,6 C 57 % 1018,8 hPa 0,0 l/m 15,9 km/h (3 Bft) S-SW 207 0 min 0,9 UV-I 183 W/m 6,6 C 11,0 C 24,1 km/h (4 Bft)
25.05.2022 18:56 15,1 C 15,6 C 57 % 1018,8 hPa 0,0 l/m 11,5 km/h (2 Bft) SW 223 0 min 0,9 UV-I 187 W/m 6,6 C 12,6 C 19,3 km/h (3 Bft)
25.05.2022 18:58 15,1 C 15,6 C 58 % 1018,9 hPa 0,0 l/m 8,7 km/h (2 Bft) S-SW 209 0 min 0,9 UV-I 173 W/m 6,9 C 13,8 C 14,5 km/h (3 Bft)
25.05.2022 19:00 15,2 C 15,6 C 58 % 1018,8 hPa 0,0 l/m 10,9 km/h (2 Bft) SW 231 0 min 0,7 UV-I 148 W/m 7,0 C 12,9 C 16,1 km/h (3 Bft)
25.05.2022 19:02 15,2 C 15,6 C 57 % 1018,9 hPa 0,0 l/m 13,1 km/h (3 Bft) S-SW 196 0 min 0,7 UV-I 130 W/m 6,7 C 12,1 C 20,9 km/h (4 Bft)
25.05.2022 19:04 15,1 C 15,6 C 58 % 1018,9 hPa 0,0 l/m 9,7 km/h (2 Bft) W-SW 246 0 min 0,6 UV-I 118 W/m 6,9 C 13,4 C 16,1 km/h (3 Bft)
25.05.2022 19:06 15,1 C 15,0 C 59 % 1018,9 hPa 0,0 l/m 12,5 km/h (3 Bft) S-SW 204 0 min 0,5 UV-I 105 W/m 7,1 C 12,2 C 20,9 km/h (4 Bft)
25.05.2022 19:08 15,1 C 15,0 C 58 % 1018,8 hPa 0,0 l/m 10,3 km/h (2 Bft) SW 224 0 min 0,3 UV-I 97 W/m 6,9 C 13,1 C 17,7 km/h (3 Bft)
25.05.2022 19:10 15,0 C 15,0 C 59 % 1019,0 hPa 0,0 l/m 9,7 km/h (2 Bft) W 271 0 min 0,5 UV-I 108 W/m 7,1 C 13,3 C 17,7 km/h (3 Bft)
25.05.2022 19:12 14,9 C 15,0 C 58 % 1019,0 hPa 0,0 l/m 10,8 km/h (2 Bft) W-SW 240 0 min 0,6 UV-I 122 W/m 6,7 C 12,7 C 19,3 km/h (3 Bft)
25.05.2022 19:14 14,9 C 15,0 C 59 % 1019,0 hPa 0,0 l/m 12,2 km/h (2 Bft) SW 225 0 min 0,6 UV-I 127 W/m 7,0 C 12,1 C 17,7 km/h (3 Bft)
25.05.2022 19:16 14,9 C 15,0 C 58 % 1019,0 hPa 0,0 l/m 14,3 km/h (3 Bft) S-SW 211 0 min 0,6 UV-I 122 W/m 6,7 C 11,3 C 20,9 km/h (4 Bft)
25.05.2022 19:18 14,9 C 15,0 C 59 % 1019,0 hPa 0,0 l/m 8,0 km/h (2 Bft) SW 234 0 min 0,5 UV-I 113 W/m 7,0 C 14,0 C 16,1 km/h (3 Bft)
25.05.2022 19:20 14,9 C 15,0 C 59 % 1019,1 hPa 0,0 l/m 10,4 km/h (2 Bft) W-SW 242 0 min 0,5 UV-I 111 W/m 7,0 C 12,8 C 19,3 km/h (3 Bft)
25.05.2022 19:22 14,9 C 15,0 C 59 % 1019,0 hPa 0,0 l/m 12,6 km/h (3 Bft) W-SW 238 0 min 0,5 UV-I 115 W/m 7,0 C 11,9 C 25,7 km/h (4 Bft)
25.05.2022 19:24 14,8 C 15,0 C 59 % 1019,1 hPa 0,0 l/m 12,3 km/h (3 Bft) SW 227 0 min 0,5 UV-I 120 W/m 6,9 C 11,9 C 19,3 km/h (3 Bft)
25.05.2022 19:26 14,8 C 15,0 C 59 % 1019,1 hPa 0,0 l/m 11,5 km/h (2 Bft) W-SW 248 0 min 0,5 UV-I 122 W/m 6,9 C 12,2 C 17,7 km/h (3 Bft)
25.05.2022 19:28 14,8 C 15,0 C 59 % 1019,1 hPa 0,0 l/m 9,3 km/h (2 Bft) W-SW 250 0 min 0,5 UV-I 119 W/m 6,9 C 13,2 C 16,1 km/h (3 Bft)
25.05.2022 19:30 14,8 C 15,0 C 60 % 1019,1 hPa 0,0 l/m 8,2 km/h (2 Bft) SW 229 0 min 0,5 UV-I 117 W/m 7,1 C 13,8 C 12,9 km/h (3 Bft)
25.05.2022 19:32 14,8 C 15,0 C 60 % 1019,1 hPa 0,0 l/m 8,0 km/h (2 Bft) SW 234 0 min 0,5 UV-I 126 W/m 7,1 C 13,9 C 14,5 km/h (3 Bft)
25.05.2022 19:34 14,8 C 15,0 C 59 % 1019,2 hPa 0,0 l/m 9,5 km/h (2 Bft) W-SW 240 0 min 0,5 UV-I 134 W/m 6,9 C 13,1 C 12,9 km/h (3 Bft)
25.05.2022 19:36 14,8 C 15,0 C 59 % 1019,1 hPa 0,0 l/m 9,8 km/h (2 Bft) SW 227 0 min 0,5 UV-I 127 W/m 6,9 C 13,0 C 16,1 km/h (3 Bft)
25.05.2022 19:38 14,8 C 15,0 C 60 % 1019,3 hPa 0,0 l/m 11,7 km/h (2 Bft) SW 232 0 min 0,5 UV-I 118 W/m 7,1 C 12,2 C 25,7 km/h (4 Bft)
25.05.2022 19:40 14,7 C 15,0 C 60 % 1019,3 hPa 0,0 l/m 14,0 km/h (3 Bft) S 178 0 min 0,5 UV-I 117 W/m 7,0 C 11,2 C 20,9 km/h (4 Bft)
25.05.2022 19:42 14,7 C 15,0 C 60 % 1019,2 hPa 0,0 l/m 12,3 km/h (3 Bft) SW 219 0 min 0,5 UV-I 118 W/m 7,0 C 11,8 C 19,3 km/h (3 Bft)
25.05.2022 19:44 14,7 C 15,0 C 60 % 1019,2 hPa 0,0 l/m 12,0 km/h (2 Bft) W-SW 253 0 min 0,5 UV-I 128 W/m 7,0 C 11,9 C 17,7 km/h (3 Bft)
25.05.2022 19:46 14,6 C 15,0 C 59 % 1019,2 hPa 0,0 l/m 14,8 km/h (3 Bft) S-SW 200 0 min 0,5 UV-I 132 W/m 6,7 C 10,8 C 22,5 km/h (4 Bft)
25.05.2022 19:48 14,6 C 15,0 C 60 % 1019,2 hPa 0,0 l/m 9,1 km/h (2 Bft) S-SW 209 0 min 0,5 UV-I 121 W/m 6,9 C 13,1 C 19,3 km/h (3 Bft)
25.05.2022 19:50 14,6 C 15,0 C 60 % 1019,2 hPa 0,0 l/m 6,1 km/h (2 Bft) W-SW 248 0 min 0,5 UV-I 112 W/m 6,9 C 14,6 C 11,3 km/h (2 Bft)
25.05.2022 19:52 14,6 C 15,0 C 60 % 1019,3 hPa 0,0 l/m 7,7 km/h (2 Bft) W-SW 240 0 min 0,2 UV-I 107 W/m 6,9 C 13,8 C 14,5 km/h (3 Bft)
25.05.2022 19:54 14,6 C 15,0 C 61 % 1019,3 hPa 0,0 l/m 7,1 km/h (2 Bft) SW 225 0 min 0,0 UV-I 101 W/m 7,2 C 14,2 C 16,1 km/h (3 Bft)
25.05.2022 19:56 14,5 C 14,4 C 60 % 1019,3 hPa 0,0 l/m 9,6 km/h (2 Bft) SW 232 0 min 0,0 UV-I 94 W/m 6,8 C 12,8 C 16,1 km/h (3 Bft)
25.05.2022 19:58 14,4 C 14,4 C 60 % 1019,3 hPa 0,0 l/m 9,4 km/h (2 Bft) W-SW 254 0 min 0,0 UV-I 90 W/m 6,7 C 12,7 C 19,3 km/h (3 Bft)
25.05.2022 20:00 14,4 C 14,4 C 60 % 1019,4 hPa 0,0 l/m 10,1 km/h (2 Bft) W-SW 237 0 min 0,0 UV-I 91 W/m 6,7 C 12,4 C 19,3 km/h (3 Bft)
25.05.2022 20:02 14,4 C 14,4 C 60 % 1019,4 hPa 0,0 l/m 10,4 km/h (2 Bft) SW 229 0 min 0,0 UV-I 94 W/m 6,7 C 12,3 C 19,3 km/h (3 Bft)
25.05.2022 20:04 14,3 C 14,4 C 60 % 1019,4 hPa 0,0 l/m 7,1 km/h (2 Bft) SW 214 0 min 0,0 UV-I 90 W/m 6,6 C 13,9 C 16,1 km/h (3 Bft)
25.05.2022 20:06 14,3 C 14,4 C 60 % 1019,4 hPa 0,0 l/m 10,7 km/h (2 Bft) SW 226 0 min 0,0 UV-I 83 W/m 6,6 C 12,0 C 19,3 km/h (3 Bft)
25.05.2022 20:08 14,3 C 13,9 C 60 % 1019,5 hPa 0,0 l/m 11,1 km/h (2 Bft) S-SW 198 0 min 0,0 UV-I 77 W/m 6,6 C 11,8 C 22,5 km/h (4 Bft)
25.05.2022 20:10 14,2 C 13,9 C 60 % 1019,5 hPa 0,0 l/m 7,9 km/h (2 Bft) SW 217 0 min 0,0 UV-I 72 W/m 6,5 C 13,3 C 11,3 km/h (2 Bft)
25.05.2022 20:12 14,2 C 13,9 C 61 % 1019,7 hPa 0,0 l/m 11,1 km/h (2 Bft) SW 221 0 min 0,0 UV-I 67 W/m 6,8 C 11,7 C 19,3 km/h (3 Bft)
25.05.2022 20:14 14,2 C 13,9 C 61 % 1019,6 hPa 0,0 l/m 8,4 km/h (2 Bft) SW 219 0 min 0,0 UV-I 63 W/m 6,8 C 13,0 C 12,9 km/h (3 Bft)
25.05.2022 20:16 14,2 C 13,9 C 61 % 1019,5 hPa 0,0 l/m 9,2 km/h (2 Bft) SW 233 0 min 0,0 UV-I 57 W/m 6,8 C 12,6 C 16,1 km/h (3 Bft)
25.05.2022 20:18 14,1 C 13,9 C 61 % 1019,5 hPa 0,0 l/m 8,3 km/h (2 Bft) S 190 0 min 0,0 UV-I 55 W/m 6,7 C 13,0 C 16,1 km/h (3 Bft)
25.05.2022 20:20 14,1 C 13,9 C 61 % 1019,7 hPa 0,0 l/m 9,6 km/h (2 Bft) SW 223 0 min 0,0 UV-I 52 W/m 6,7 C 12,3 C 19,3 km/h (3 Bft)
25.05.2022 20:22 14,1 C 13,9 C 61 % 1019,6 hPa 0,0 l/m 10,1 km/h (2 Bft) SW 215 0 min 0,0 UV-I 49 W/m 6,7 C 12,1 C 17,7 km/h (3 Bft)
25.05.2022 20:24 14,0 C 13,3 C 62 % 1019,6 hPa 0,0 l/m 8,0 km/h (2 Bft) SW 217 0 min 0,0 UV-I 48 W/m 6,8 C 13,1 C 12,9 km/h (3 Bft)
25.05.2022 20:26 14,0 C 13,3 C 61 % 1019,7 hPa 0,0 l/m 7,8 km/h (2 Bft) S 186 0 min 0,0 UV-I 47 W/m 6,6 C 13,2 C 12,9 km/h (3 Bft)
25.05.2022 20:28 13,9 C 13,3 C 61 % 1019,6 hPa 0,0 l/m 9,7 km/h (2 Bft) SW 219 0 min 0,0 UV-I 46 W/m 6,5 C 12,0 C 19,3 km/h (3 Bft)
25.05.2022 20:30 13,9 C 13,3 C 62 % 1019,6 hPa 0,0 l/m 7,3 km/h (2 Bft) S-SW 208 0 min 0,0 UV-I 45 W/m 6,7 C 13,4 C 11,3 km/h (2 Bft)
25.05.2022 20:32 13,9 C 13,3 C 62 % 1019,6 hPa 0,0 l/m 8,7 km/h (2 Bft) S-SW 198 0 min 0,0 UV-I 36 W/m 6,7 C 12,6 C 12,9 km/h (3 Bft)
25.05.2022 20:34 13,9 C 13,3 C 62 % 1019,6 hPa 0,0 l/m 7,2 km/h (2 Bft) SW 219 0 min 0,0 UV-I 24 W/m 6,7 C 13,4 C 11,3 km/h (2 Bft)
25.05.2022 20:36 13,9 C 13,3 C 62 % 1019,7 hPa 0,0 l/m 7,1 km/h (2 Bft) S 186 0 min 0,0 UV-I 19 W/m 6,7 C 13,5 C 16,1 km/h (3 Bft)
25.05.2022 20:38 13,8 C 13,3 C 62 % 1019,6 hPa 0,0 l/m 9,3 km/h (2 Bft) SW 224 0 min 0,0 UV-I 18 W/m 6,6 C 12,1 C 19,3 km/h (3 Bft)
25.05.2022 20:40 13,8 C 13,3 C 62 % 1019,6 hPa 0,0 l/m 6,4 km/h (2 Bft) SW 223 0 min 0,0 UV-I 20 W/m 6,6 C 13,8 C 9,7 km/h (2 Bft)
25.05.2022 20:42 13,8 C 13,3 C 63 % 1019,7 hPa 0,0 l/m 4,8 km/h (1 Bft) SW 220 0 min 0,0 UV-I 22 W/m 6,9 C 13,8 C 8,0 km/h (2 Bft)
25.05.2022 20:44 13,8 C 13,3 C 63 % 1019,7 hPa 0,0 l/m 4,6 km/h (1 Bft) SW 223 0 min 0,0 UV-I 25 W/m 6,9 C 13,8 C 8,0 km/h (2 Bft)
25.05.2022 20:46 13,7 C 13,3 C 63 % 1019,7 hPa 0,0 l/m 6,0 km/h (2 Bft) W-NW 282 0 min 0,0 UV-I 21 W/m 6,8 C 13,7 C 11,3 km/h (2 Bft)
25.05.2022 20:48 13,7 C 13,3 C 63 % 1019,8 hPa 0,0 l/m 6,3 km/h (2 Bft) SW 225 0 min 0,0 UV-I 19 W/m 6,8 C 13,7 C 11,3 km/h (2 Bft)
25.05.2022 20:50 13,7 C 13,3 C 63 % 1019,6 hPa 0,0 l/m 7,2 km/h (2 Bft) SW 232 0 min 0,0 UV-I 19 W/m 6,8 C 13,2 C 16,1 km/h (3 Bft)
25.05.2022 20:52 13,7 C 12,8 C 63 % 1019,7 hPa 0,0 l/m 10,3 km/h (2 Bft) S-SW 196 0 min 0,0 UV-I 19 W/m 6,8 C 11,5 C 17,7 km/h (3 Bft)
25.05.2022 20:54 13,7 C 12,8 C 63 % 1019,7 hPa 0,0 l/m 8,7 km/h (2 Bft) SW 234 0 min 0,0 UV-I 18 W/m 6,8 C 12,3 C 16,1 km/h (3 Bft)
25.05.2022 20:56 13,7 C 12,8 C 63 % 1019,8 hPa 0,0 l/m 5,3 km/h (1 Bft) SW 217 0 min 0,0 UV-I 19 W/m 6,8 C 13,7 C 9,7 km/h (2 Bft)
25.05.2022 20:58 13,6 C 12,8 C 63 % 1019,8 hPa 0,0 l/m 7,3 km/h (2 Bft) SW 217 0 min 0,0 UV-I 18 W/m 6,7 C 13,0 C 12,9 km/h (3 Bft)
25.05.2022 21:00 13,6 C 12,8 C 63 % 1019,8 hPa 0,0 l/m 10,5 km/h (2 Bft) SW 217 0 min 0,0 UV-I 17 W/m 6,7 C 11,3 C 16,1 km/h (3 Bft)
25.05.2022 21:02 13,6 C 12,8 C 63 % 1019,8 hPa 0,0 l/m 6,8 km/h (2 Bft) SW 227 0 min 0,0 UV-I 15 W/m 6,7 C 13,4 C 14,5 km/h (3 Bft)
25.05.2022 21:04 13,6 C 12,8 C 63 % 1019,8 hPa 0,0 l/m 9,0 km/h (2 Bft) SW 215 0 min 0,0 UV-I 14 W/m 6,7 C 12,1 C 16,1 km/h (3 Bft)
25.05.2022 21:06 13,6 C 12,8 C 63 % 1019,8 hPa 0,0 l/m 9,0 km/h (2 Bft) W-SW 254 0 min 0,0 UV-I 12 W/m 6,7 C 12,1 C 12,9 km/h (3 Bft)
25.05.2022 21:08 13,6 C 12,8 C 63 % 1019,8 hPa 0,0 l/m 8,8 km/h (2 Bft) S 191 0 min 0,0 UV-I 12 W/m 6,7 C 12,2 C 17,7 km/h (3 Bft)
25.05.2022 21:10 13,5 C 12,8 C 63 % 1019,8 hPa 0,0 l/m 9,6 km/h (2 Bft) W-SW 244 0 min 0,0 UV-I 11 W/m 6,6 C 11,7 C 17,7 km/h (3 Bft)
25.05.2022 21:12 13,5 C 12,8 C 63 % 1019,9 hPa 0,0 l/m 8,4 km/h (2 Bft) S-SW 208 0 min 0,0 UV-I 10 W/m 6,6 C 12,3 C 16,1 km/h (3 Bft)
25.05.2022 21:14 13,5 C 12,8 C 63 % 1019,8 hPa 0,0 l/m 10,1 km/h (2 Bft) S-SW 202 0 min 0,0 UV-I 7 W/m 6,6 C 11,4 C 16,1 km/h (3 Bft)
25.05.2022 21:16 13,4 C 12,8 C 64 % 1019,9 hPa 0,0 l/m 9,1 km/h (2 Bft) W-SW 243 0 min 0,0 UV-I 6 W/m 6,7 C 11,8 C 17,7 km/h (3 Bft)
25.05.2022 21:18 13,4 C 12,8 C 64 % 1019,9 hPa 0,0 l/m 12,2 km/h (2 Bft) SW 216 0 min 0,0 UV-I 5 W/m 6,7 C 10,3 C 22,5 km/h (4 Bft)
25.05.2022 21:20 13,4 C 12,8 C 64 % 1020,0 hPa 0,0 l/m 10,5 km/h (2 Bft) SW 229 0 min 0,0 UV-I 5 W/m 6,7 C 11,1 C 17,7 km/h (3 Bft)
25.05.2022 21:22 13,4 C 12,8 C 64 % 1020,0 hPa 0,0 l/m 9,3 km/h (2 Bft) SW 224 0 min 0,0 UV-I 5 W/m 6,7 C 11,7 C 17,7 km/h (3 Bft)
25.05.2022 21:24 13,3 C 12,8 C 64 % 1020,0 hPa 0,0 l/m 7,9 km/h (2 Bft) S-SW 204 0 min 0,0 UV-I 5 W/m 6,6 C 12,4 C 14,5 km/h (3 Bft)
25.05.2022 21:26 13,3 C 12,8 C 64 % 1020,0 hPa 0,0 l/m 10,7 km/h (2 Bft) S 187 0 min 0,0 UV-I 0 W/m 6,6 C 10,9 C 14,5 km/h (3 Bft)
25.05.2022 21:28 13,3 C 12,8 C 65 % 1019,9 hPa 0,0 l/m 9,1 km/h (2 Bft) SW 232 0 min 0,0 UV-I 0 W/m 6,9 C 11,7 C 12,9 km/h (3 Bft)
25.05.2022 21:30 13,3 C 12,2 C 65 % 1020,0 hPa 0,0 l/m 9,5 km/h (2 Bft) S-SW 213 0 min 0,0 UV-I 0 W/m 6,9 C 11,5 C 14,5 km/h (3 Bft)
25.05.2022 21:32 13,2 C 12,2 C 65 % 1020,0 hPa 0,0 l/m 13,0 km/h (3 Bft) SW 234 0 min 0,0 UV-I 0 W/m 6,8 C 9,8 C 22,5 km/h (4 Bft)
25.05.2022 21:34 13,2 C 12,2 C 65 % 1020,1 hPa 0,0 l/m 9,7 km/h (2 Bft) S 171 0 min 0,0 UV-I 0 W/m 6,8 C 11,3 C 16,1 km/h (3 Bft)
25.05.2022 21:36 13,2 C 12,2 C 65 % 1020,1 hPa 0,0 l/m 7,9 km/h (2 Bft) S-SW 209 0 min 0,0 UV-I 0 W/m 6,8 C 12,3 C 14,5 km/h (3 Bft)
25.05.2022 21:38 13,2 C 12,2 C 66 % 1020,0 hPa 0,0 l/m 8,3 km/h (2 Bft) SW 216 0 min 0,0 UV-I 0 W/m 7,0 C 12,0 C 11,3 km/h (2 Bft)
25.05.2022 21:40 13,2 C 12,2 C 66 % 1020,1 hPa 0,0 l/m 6,2 km/h (2 Bft) S-SW 195 0 min 0,0 UV-I 0 W/m 7,0 C 13,2 C 9,7 km/h (2 Bft)
25.05.2022 21:42 13,1 C 12,2 C 66 % 1020,2 hPa 0,0 l/m 7,4 km/h (2 Bft) S 191 0 min 0,0 UV-I 0 W/m 6,9 C 12,5 C 12,9 km/h (3 Bft)
25.05.2022 21:44 13,1 C 12,2 C 66 % 1020,1 hPa 0,0 l/m 7,3 km/h (2 Bft) S 176 0 min 0,0 UV-I 0 W/m 6,9 C 12,5 C 11,3 km/h (2 Bft)
25.05.2022 21:46 13,1 C 12,2 C 66 % 1020,1 hPa 0,0 l/m 7,9 km/h (2 Bft) S 180 0 min 0,0 UV-I 0 W/m 6,9 C 12,2 C 12,9 km/h (3 Bft)
25.05.2022 21:48 13,1 C 12,2 C 66 % 1020,1 hPa 0,0 l/m 5,6 km/h (1 Bft) S 188 0 min 0,0 UV-I 0 W/m 6,9 C 13,1 C 8,0 km/h (2 Bft)
25.05.2022 21:50 13,0 C 12,2 C 66 % 1020,1 hPa 0,0 l/m 7,4 km/h (2 Bft) S 181 0 min 0,0 UV-I 0 W/m 6,8 C 12,4 C 12,9 km/h (3 Bft)
25.05.2022 21:52 13,0 C 12,2 C 67 % 1020,2 hPa 0,0 l/m 5,8 km/h (2 Bft) S-SW 194 0 min 0,0 UV-I 0 W/m 7,0 C 13,0 C 14,5 km/h (3 Bft)
25.05.2022 21:54 13,0 C 12,2 C 66 % 1020,3 hPa 0,0 l/m 8,0 km/h (2 Bft) S-SW 208 0 min 0,0 UV-I 0 W/m 6,8 C 12,0 C 16,1 km/h (3 Bft)
25.05.2022 21:56 12,9 C 12,2 C 67 % 1020,3 hPa 0,0 l/m 6,7 km/h (2 Bft) S 184 0 min 0,0 UV-I 0 W/m 6,9 C 12,7 C 9,7 km/h (2 Bft)
25.05.2022 21:58 12,9 C 12,2 C 67 % 1020,4 hPa 0,0 l/m 8,8 km/h (2 Bft) S-SO 166 0 min 0,0 UV-I 0 W/m 6,9 C 11,4 C 12,9 km/h (3 Bft)
25.05.2022 22:00 12,9 C 12,2 C 67 % 1020,4 hPa 0,0 l/m 6,8 km/h (2 Bft) S 172 0 min 0,0 UV-I 0 W/m 6,9 C 12,7 C 11,3 km/h (2 Bft)
25.05.2022 22:02 12,9 C 12,2 C 67 % 1020,4 hPa 0,0 l/m 6,6 km/h (2 Bft) S-SW 210 0 min 0,0 UV-I 0 W/m 6,9 C 12,8 C 9,7 km/h (2 Bft)
25.05.2022 22:04 12,9 C 12,2 C 67 % 1020,4 hPa 0,0 l/m 9,1 km/h (2 Bft) S 188 0 min 0,0 UV-I 0 W/m 6,9 C 11,3 C 19,3 km/h (3 Bft)
25.05.2022 22:06 12,9 C 12,2 C 67 % 1020,4 hPa 0,0 l/m 8,7 km/h (2 Bft) S 190 0 min 0,0 UV-I 0 W/m 6,9 C 11,5 C 14,5 km/h (3 Bft)
25.05.2022 22:08 12,9 C 12,2 C 67 % 1020,5 hPa 0,0 l/m 7,1 km/h (2 Bft) S 191 0 min 0,0 UV-I 0 W/m 6,9 C 12,5 C 11,3 km/h (2 Bft)
25.05.2022 22:10 12,9 C 12,2 C 68 % 1020,5 hPa 0,0 l/m 8,2 km/h (2 Bft) S 176 0 min 0,0 UV-I 0 W/m 7,1 C 11,8 C 14,5 km/h (3 Bft)
25.05.2022 22:12 12,9 C 12,2 C 67 % 1020,5 hPa 0,0 l/m 8,1 km/h (2 Bft) S 180 0 min 0,0 UV-I 0 W/m 6,9 C 11,8 C 12,9 km/h (3 Bft)
25.05.2022 22:14 12,8 C 12,2 C 67 % 1020,5 hPa 0,0 l/m 7,4 km/h (2 Bft) S-SW 198 0 min 0,0 UV-I 0 W/m 6,8 C 12,2 C 11,3 km/h (2 Bft)
25.05.2022 22:16 12,8 C 12,2 C 67 % 1020,6 hPa 0,0 l/m 8,3 km/h (2 Bft) S 190 0 min 0,0 UV-I 0 W/m 6,8 C 11,6 C 11,3 km/h (2 Bft)
25.05.2022 22:18 12,8 C 12,2 C 67 % 1020,5 hPa 0,0 l/m 6,8 km/h (2 Bft) S-SW 192 0 min 0,0 UV-I 0 W/m 6,8 C 12,6 C 9,7 km/h (2 Bft)
25.05.2022 22:20 12,8 C 12,2 C 67 % 1020,6 hPa 0,0 l/m 7,4 km/h (2 Bft) S 172 0 min 0,0 UV-I 0 W/m 6,8 C 12,2 C 11,3 km/h (2 Bft)
25.05.2022 22:22 12,8 C 12,2 C 67 % 1020,7 hPa 0,0 l/m 7,9 km/h (2 Bft) S 178 0 min 0,0 UV-I 0 W/m 6,8 C 11,9 C 12,9 km/h (3 Bft)
25.05.2022 22:24 12,8 C 12,2 C 67 % 1020,6 hPa 0,0 l/m 9,2 km/h (2 Bft) S 179 0 min 0,0 UV-I 0 W/m 6,8 C 11,1 C 14,5 km/h (3 Bft)
25.05.2022 22:26 12,8 C 12,2 C 67 % 1020,6 hPa 0,0 l/m 7,0 km/h (2 Bft) S 182 0 min 0,0 UV-I 0 W/m 6,8 C 12,4 C 12,9 km/h (3 Bft)
25.05.2022 22:28 12,8 C 12,2 C 67 % 1020,5 hPa 0,0 l/m 8,0 km/h (2 Bft) S 173 0 min 0,0 UV-I 0 W/m 6,8 C 11,8 C 14,5 km/h (3 Bft)
25.05.2022 22:30 12,8 C 11,7 C 68 % 1020,5 hPa 0,0 l/m 7,9 km/h (2 Bft) S 181 0 min 0,0 UV-I 0 W/m 7,0 C 11,9 C 14,5 km/h (3 Bft)
25.05.2022 22:32 12,8 C 11,7 C 68 % 1020,6 hPa 0,0 l/m 7,8 km/h (2 Bft) S 186 0 min 0,0 UV-I 0 W/m 7,0 C 11,9 C 14,5 km/h (3 Bft)
25.05.2022 22:34 12,8 C 11,7 C 68 % 1020,6 hPa 0,0 l/m 5,9 km/h (2 Bft) S-SW 210 0 min 0,0 UV-I 0 W/m 7,0 C 12,8 C 9,7 km/h (2 Bft)
25.05.2022 22:36 12,7 C 11,7 C 68 % 1020,6 hPa 0,0 l/m 10,3 km/h (2 Bft) S-SW 202 0 min 0,0 UV-I 0 W/m 6,9 C 10,4 C 19,3 km/h (3 Bft)
25.05.2022 22:38 12,8 C 12,2 C 67 % 1020,5 hPa 0,0 l/m 10,5 km/h (2 Bft) S-SW 203 0 min 0,0 UV-I 0 W/m 6,8 C 10,4 C 14,5 km/h (3 Bft)
25.05.2022 22:40 12,8 C 12,2 C 67 % 1020,5 hPa 0,0 l/m 7,8 km/h (2 Bft) S-SW 198 0 min 0,0 UV-I 0 W/m 6,8 C 11,9 C 12,9 km/h (3 Bft)
25.05.2022 22:42 12,8 C 12,2 C 67 % 1020,6 hPa 0,0 l/m 10,3 km/h (2 Bft) S-SW 200 0 min 0,0 UV-I 0 W/m 6,8 C 10,5 C 17,7 km/h (3 Bft)
25.05.2022 22:44 12,7 C 12,2 C 68 % 1020,6 hPa 0,0 l/m 6,4 km/h (2 Bft) S-SW 192 0 min 0,0 UV-I 0 W/m 6,9 C 12,7 C 9,7 km/h (2 Bft)
25.05.2022 22:46 12,7 C 11,7 C 68 % 1020,6 hPa 0,0 l/m 7,2 km/h (2 Bft) S-SW 196 0 min 0,0 UV-I 0 W/m 6,9 C 12,2 C 11,3 km/h (2 Bft)
25.05.2022 22:48 12,7 C 11,7 C 68 % 1020,6 hPa 0,0 l/m 6,8 km/h (2 Bft) S 182 0 min 0,0 UV-I 0 W/m 6,9 C 12,5 C 11,3 km/h (2 Bft)
25.05.2022 22:50 12,7 C 11,7 C 68 % 1020,6 hPa 0,0 l/m 6,7 km/h (2 Bft) S 174 0 min 0,0 UV-I 0 W/m 6,9 C 12,5 C 11,3 km/h (2 Bft)
25.05.2022 22:52 12,7 C 11,7 C 68 % 1020,7 hPa 0,0 l/m 6,6 km/h (2 Bft) S-SW 203 0 min 0,0 UV-I 0 W/m 6,9 C 12,6 C 11,3 km/h (2 Bft)
25.05.2022 22:54 12,7 C 11,7 C 68 % 1020,7 hPa 0,0 l/m 6,8 km/h (2 Bft) S 171 0 min 0,0 UV-I 0 W/m 6,9 C 12,5 C 14,5 km/h (3 Bft)
25.05.2022 22:56 12,7 C 11,7 C 69 % 1020,7 hPa 0,0 l/m 5,4 km/h (1 Bft) S-SW 196 0 min 0,0 UV-I 0 W/m 7,2 C 12,7 C 9,7 km/h (2 Bft)
25.05.2022 22:58 12,7 C 11,7 C 68 % 1020,6 hPa 0,0 l/m 8,8 km/h (2 Bft) S-SW 196 0 min 0,0 UV-I 0 W/m 6,9 C 11,2 C 14,5 km/h (3 Bft)
25.05.2022 23:00 12,7 C 11,7 C 69 % 1020,6 hPa 0,0 l/m 6,3 km/h (2 Bft) S-SW 195 0 min 0,0 UV-I 0 W/m 7,2 C 12,7 C 11,3 km/h (2 Bft)
25.05.2022 23:02 12,7 C 11,7 C 69 % 1020,6 hPa 0,0 l/m 7,4 km/h (2 Bft) S-SW 198 0 min 0,0 UV-I 0 W/m 7,2 C 12,1 C 11,3 km/h (2 Bft)
25.05.2022 23:04 12,6 C 11,7 C 69 % 1020,7 hPa 0,0 l/m 8,8 km/h (2 Bft) S 183 0 min 0,0 UV-I 0 W/m 7,1 C 11,1 C 14,5 km/h (3 Bft)
25.05.2022 23:06 12,6 C 11,7 C 69 % 1020,7 hPa 0,0 l/m 8,0 km/h (2 Bft) S-SW 210 0 min 0,0 UV-I 0 W/m 7,1 C 11,6 C 12,9 km/h (3 Bft)
25.05.2022 23:08 12,6 C 11,7 C 69 % 1020,7 hPa 0,0 l/m 6,7 km/h (2 Bft) S 173 0 min 0,0 UV-I 0 W/m 7,1 C 12,4 C 11,3 km/h (2 Bft)
25.05.2022 23:10 12,6 C 11,7 C 69 % 1020,6 hPa 0,0 l/m 9,0 km/h (2 Bft) S-SW 202 0 min 0,0 UV-I 0 W/m 7,1 C 11,0 C 12,9 km/h (3 Bft)
25.05.2022 23:12 12,6 C 11,7 C 69 % 1020,7 hPa 0,0 l/m 7,8 km/h (2 Bft) S-SO 154 0 min 0,0 UV-I 0 W/m 7,1 C 11,7 C 11,3 km/h (2 Bft)
25.05.2022 23:14 12,6 C 11,7 C 69 % 1020,7 hPa 0,0 l/m 5,2 km/h (1 Bft) S-SW 202 0 min 0,0 UV-I 0 W/m 7,1 C 12,6 C 9,7 km/h (2 Bft)
25.05.2022 23:16 12,6 C 11,7 C 69 % 1020,8 hPa 0,0 l/m 8,6 km/h (2 Bft) S-SW 209 0 min 0,0 UV-I 0 W/m 7,1 C 11,2 C 11,3 km/h (2 Bft)
25.05.2022 23:18 12,6 C 11,7 C 69 % 1020,7 hPa 0,0 l/m 7,8 km/h (2 Bft) S-SW 198 0 min 0,0 UV-I 0 W/m 7,1 C 11,7 C 11,3 km/h (2 Bft)
25.05.2022 23:20 12,6 C 11,7 C 70 % 1020,8 hPa 0,0 l/m 9,1 km/h (2 Bft) S 180 0 min 0,0 UV-I 0 W/m 7,3 C 10,9 C 14,5 km/h (3 Bft)
25.05.2022 23:22 12,6 C 11,7 C 70 % 1020,7 hPa 0,0 l/m 6,2 km/h (2 Bft) S-SW 206 0 min 0,0 UV-I 0 W/m 7,3 C 12,6 C 9,7 km/h (2 Bft)
25.05.2022 23:24 12,6 C 11,7 C 70 % 1020,7 hPa 0,0 l/m 8,4 km/h (2 Bft) S-SW 198 0 min 0,0 UV-I 0 W/m 7,3 C 11,3 C 12,9 km/h (3 Bft)
25.05.2022 23:26 12,6 C 11,7 C 70 % 1020,8 hPa 0,0 l/m 9,6 km/h (2 Bft) S-SW 198 0 min 0,0 UV-I 0 W/m 7,3 C 10,7 C 14,5 km/h (3 Bft)
25.05.2022 23:28 12,6 C 11,7 C 70 % 1020,8 hPa 0,0 l/m 6,7 km/h (2 Bft) S-SW 204 0 min 0,0 UV-I 0 W/m 7,3 C 12,4 C 9,7 km/h (2 Bft)
25.05.2022 23:30 12,5 C 11,7 C 70 % 1020,7 hPa 0,0 l/m 5,6 km/h (1 Bft) SW 218 0 min 0,0 UV-I 0 W/m 7,2 C 12,5 C 8,0 km/h (2 Bft)
25.05.2022 23:32 12,5 C 11,7 C 70 % 1020,7 hPa 0,0 l/m 7,9 km/h (2 Bft) W-SW 244 0 min 0,0 UV-I 0 W/m 7,2 C 11,5 C 16,1 km/h (3 Bft)
25.05.2022 23:34 12,5 C 11,7 C 70 % 1020,6 hPa 0,0 l/m 7,3 km/h (2 Bft) S-SW 203 0 min 0,0 UV-I 0 W/m 7,2 C 11,9 C 11,3 km/h (2 Bft)
25.05.2022 23:36 12,5 C 11,7 C 70 % 1020,7 hPa 0,0 l/m 8,3 km/h (2 Bft) S 190 0 min 0,0 UV-I 0 W/m 7,2 C 11,3 C 11,3 km/h (2 Bft)
25.05.2022 23:38 12,5 C 11,7 C 70 % 1020,6 hPa 0,0 l/m 7,1 km/h (2 Bft) SW 229 0 min 0,0 UV-I 0 W/m 7,2 C 12,0 C 12,9 km/h (3 Bft)
25.05.2022 23:40 12,5 C 11,7 C 70 % 1020,7 hPa 0,0 l/m 9,5 km/h (2 Bft) S-SO 167 0 min 0,0 UV-I 0 W/m 7,2 C 10,6 C 14,5 km/h (3 Bft)
25.05.2022 23:42 12,6 C 11,7 C 70 % 1020,7 hPa 0,0 l/m 10,6 km/h (2 Bft) S-SW 203 0 min 0,0 UV-I 0 W/m 7,3 C 10,2 C 16,1 km/h (3 Bft)
25.05.2022 23:44 12,6 C 11,7 C 70 % 1020,6 hPa 0,0 l/m 11,1 km/h (2 Bft) S-SW 198 0 min 0,0 UV-I 0 W/m 7,3 C 9,9 C 16,1 km/h (3 Bft)
25.05.2022 23:46 12,6 C 11,7 C 70 % 1020,6 hPa 0,0 l/m 10,2 km/h (2 Bft) S 186 0 min 0,0 UV-I 0 W/m 7,3 C 10,4 C 14,5 km/h (3 Bft)
25.05.2022 23:48 12,6 C 11,7 C 71 % 1020,6 hPa 0,0 l/m 7,3 km/h (2 Bft) S-SW 202 0 min 0,0 UV-I 0 W/m 7,5 C 12,0 C 12,9 km/h (3 Bft)
25.05.2022 23:50 12,5 C 11,7 C 71 % 1020,6 hPa 0,0 l/m 9,0 km/h (2 Bft) S-SW 195 0 min 0,0 UV-I 0 W/m 7,4 C 10,9 C 14,5 km/h (3 Bft)
25.05.2022 23:52 12,5 C 11,7 C 71 % 1020,6 hPa 0,0 l/m 8,9 km/h (2 Bft) S-SW 200 0 min 0,0 UV-I 0 W/m 7,4 C 11,0 C 12,9 km/h (3 Bft)
25.05.2022 23:54 12,5 C 11,7 C 71 % 1020,6 hPa 0,0 l/m 9,7 km/h (2 Bft) SW 231 0 min 0,0 UV-I 0 W/m 7,4 C 10,5 C 16,1 km/h (3 Bft)
25.05.2022 23:56 12,4 C 11,7 C 71 % 1020,6 hPa 0,0 l/m 8,1 km/h (2 Bft) S-SW 194 0 min 0,0 UV-I 0 W/m 7,3 C 11,3 C 9,7 km/h (2 Bft)
25.05.2022 23:58 12,4 C 11,7 C 71 % 1020,7 hPa 0,0 l/m 5,9 km/h (2 Bft) S-SW 209 0 min 0,0 UV-I 0 W/m 7,3 C 12,4 C 8,0 km/h (2 Bft)
25.05.2022 23:59 12,4 C 11,7 C 71 % 1020,7 hPa 0,0 l/m 8,0 km/h (2 Bft) S-SW 202 0 min 0,0 UV-I 0 W/m 7,3 C 11,4 C 11,3 km/h (2 Bft)
_ Min-Zeit 05:49 04:57 16:12 00:03 - 00:09 - - - - - 05:49 05:49 00:09
Minimum _ 3,1 C 1,7 C 51 % 1014,0 hPa - 0,0 km/h (0 Bft) - - - - - 1,9 C 3,1 C 0,0 km/h (0 Bft)
_ Max-Zeit 15:52 15:44 06:10 23:16 00:00 13:52 - - 08:32 13:40 13:18 14:18 19:50 11:20
Maximum _ 16,8 C 23,3 C 94 % 1020,8 hPa 0,0 l/m 27,1 km/h
S-SW (4 Bft)
- - 2 min 6,8 UV-I 1144 W/m 7,9 C 14,6 C 40,2 km/h
S (6 Bft)
Durchschnitt _ 11,0 C 11,6 C 73 % 1017,8 hPa #0,0 l/m 9,1 km/h (2 Bft) S-SW - #6:46 h 2,9 UV-I 382 W/m 5,9 C 9,0 C 14,5 km/h (3 Bft)